LiveATC.Net - Listen to live air traffic control over the Internet!
Airport/ARTCC Code
Frequency Search
(e.g., 124.400, 128.75)
Site-wide search
 


Browse Feeds
Top 50 Feeds
HF Oceanic Feeds
Coverage Map
Bad Weather Areas

LiveATC FAQ

Increase Coverage

Contact LiveATC.net
Press Inquiries

LiveATC on iPhone
LiveATC on Android

LiveATC Mobile
(Mobile browser)

ATC Audio Archives
Interesting Recordings

LiveATC Forums

Home Page
About LiveATC.net


Terms of Use
Privacy Policy

AIRMETs/SIGMETs

FAA Airport Status
NAS Status
Arrival Demand


Server Software By:
Icecast.org
Liquidsoap

Select an area of interest:
U.S. Feeds: Class B Airports | Class C Airports | Class D/Other Airports | ARTCC (Centers)
International Feeds: Canada | Europe | Oceania | Asia | South America | North/Central America | Africa
Misc Feeds: HF Feeds
Search by ICAO/IATA airport code:   (e.g., kbos, kjfk, lax, eham, etc.)


Currently Available Live Feeds: 3220
Status Updated: Fri Apr 12 2024 16:55:38 UTC


NOTICE

Unauthorized use prohibited. See LiveATC.net Terms of Service

U.S. Class D Airport and ARTCCC Feeds

 

KUES Del/Gnd/Twr/02C (Archives)
Brookfield, Wisconsin, United States

Feed Status: UP
Listen in your browser - HTML5 player(in browser, HTML5)
Click here to listen with your own player(launches your MP3 player)

KUES 121545Z 30015G30KT 10SM SCT036 12/03 A2973

KUES Airport Info (Airnav.com)

KUES Flight Activity (Flightaware)

Listeners: 2 out of 2995 total

Capitol CTAF: 122.700
Waukesha Clearance Delivery: 128.700
Waukesha Ground: 121.600
Waukesha Tower: 123.700

44N/06N CTAF (Archives)
MIddletown, New York, United States

Feed Status: UP
Listen in your browser - HTML5 player(in browser, HTML5)
Click here to listen with your own player(launches your MP3 player)

KSWF 121445Z 15010KT 5SM -RA BR OVC007 16/14 A2932

KSWF Airport Info (Airnav.com)

KSWF Flight Activity (Flightaware)

Listeners: 1 out of 2995 total

44N Sky Acres CTAF: 122.800
Randall CTAF: 122.800

44N/06N CTAF (Archives)
MIddletown, New York, United States

Feed Status: UP
Listen in your browser - HTML5 player(in browser, HTML5)
Click here to listen with your own player(launches your MP3 player)

KSWF 121445Z 15010KT 5SM -RA BR OVC007 16/14 A2932

KSWF Airport Info (Airnav.com)

KSWF Flight Activity (Flightaware)

Listeners: 1 out of 2995 total

44N Sky Acres CTAF: 122.800
Randall CTAF: 122.800

0V4 CTAF (Archives)
Brookneal, Virginia, United States

Feed Status: UP
Listen in your browser - HTML5 player(in browser, HTML5)
Click here to listen with your own player(launches your MP3 player)

K0V4 Airport Info (Airnav.com)

K0V4 Flight Activity (Flightaware)

Listeners: 1 out of 2995 total

Brookneal CTAF: 122.700

10C CTAF (Archives)
Greenwood/Wonder Lake, Illinois, United States

Feed Status: UP
Listen in your browser - HTML5 player(in browser, HTML5)
Click here to listen with your own player(launches your MP3 player)


Listeners: 0 out of 2995 total

3CK CTAF: 123.050
Greenwood CTAF: 122.800

16J CTAF (Archives)
Dawson, Georgia, United States

Feed Status: UP
Listen in your browser - HTML5 player(in browser, HTML5)
Click here to listen with your own player(launches your MP3 player)

K16J Airport Info (Airnav.com)

K16J Flight Activity (Flightaware)

Listeners: 0 out of 2995 total

Dawson CTAF: 122.800

SNJ Area CTAF 122.8 (Archives)
Cross Keys, New Jersey, United States

Feed Status: UP
Listen in your browser - HTML5 player(in browser, HTML5)
Click here to listen with your own player(launches your MP3 player)

KPNE 121554Z 25013G25KT 10SM -RA FEW018 SCT026 OVC040 15/ A2940 RMK AO2 PK WND 24032/1536 WSHFT 1441 RAE1455B25 SLP953 P0000 T0150 $

KPNE Airport Info (Airnav.com)

KPNE Flight Activity (Flightaware)

Listeners: 0 out of 2995 total

CTAF: 122.800

MA/NH/RI/CT Area CTAF (Archives)
Hopedale, Massachusetts, United States

Feed Status: UP
Listen in your browser - HTML5 player(in browser, HTML5)
Click here to listen with your own player(launches your MP3 player)

KBOS 121606Z 18028G41KT 7SM BKN009 OVC015 16/14 A2946 RMK AO2 PK WND 17041/1602 T01610144 $

KBOS Airport Info (Airnav.com)

KBOS Flight Activity (Flightaware)

Listeners: 0 out of 2995 total

Air-to-Air: 122.750
Bridgeport Flight Service: 122.200
CTAF: 122.700
CTAF: 122.800
CTAF: 122.900
CTAF: 123.000
Emergency/Guard: 121.500

MA/NH/RI/CT Area CTAF (Archives)
Hopedale, Massachusetts, United States

Feed Status: UP
Listen in your browser - HTML5 player(in browser, HTML5)
Click here to listen with your own player(launches your MP3 player)

KBOS 121606Z 18028G41KT 7SM BKN009 OVC015 16/14 A2946 RMK AO2 PK WND 17041/1602 T01610144 $

KBOS Airport Info (Airnav.com)

KBOS Flight Activity (Flightaware)

Listeners: 0 out of 2995 total

Air-to-Air: 122.750
Bridgeport Flight Service: 122.200
CTAF: 122.700
CTAF: 122.800
CTAF: 122.900
CTAF: 123.000
Emergency/Guard: 121.500

MA/NH/RI/CT Area CTAF (Archives)
Hopedale, Massachusetts, United States

Feed Status: UP
Listen in your browser - HTML5 player(in browser, HTML5)
Click here to listen with your own player(launches your MP3 player)

KBOS 121606Z 18028G41KT 7SM BKN009 OVC015 16/14 A2946 RMK AO2 PK WND 17041/1602 T01610144 $

KBOS Airport Info (Airnav.com)

KBOS Flight Activity (Flightaware)

Listeners: 0 out of 2995 total

Air-to-Air: 122.750
Bridgeport Flight Service: 122.200
CTAF: 122.700
CTAF: 122.800
CTAF: 122.900
CTAF: 123.000
Emergency/Guard: 121.500

1B9 Area Guard (Archives)
Mansfield, Massachusetts, United States

Feed Status: UP
Listen in your browser - HTML5 player(in browser, HTML5)
Click here to listen with your own player(launches your MP3 player)


Listeners: 0 out of 2995 total

Emergency/Guard: 121.500

1B9 CTAF #1 (Archives)
Mansfield, Massachusetts, United States

Feed Status: UP
Listen in your browser - HTML5 player(in browser, HTML5)
Click here to listen with your own player(launches your MP3 player)


Listeners: 0 out of 2995 total

Mansfield CTAF/UNICOM: 123.000

1B9 CTAF #2 (Archives)
Mansfield, Massachusetts, United States

Feed Status: UP
Listen in your browser - HTML5 player(in browser, HTML5)
Click here to listen with your own player(launches your MP3 player)


Listeners: 0 out of 2995 total

Mansfield CTAF/UNICOM: 123.000

1B9 CTAF/RCO (Archives)
Mansfield, Massachusetts, United States

Feed Status: UP
Listen in your browser - HTML5 player(in browser, HTML5)
Click here to listen with your own player(launches your MP3 player)


Listeners: 0 out of 2995 total

Bridgeport FSS (RCO): 122.500
Mansfield CTAF/UNICOM: 123.000

1B9 Del/RCO #1 (Archives)
Mansfield, Massachusetts, United States

Feed Status: UP
Listen in your browser - HTML5 player(in browser, HTML5)
Click here to listen with your own player(launches your MP3 player)


Listeners: 0 out of 2995 total

Mansfield Clearance Delivery (RCO): 122.500

1B9 Del/RCO #2 (Archives)
Mansfield, Massachusetts, United States

Feed Status: UP
Listen in your browser - HTML5 player(in browser, HTML5)
Click here to listen with your own player(launches your MP3 player)


Listeners: 0 out of 2995 total

Mansfield Clearance Delivery (RCO): 122.500

1C9 CTAF (Archives)
Hollister, California, United States

Feed Status: UP
Listen in your browser - HTML5 player(in browser, HTML5)
Click here to listen with your own player(launches your MP3 player)

K1C9 Airport Info (Airnav.com)

K1C9 Flight Activity (Flightaware)

Listeners: 0 out of 2995 total

Frazier CTAF: 123.050

1G0 CTAF (Archives)
Bowling Green, Ohio, United States

Feed Status: UP
Listen in your browser - HTML5 player(in browser, HTML5)
Click here to listen with your own player(launches your MP3 player)


Listeners: 0 out of 2995 total

Wood County CTAF: 122.975

26MA CTAF (Archives)
Pepperell, Massachusetts, United States

Feed Status: UP
Listen in your browser - HTML5 player(in browser, HTML5)
Click here to listen with your own player(launches your MP3 player)

KMHT 121553Z 16016G26KT 5SM -RA BR BKN013 OVC018 18/16 A2943 RMK AO2 PK WND 16032/1522 RAE25B47 SLP977 P0000 T01780156

KMHT Airport Info (Airnav.com)

KMHT Flight Activity (Flightaware)

Listeners: 1 out of 2995 total

CTAF: 123.050

MA/NH/RI/CT Area CTAF (Archives)
Newburyport, Massachusetts, United States

Feed Status: UP
Listen in your browser - HTML5 player(in browser, HTML5)
Click here to listen with your own player(launches your MP3 player)

KBOS 121606Z 18028G41KT 7SM BKN009 OVC015 16/14 A2946 RMK AO2 PK WND 17041/1602 T01610144 $

KBOS Airport Info (Airnav.com)

KBOS Flight Activity (Flightaware)

Listeners: 0 out of 2995 total

Air-to-Air: 122.750
Bridgeport Flight Service: 122.200
CTAF: 122.700
CTAF: 122.800
CTAF: 122.900
CTAF: 123.000
Emergency/Guard: 121.500

MA/NH/RI/CT Area CTAF (Archives)
Newburyport, Massachusetts, United States

Feed Status: UP
Listen in your browser - HTML5 player(in browser, HTML5)
Click here to listen with your own player(launches your MP3 player)

KBOS 121606Z 18028G41KT 7SM BKN009 OVC015 16/14 A2946 RMK AO2 PK WND 17041/1602 T01610144 $

KBOS Airport Info (Airnav.com)

KBOS Flight Activity (Flightaware)

Listeners: 0 out of 2995 total

Air-to-Air: 122.750
Bridgeport Flight Service: 122.200
CTAF: 122.700
CTAF: 122.800
CTAF: 122.900
CTAF: 123.000
Emergency/Guard: 121.500

MA/NH/RI/CT Area CTAF (Archives)
Newburyport, Massachusetts, United States

Feed Status: UP
Listen in your browser - HTML5 player(in browser, HTML5)
Click here to listen with your own player(launches your MP3 player)

KBOS 121606Z 18028G41KT 7SM BKN009 OVC015 16/14 A2946 RMK AO2 PK WND 17041/1602 T01610144 $

KBOS Airport Info (Airnav.com)

KBOS Flight Activity (Flightaware)

Listeners: 0 out of 2995 total

Air-to-Air: 122.750
Bridgeport Flight Service: 122.200
CTAF: 122.700
CTAF: 122.800
CTAF: 122.900
CTAF: 123.000
Emergency/Guard: 121.500

2GC CTAF (Archives)
Fayetteville, North Carolina, United States

Feed Status: UP
Listen in your browser - HTML5 player(in browser, HTML5)
Click here to listen with your own player(launches your MP3 player)

KFAY 121553Z 25016G24KT 10SM SCT050 SCT060 21/08 A2978 RMK AO2 PK WND 22027/1541 SLP077 T02060078

KFAY Airport Info (Airnav.com)

KFAY Flight Activity (Flightaware)

Listeners: 0 out of 2995 total

Grays Creek CTAF: 122.900

2J6 CTAF (Archives)
Pierson, Florida, United States

Feed Status: UP
Listen in your browser - HTML5 player(in browser, HTML5)
Click here to listen with your own player(launches your MP3 player)

KDED 121615Z AUTO 26009G15KT 230V300 10SM CLR 24/09 A3013 RMK AO2 T02370085

KDED Airport Info (Airnav.com)

KDED Flight Activity (Flightaware)

Listeners: 0 out of 2995 total

Pierson CTAF: 122.900

2NC0 CTAF
Burnsville, North Carolina, United States

Feed Status: DOWN
Offline since: 2024-04-11 21:40:05 UTC

Mountain Air CTAF: 122.725

2O3 CTAF (Archives)
Angwin, California, United States

Feed Status: UP
Listen in your browser - HTML5 player(in browser, HTML5)
Click here to listen with your own player(launches your MP3 player)


Listeners: 0 out of 2995 total

Angwin CTAF: 123.000

2W2 CTAF (Archives)
Westminster, Maryland, United States

Feed Status: UP
Listen in your browser - HTML5 player(in browser, HTML5)
Click here to listen with your own player(launches your MP3 player)

KDMW 121605Z AUTO 24021G27KT 10SM SCT042 SCT050 16/06 A2945 RMK AO2

KDMW Airport Info (Airnav.com)

KDMW Flight Activity (Flightaware)

Listeners: 0 out of 2995 total

Westminster CTAF: 122.800

38W CTAF (Archives)
Lynden, Washington, United States

Feed Status: UP
Listen in your browser - HTML5 player(in browser, HTML5)
Click here to listen with your own player(launches your MP3 player)


Listeners: 1 out of 2995 total

Lynden CTAF: 122.900

39N CTAF (Archives)
Princeton/Rocky Hill, New Jersey, United States

Feed Status: UP
Listen in your browser - HTML5 player(in browser, HTML5)
Click here to listen with your own player(launches your MP3 player)


Listeners: 0 out of 2995 total

Princeton CTAF: 122.725

10C/C81/3CK CTAF (Archives)
Chicago/Lake In The Hills, Illinois, United States

Feed Status: UP
Listen in your browser - HTML5 player(in browser, HTML5)
Click here to listen with your own player(launches your MP3 player)


Listeners: 0 out of 2995 total

3CK CTAF: 123.050
Greenwood CTAF: 122.800

3M5 CTAF
Huntsville, Alabama, United States

Feed Status: DOWN
Offline since: 2023-11-03 18:04:05 UTC

Moontown CTAF: 122.700

3N6 CTAF (Archives)
Old Bridge, New Jersey, United States

Feed Status: UP
Listen in your browser - HTML5 player(in browser, HTML5)
Click here to listen with your own player(launches your MP3 player)


Listeners: 0 out of 2995 total

Old Bridge CTAF: 123.075

KBLM/N12/3N6/KMJX
Old Bridge, New Jersey, United States

Feed Status: DOWN
Offline since: 2024-04-06 06:00:04 UTC

KBLM 121624Z AUTO 25017G27KT 10SM -RA BKN013 BKN020 OVC029 15/14 A2936 RMK AO2 PK WND 28027/1617 WSHFT 1604 LTG DSNT N RAB05 PRESRR P0001

KBLM Airport Info (Airnav.com)

3N6 Old Bridge CTAF: 123.075
Emergency/Guard: 121.500
Monmouth Clearance: 120.950
Monmouth Clearance: 126.150
Monmouth CTAF: 123.000
N12 Lakewood CTAF: 122.800
Ocean County KMJX CTAF: 122.700

3S8 CTAF (Archives)
Grants Pass, Oregon, United States

Feed Status: UP
Listen in your browser - HTML5 player(in browser, HTML5)
Click here to listen with your own player(launches your MP3 player)


Listeners: 0 out of 2995 total

Grants Pass CTAF: 122.800

44N/06N CTAF (Archives)
Millbrook, New York, United States

Feed Status: UP
Listen in your browser - HTML5 player(in browser, HTML5)
Click here to listen with your own player(launches your MP3 player)

KSWF 121445Z 15010KT 5SM -RA BR OVC007 16/14 A2932

KSWF Airport Info (Airnav.com)

KSWF Flight Activity (Flightaware)

Listeners: 1 out of 2995 total

44N Sky Acres CTAF: 122.800
Randall CTAF: 122.800

44N/06N CTAF (Archives)
Millbrook, New York, United States

Feed Status: UP
Listen in your browser - HTML5 player(in browser, HTML5)
Click here to listen with your own player(launches your MP3 player)

KSWF 121445Z 15010KT 5SM -RA BR OVC007 16/14 A2932

KSWF Airport Info (Airnav.com)

KSWF Flight Activity (Flightaware)

Listeners: 1 out of 2995 total

44N Sky Acres CTAF: 122.800
Randall CTAF: 122.800

46U AWOS (Archives)
Alpine, Wyoming, United States

Feed Status: UP
Listen in your browser - HTML5 player(in browser, HTML5)
Click here to listen with your own player(launches your MP3 player)


Listeners: 0 out of 2995 total

Alpine AWOS: 119.925

46U CTAF (Archives)
Alpine, Wyoming, United States

Feed Status: UP
Listen in your browser - HTML5 player(in browser, HTML5)
Click here to listen with your own player(launches your MP3 player)


Listeners: 0 out of 2995 total

Alpine CTAF: 122.900

47N CTAF (Archives)
Manville, New Jersey, United States

Feed Status: UP
Listen in your browser - HTML5 player(in browser, HTML5)
Click here to listen with your own player(launches your MP3 player)


Listeners: 0 out of 2995 total

Central Jersey CTAF: 122.700

4NY8 CTAF (Archives)
Elmira, New York, United States

Feed Status: UP
Listen in your browser - HTML5 player(in browser, HTML5)
Click here to listen with your own player(launches your MP3 player)

KELM 121553Z 25016G25KT 10SM OVC041 14/06 A2923 RMK AO2 PK WND 25032/1512 SLP897 T01440061

KELM Airport Info (Airnav.com)

KELM Flight Activity (Flightaware)

Listeners: 0 out of 2995 total

Harris Gliderport CTAF: 123.300

4S1 CTAF (Archives)
Gold Beach, Oregon, United States

Feed Status: UP
Listen in your browser - HTML5 player(in browser, HTML5)
Click here to listen with your own player(launches your MP3 player)

K4S1 Airport Info (Airnav.com)

K4S1 Flight Activity (Flightaware)

Listeners: 0 out of 2995 total

Gold Beach CTAF: 122.800

52F CTAF (Archives)
Roanoke, Texas, United States

Feed Status: UP
Listen in your browser - HTML5 player(in browser, HTML5)
Click here to listen with your own player(launches your MP3 player)

KAFW 121553Z 18010KT 10SM FEW250 21/07 A3025 RMK AO2 SLP238 T02110067

KAFW Airport Info (Airnav.com)

KAFW Flight Activity (Flightaware)

Listeners: 0 out of 2995 total

52F CTAF: 122.900

52F CTAF #1 (Archives)
Roanoke, Texas, United States

Feed Status: UP
Listen in your browser - HTML5 player(in browser, HTML5)
Click here to listen with your own player(launches your MP3 player)


Listeners: 0 out of 2995 total

52F CTAF: 122.900

52F Emergency/Guard (Archives)
Roanoke, Texas, United States

Feed Status: UP
Listen in your browser - HTML5 player(in browser, HTML5)
Click here to listen with your own player(launches your MP3 player)


Listeners: 0 out of 2995 total

Emergency/Guard: 121.500

54AZ CTAF (Archives)
Somerton, Arizona, United States

Feed Status: UP
Listen in your browser - HTML5 player(in browser, HTML5)
Click here to listen with your own player(launches your MP3 player)


Listeners: 0 out of 2995 total

Somerton CTAF: 123.000

KMTC Area CTAF (Archives)
Ray, Michigan, United States

Feed Status: UP
Listen in your browser - HTML5 player(in browser, HTML5)
Click here to listen with your own player(launches your MP3 player)

KMTC 121556Z 28020G26KT 10SM -RA BKN019 BKN024 OVC032 09/06 A2932 RMK AO2A PK WND 29028/22 SLP935 P0000 T00880055 $

KMTC Airport Info (Airnav.com)

KMTC Flight Activity (Flightaware)

Listeners: 0 out of 2995 total

Air to Air: 123.450
Marine City CTAF (76G): 123.000
Port Huron CTAF: 123.050
Ray CTAF: 122.700
Romeo CTAF: 122.800
St Clair CTAF: 122.800
Troy CTAF: 123.050

5A2/5GE1 CTAF
Warner Robins, Georgia, United States

Feed Status: DOWN
Offline since: 2023-05-23 16:37:05 UTC

Warner Robins/Peachtree Landings CTAF: 122.900

5C1 CTAF (Archives)
San Antonio, Texas, United States

Feed Status: UP
Listen in your browser - HTML5 player(in browser, HTML5)
Click here to listen with your own player(launches your MP3 player)

K5C1 121615Z AUTO 17011G17KT 10SM CLR 22/06 A3029 RMK AO1

K5C1 Airport Info (Airnav.com)

K5C1 Flight Activity (Flightaware)

Listeners: 0 out of 2995 total

Boerne Stage CTAF: 123.000

5A2/5GE1 CTAF
Fort Valley, Georgia, United States

Feed Status: DOWN
Offline since: 2023-05-23 16:37:05 UTC

Warner Robins/Peachtree Landings CTAF: 122.900

KMTC Area CTAF (Archives)
St Clair, Michigan, United States

Feed Status: UP
Listen in your browser - HTML5 player(in browser, HTML5)
Click here to listen with your own player(launches your MP3 player)

KMTC 121556Z 28020G26KT 10SM -RA BKN019 BKN024 OVC032 09/06 A2932 RMK AO2A PK WND 29028/22 SLP935 P0000 T00880055 $

KMTC Airport Info (Airnav.com)

KMTC Flight Activity (Flightaware)

Listeners: 0 out of 2995 total

Air to Air: 123.450
Marine City CTAF (76G): 123.000
Port Huron CTAF: 123.050
Ray CTAF: 122.700
Romeo CTAF: 122.800
St Clair CTAF: 122.800
Troy CTAF: 123.050

West Palm Beach Area CTAFs (Archives)
West Palm Beach, Florida, United States

Feed Status: UP
Listen in your browser - HTML5 player(in browser, HTML5)
Click here to listen with your own player(launches your MP3 player)

KPBI 121553Z 02006KT 10SM FEW038 SCT250 26/15 A3015 RMK AO2 SLP207 T02560150 $

KPBI Airport Info (Airnav.com)

KPBI Flight Activity (Flightaware)

Listeners: 0 out of 2995 total

Emergency/Guard: 121.500
Lantana CTAF: 122.700
North County CTAF: 123.075
St Marys Hospital Heliport: 122.800
Wellington CTAF: 122.850

MA/NH CTAF 122.8 (Archives)
Stow, Massachusetts, United States

Feed Status: UP
Listen in your browser - HTML5 player(in browser, HTML5)
Click here to listen with your own player(launches your MP3 player)

KMHT 121553Z 16016G26KT 5SM -RA BR BKN013 OVC018 18/16 A2943 RMK AO2 PK WND 16032/1522 RAE25B47 SLP977 P0000 T01780156

KMHT Airport Info (Airnav.com)

KMHT Flight Activity (Flightaware)

Listeners: 0 out of 2995 total

MA/NH Area CTAF: 122.800

MA/NH/RI/CT Area CTAF (Archives)
Stow, Massachusetts, United States

Feed Status: UP
Listen in your browser - HTML5 player(in browser, HTML5)
Click here to listen with your own player(launches your MP3 player)

KBOS 121606Z 18028G41KT 7SM BKN009 OVC015 16/14 A2946 RMK AO2 PK WND 17041/1602 T01610144 $

KBOS Airport Info (Airnav.com)

KBOS Flight Activity (Flightaware)

Listeners: 0 out of 2995 total

Air-to-Air: 122.750
Bridgeport Flight Service: 122.200
CTAF: 122.700
CTAF: 122.800
CTAF: 122.900
CTAF: 123.000
Emergency/Guard: 121.500

MA/NH/RI/CT Area CTAF (Archives)
Stow, Massachusetts, United States

Feed Status: UP
Listen in your browser - HTML5 player(in browser, HTML5)
Click here to listen with your own player(launches your MP3 player)

KBOS 121606Z 18028G41KT 7SM BKN009 OVC015 16/14 A2946 RMK AO2 PK WND 17041/1602 T01610144 $

KBOS Airport Info (Airnav.com)

KBOS Flight Activity (Flightaware)

Listeners: 0 out of 2995 total

Air-to-Air: 122.750
Bridgeport Flight Service: 122.200
CTAF: 122.700
CTAF: 122.800
CTAF: 122.900
CTAF: 123.000
Emergency/Guard: 121.500

MA/NH/RI/CT Area CTAF (Archives)
Stow, Massachusetts, United States

Feed Status: UP
Listen in your browser - HTML5 player(in browser, HTML5)
Click here to listen with your own player(launches your MP3 player)

KBOS 121606Z 18028G41KT 7SM BKN009 OVC015 16/14 A2946 RMK AO2 PK WND 17041/1602 T01610144 $

KBOS Airport Info (Airnav.com)

KBOS Flight Activity (Flightaware)

Listeners: 0 out of 2995 total

Air-to-Air: 122.750
Bridgeport Flight Service: 122.200
CTAF: 122.700
CTAF: 122.800
CTAF: 122.900
CTAF: 123.000
Emergency/Guard: 121.500

KMTC Area CTAF (Archives)
Marine City, Michigan, United States

Feed Status: UP
Listen in your browser - HTML5 player(in browser, HTML5)
Click here to listen with your own player(launches your MP3 player)

KMTC 121556Z 28020G26KT 10SM -RA BKN019 BKN024 OVC032 09/06 A2932 RMK AO2A PK WND 29028/22 SLP935 P0000 T00880055 $

KMTC Airport Info (Airnav.com)

KMTC Flight Activity (Flightaware)

Listeners: 0 out of 2995 total

Air to Air: 123.450
Marine City CTAF (76G): 123.000
Port Huron CTAF: 123.050
Ray CTAF: 122.700
Romeo CTAF: 122.800
St Clair CTAF: 122.800
Troy CTAF: 123.050

7B2 CTAF (Archives)
Northampton, Massachusetts, United States

Feed Status: UP
Listen in your browser - HTML5 player(in browser, HTML5)
Click here to listen with your own player(launches your MP3 player)


Listeners: 0 out of 2995 total

Northampton CTAF: 122.700

MA/NH CTAF 122.8 (Archives)
Hampton, New Hampshire, United States

Feed Status: UP
Listen in your browser - HTML5 player(in browser, HTML5)
Click here to listen with your own player(launches your MP3 player)

KMHT 121553Z 16016G26KT 5SM -RA BR BKN013 OVC018 18/16 A2943 RMK AO2 PK WND 16032/1522 RAE25B47 SLP977 P0000 T01780156

KMHT Airport Info (Airnav.com)

KMHT Flight Activity (Flightaware)

Listeners: 0 out of 2995 total

MA/NH Area CTAF: 122.800

7FL6 CTAF (Archives)
Daytona Beach, Florida, United States

Feed Status: UP
Listen in your browser - HTML5 player(in browser, HTML5)
Click here to listen with your own player(launches your MP3 player)

KDED 121615Z AUTO 26009G15KT 230V300 10SM CLR 24/09 A3013 RMK AO2 T02370085

KDED Airport Info (Airnav.com)

KDED Flight Activity (Flightaware)

Listeners: 0 out of 2995 total

Spruce Creek CTAF/UNICOM: 122.725

7S5 CTAF
Independence, Oregon, United States

Feed Status: DOWN
Offline since: 2024-02-26 00:29:22 UTC

Independence CTAF/UNICOM: 122.975

9S5 CTAF (Archives)
Three Forks, Montana, United States

Feed Status: UP
Listen in your browser - HTML5 player(in browser, HTML5)
Click here to listen with your own player(launches your MP3 player)

KBZN 121556Z VRB03KT 10SM CLR 17/02 A2980 RMK AO2 SLP065 T01720017

KBZN Airport Info (Airnav.com)

KBZN Flight Activity (Flightaware)

Listeners: 0 out of 2995 total

Three Forks CTAF: 122.800

B18/Lake Area CTAF (Archives)
Alton Bay, New Hampshire, United States

Feed Status: UP
Listen in your browser - HTML5 player(in browser, HTML5)
Click here to listen with your own player(launches your MP3 player)

KLCI 121556Z AUTO 17010G18KT 10SM OVC014 16/14 A2944 RMK AO2 RAE52 SLP972 P0001 T01560144

KLCI Airport Info (Airnav.com)

KLCI Flight Activity (Flightaware)

Listeners: 0 out of 2995 total

NH Area CTAF (Lakes Region): 122.800

C29 CTAF (Archives)
Middleton, Wisconsin, United States

Feed Status: UP
Listen in your browser - HTML5 player(in browser, HTML5)
Click here to listen with your own player(launches your MP3 player)

KC29 121615Z AUTO 31022G27KT 10SM CLR 14/08 A2981 RMK AO1 T01410076

KC29 Airport Info (Airnav.com)

KC29 Flight Activity (Flightaware)

Listeners: 0 out of 2995 total

Morey CTAF: 123.000

10C/C81/3CK CTAF (Archives)
Grayslake, Illinois, United States

Feed Status: UP
Listen in your browser - HTML5 player(in browser, HTML5)
Click here to listen with your own player(launches your MP3 player)


Listeners: 0 out of 2995 total

3CK CTAF: 123.050
Greenwood CTAF: 122.800

KMTC Area CTAF (Archives)
Romeo, Michigan, United States

Feed Status: UP
Listen in your browser - HTML5 player(in browser, HTML5)
Click here to listen with your own player(launches your MP3 player)

KMTC 121556Z 28020G26KT 10SM -RA BKN019 BKN024 OVC032 09/06 A2932 RMK AO2A PK WND 29028/22 SLP935 P0000 T00880055 $

KMTC Airport Info (Airnav.com)

KMTC Flight Activity (Flightaware)

Listeners: 0 out of 2995 total

Air to Air: 123.450
Marine City CTAF (76G): 123.000
Port Huron CTAF: 123.050
Ray CTAF: 122.700
Romeo CTAF: 122.800
St Clair CTAF: 122.800
Troy CTAF: 123.050

West Palm Beach Area CTAFs (Archives)
West Palm Beach, Florida, United States

Feed Status: UP
Listen in your browser - HTML5 player(in browser, HTML5)
Click here to listen with your own player(launches your MP3 player)

KPBI 121553Z 02006KT 10SM FEW038 SCT250 26/15 A3015 RMK AO2 SLP207 T02560150 $

KPBI Airport Info (Airnav.com)

KPBI Flight Activity (Flightaware)

Listeners: 0 out of 2995 total

Emergency/Guard: 121.500
Lantana CTAF: 122.700
North County CTAF: 123.075
St Marys Hospital Heliport: 122.800
Wellington CTAF: 122.850

KGIF/F57 CTAF (Archives)
Winter Haven, Florida, United States

Feed Status: UP
Listen in your browser - HTML5 player(in browser, HTML5)
Click here to listen with your own player(launches your MP3 player)

KGIF 121553Z AUTO VRB06KT 10SM CLR 24/09 A3018 RMK AO2 SLP216 T02390089

KGIF Airport Info (Airnav.com)

KGIF Flight Activity (Flightaware)

Listeners: 1 out of 2995 total

Winter Haven CTAF: 123.050
Winter Haven Temp. Tower (only during Sun 'n Fun): 119.125

FA40 CTAF (Archives)
New Port Richey, Florida, United States

Feed Status: UP
Listen in your browser - HTML5 player(in browser, HTML5)
Click here to listen with your own player(launches your MP3 player)


Listeners: 0 out of 2995 total

Hidden Lake CTAF: 123.000

West Palm Beach Area CTAFs (Archives)
West Palm Beach, Florida, United States

Feed Status: UP
Listen in your browser - HTML5 player(in browser, HTML5)
Click here to listen with your own player(launches your MP3 player)

KPBI 121553Z 02006KT 10SM FEW038 SCT250 26/15 A3015 RMK AO2 SLP207 T02560150 $

KPBI Airport Info (Airnav.com)

KPBI Flight Activity (Flightaware)

Listeners: 0 out of 2995 total

Emergency/Guard: 121.500
Lantana CTAF: 122.700
North County CTAF: 123.075
St Marys Hospital Heliport: 122.800
Wellington CTAF: 122.850

I35 CTAF/ZID (Archives)
Harlan, Kentucky, United States

Feed Status: UP
Listen in your browser - HTML5 player(in browser, HTML5)
Click here to listen with your own player(launches your MP3 player)

KI35 121615Z AUTO 27010G17KT 10SM SCT040 BKN046 OVC060 13/05 A2984 RMK AO2 T01340048

KI35 Airport Info (Airnav.com)

KI35 Flight Activity (Flightaware)

Listeners: 0 out of 2995 total

Harlan CTAF: 122.800
Indy Center (Sector 21 London Low): 121.325
Indy Center (Sector 21 London Low): 124.625
Indy Center (Sector 25 AZQ Low): 126.575

I68 CTAF (Archives)
Lebanon, Ohio, United States

Feed Status: UP
Listen in your browser - HTML5 player(in browser, HTML5)
Click here to listen with your own player(launches your MP3 player)


Listeners: 0 out of 2995 total

I68 CTAF: 123.075

K1H0 CTAF/Unicom (Archives)
St. Louis, Missouri, United States

Feed Status: UP
Listen in your browser - HTML5 player(in browser, HTML5)
Click here to listen with your own player(launches your MP3 player)

K1H0 Airport Info (Airnav.com)

K1H0 Flight Activity (Flightaware)

Listeners: 0 out of 2995 total

Creve Coeur CTAF: 122.800

KIXD Ground/Tower/K34 (Archives)
Gardner, Kansas, United States

Feed Status: UP
Listen in your browser - HTML5 player(in browser, HTML5)
Click here to listen with your own player(launches your MP3 player)

KIXD 121553Z 32009G16KT 10SM CLR 14/M02 A3021 RMK AO2 SLP229 T01441022

KIXD Airport Info (Airnav.com)

KIXD Flight Activity (Flightaware)

Listeners: 0 out of 2995 total

K34 CTAF: 122.800
New Century Ground: 124.300
New Century Tower: 133.000

KABY Gnd/Tower/Misc (Archives)
Albany, Georgia, United States

Feed Status: UP
Listen in your browser - HTML5 player(in browser, HTML5)
Click here to listen with your own player(launches your MP3 player)

KABY 121553Z 29016G25KT 10SM CLR 20/04 A3011 RMK AO2 SLP195 T02000039

KABY Airport Info (Airnav.com)

KABY Flight Activity (Flightaware)

Listeners: 0 out of 2995 total

Albany Ground: 121.900
Albany Tower: 120.250

KABY Ground/Tower (Archives)
Albany, Georgia, United States

Feed Status: UP
Listen in your browser - HTML5 player(in browser, HTML5)
Click here to listen with your own player(launches your MP3 player)

KABY 121553Z 29016G25KT 10SM CLR 20/04 A3011 RMK AO2 SLP195 T02000039

KABY Airport Info (Airnav.com)

KABY Flight Activity (Flightaware)

Listeners: 2 out of 2995 total

Albany Ground: 121.900
Albany Tower: 120.250

KACK App/Dep (Archives)
Nantucket, Massachusetts, United States

Feed Status: UP
Listen in your browser - HTML5 player(in browser, HTML5)
Click here to listen with your own player(launches your MP3 player)

KACK 121626Z 15021G32KT 2 1/2SM -RA BR OVC003 12/12 A2956 RMK AO2 PK WND 15035/1554 P0008 T01170117

KACK Airport Info (Airnav.com)

KACK Flight Activity (Flightaware)

Listeners: 1 out of 2995 total

Cape Approach (Nantucket Sector): 126.100

KACK ATIS (Archives)
Nantucket, Massachusetts, United States

Feed Status: UP
Listen in your browser - HTML5 player(in browser, HTML5)
Click here to listen with your own player(launches your MP3 player)

KACK 121626Z 15021G32KT 2 1/2SM -RA BR OVC003 12/12 A2956 RMK AO2 PK WND 15035/1554 P0008 T01170117

KACK Airport Info (Airnav.com)

KACK Flight Activity (Flightaware)

Listeners: 0 out of 2995 total

Nantucket ATIS: 127.500

KACK Del/Gnd/Twr (Archives)
Nantucket, Massachusetts, United States

Feed Status: UP
Listen in your browser - HTML5 player(in browser, HTML5)
Click here to listen with your own player(launches your MP3 player)

KACK 121626Z 15021G32KT 2 1/2SM -RA BR OVC003 12/12 A2956 RMK AO2 PK WND 15035/1554 P0008 T01170117

KACK Airport Info (Airnav.com)

KACK Flight Activity (Flightaware)

Listeners: 0 out of 2995 total

Nantucket Clearance Delivery: 119.375
Nantucket Ground: 132.500
Nantucket Tower: 118.300

KACK Tower (Archives)
Nantucket, Massachusetts, United States

Feed Status: UP
Listen in your browser - HTML5 player(in browser, HTML5)
Click here to listen with your own player(launches your MP3 player)

KACK 121626Z 15021G32KT 2 1/2SM -RA BR OVC003 12/12 A2956 RMK AO2 PK WND 15035/1554 P0008 T01170117

KACK Airport Info (Airnav.com)

KACK Flight Activity (Flightaware)

Listeners: 0 out of 2995 total

Nantucket Tower: 118.300

KADS ATIS (Archives)
Dallas, Texas, United States

Feed Status: UP
Listen in your browser - HTML5 player(in browser, HTML5)
Click here to listen with your own player(launches your MP3 player)

KADS 121547Z 18007KT 13SM SKC 22/02 A3026

KADS Airport Info (Airnav.com)

KADS Flight Activity (Flightaware)

Listeners: 0 out of 2995 total

Addison ATIS: 133.400
Addison ATIS/AWOS: 133.400

KADS Ground (Archives)
Dallas, Texas, United States

Feed Status: UP
Listen in your browser - HTML5 player(in browser, HTML5)
Click here to listen with your own player(launches your MP3 player)

KADS 121547Z 18007KT 13SM SKC 22/02 A3026

KADS Airport Info (Airnav.com)

KADS Flight Activity (Flightaware)

Listeners: 0 out of 2995 total

Addison Ground: 121.600

KADS Tower (Archives)
Dallas, Texas, United States

Feed Status: UP
Listen in your browser - HTML5 player(in browser, HTML5)
Click here to listen with your own player(launches your MP3 player)

KADS 121547Z 18007KT 13SM SKC 22/02 A3026

KADS Airport Info (Airnav.com)

KADS Flight Activity (Flightaware)

Listeners: 3 out of 2995 total

Addison Tower: 126.000

KDAA/KADW Tower (Archives)
Camp Springs, Maryland, United States

Feed Status: UP
Listen in your browser - HTML5 player(in browser, HTML5)
Click here to listen with your own player(launches your MP3 player)

KDAA 121555Z AUTO 28016G25KT 10SM BKN065 19/03 A2948 RMK AO2 PK WND 29027/30 SLP985 T01890031 $

KDAA Airport Info (Airnav.com)

KDAA Flight Activity (Flightaware)

Listeners: 4 out of 2995 total

Andrews Tower: 118.400
Andrews Tower: 349.000
Davison Tower: 241.000
Davison Tower: 126.300
Davison Tower: 229.400

KAEG Twr/App (Archives)
Albuquerque, New Mexico, United States

Feed Status: UP
Listen in your browser - HTML5 player(in browser, HTML5)
Click here to listen with your own player(launches your MP3 player)

KABQ 121552Z 33004KT 10SM FEW250 16/M07 A3019 RMK AO2 SLP168 T01561072

KABQ Airport Info (Airnav.com)

KABQ Flight Activity (Flightaware)

Listeners: 0 out of 2995 total

Double Eagle II Ground: 121.625
Double Eagle II Tower: 120.150
Double Eagle II Tower Clearance: 124.800

MA/NH CTAF 122.8 (Archives)
Jaffrey, New Hampshire, United States

Feed Status: UP
Listen in your browser - HTML5 player(in browser, HTML5)
Click here to listen with your own player(launches your MP3 player)

KMHT 121553Z 16016G26KT 5SM -RA BR BKN013 OVC018 18/16 A2943 RMK AO2 PK WND 16032/1522 RAE25B47 SLP977 P0000 T01780156

KMHT Airport Info (Airnav.com)

KMHT Flight Activity (Flightaware)

Listeners: 0 out of 2995 total

MA/NH Area CTAF: 122.800

KAFW ATIS (Archives)
Fort Worth, Texas, United States

Feed Status: UP
Listen in your browser - HTML5 player(in browser, HTML5)
Click here to listen with your own player(launches your MP3 player)

KAFW 121553Z 18010KT 10SM FEW250 21/07 A3025 RMK AO2 SLP238 T02110067

KAFW Airport Info (Airnav.com)

KAFW Flight Activity (Flightaware)

Listeners: 0 out of 2995 total

Alliance ATIS: 126.925
Northwest Regional 52F CTAF: 122.900

KAFW Regional App (North) (Archives)
Fort Worth, Texas, United States

Feed Status: UP
Listen in your browser - HTML5 player(in browser, HTML5)
Click here to listen with your own player(launches your MP3 player)

KAFW 121553Z 18010KT 10SM FEW250 21/07 A3025 RMK AO2 SLP238 T02110067

KAFW Airport Info (Airnav.com)

KAFW Flight Activity (Flightaware)

Listeners: 0 out of 2995 total

Regional Approach (North): 118.100

KAFW Tower/Heli (Archives)
Fort Worth, Texas, United States

Feed Status: UP
Listen in your browser - HTML5 player(in browser, HTML5)
Click here to listen with your own player(launches your MP3 player)

KAFW 121553Z 18010KT 10SM FEW250 21/07 A3025 RMK AO2 SLP238 T02110067

KAFW Airport Info (Airnav.com)

KAFW Flight Activity (Flightaware)

Listeners: 0 out of 2995 total

Alliance Tower: 135.150
Alliance Tower (Helicopters): 120.850

KAFW Tower/Heli/App (Archives)
Fort Worth, Texas, United States

Feed Status: UP
Listen in your browser - HTML5 player(in browser, HTML5)
Click here to listen with your own player(launches your MP3 player)

KAFW 121553Z 18010KT 10SM FEW250 21/07 A3025 RMK AO2 SLP238 T02110067

KAFW Airport Info (Airnav.com)

KAFW Flight Activity (Flightaware)

Listeners: 0 out of 2995 total

Alliance Tower: 135.150
Alliance Tower (Helicopters): 120.850
Regional Approach (North): 118.100

KAHN Tower (Archives)
Athens, Georgia, United States

Feed Status: UP
Listen in your browser - HTML5 player(in browser, HTML5)
Click here to listen with your own player(launches your MP3 player)

KAHN 121551Z 27013G29KT 10SM CLR 18/00 A2995 RMK AO2 PK WND 26032/1506 SLP141 T01780000

KAHN Airport Info (Airnav.com)

KAHN Flight Activity (Flightaware)

Listeners: 0 out of 2995 total

Athens Tower: 126.300

KAKR CTAF (Archives)
Akron, Ohio, United States

Feed Status: UP
Listen in your browser - HTML5 player(in browser, HTML5)
Click here to listen with your own player(launches your MP3 player)

KAKR 121554Z AUTO 25017G27KT 10SM -RA BKN019 OVC025 09/06 A2943 RMK AO2 PK WND 27027/1552 SLP964 P0000 T00890061

KAKR Airport Info (Airnav.com)

KAKR Flight Activity (Flightaware)

Listeners: 0 out of 2995 total

Akron CTAF: 123.075

KAMW CTAF
Ames, Iowa, United States

Feed Status: DOWN
Offline since: 2024-01-03 18:07:05 UTC

KAMW 121553Z AUTO 33018G28KT 10SM CLR 14/02 A3008 RMK AO2 PK WND 33028/1549 SLP184 T01390017

KAMW Airport Info (Airnav.com)

Ames CTAF: 122.700

KANE Twr/CTAF (Archives)
Minneapolis, Minnesota, United States

Feed Status: UP
Listen in your browser - HTML5 player(in browser, HTML5)
Click here to listen with your own player(launches your MP3 player)

KANE 121555Z 32016G24KT 10SM CLR 11/02 A3001

KANE Airport Info (Airnav.com)

KANE Flight Activity (Flightaware)

Listeners: 0 out of 2995 total

Anoka Tower/CTAF: 132.400

KANK CTAF (Archives)
Salida, Colorado, United States

Feed Status: UP
Listen in your browser - HTML5 player(in browser, HTML5)
Click here to listen with your own player(launches your MP3 player)

KANK 121615Z AUTO 00000KT 10SM CLR 11/M10 A3024 RMK AO2 T01081097

KANK Airport Info (Airnav.com)

KANK Flight Activity (Flightaware)

Listeners: 0 out of 2995 total

Salida CTAF: 122.700

KAOH CTAF (Archives)
Lima, Ohio, United States

Feed Status: UP
Listen in your browser - HTML5 player(in browser, HTML5)
Click here to listen with your own player(launches your MP3 player)

KAOH 121553Z AUTO 27019G26KT 6SM BR BKN016 OVC023 10/08 A2959 RMK AO2 PK WND 28028/1516 SLP022 T01000078

KAOH Airport Info (Airnav.com)

KAOH Flight Activity (Flightaware)

Listeners: 0 out of 2995 total

Lima CTAF: 122.700

KAOO CTAF
Altoona, Pennsylvania, United States

Feed Status: DOWN
Offline since: 2024-04-12 16:35:05 UTC

KAOO 121606Z AUTO 24016G24KT 10SM BKN027 OVC033 10/05 A2942 RMK AO2 PK WND 25031/1554 RAE1554 P0000 T01000050

KAOO Airport Info (Airnav.com)

Altoona CTAF: 123.600

KAPA App/Dep (Archives)
Denver, Colorado, United States

Feed Status: UP
Listen in your browser - HTML5 player(in browser, HTML5)
Click here to listen with your own player(launches your MP3 player)

KAPA 121553Z 21007KT 10SM CLR 17/M09 A3012 RMK AO2 SLP162 T01721089

KAPA Airport Info (Airnav.com)

KAPA Flight Activity (Flightaware)

Listeners: 1 out of 2995 total

Denver Approach/Departure: 132.750

KAPA Del/Gnd (Archives)
Denver, Colorado, United States

Feed Status: UP
Listen in your browser - HTML5 player(in browser, HTML5)
Click here to listen with your own player(launches your MP3 player)

KAPA 121553Z 21007KT 10SM CLR 17/M09 A3012 RMK AO2 SLP162 T01721089

KAPA Airport Info (Airnav.com)

KAPA Flight Activity (Flightaware)

Listeners: 2 out of 2995 total

Centennial Clearance Delivery: 128.600
Centennial Ground: 121.800

KAPA Tower (Primary) (Archives)
Denver, Colorado, United States

Feed Status: UP
Listen in your browser - HTML5 player(in browser, HTML5)
Click here to listen with your own player(launches your MP3 player)

KAPA 121553Z 21007KT 10SM CLR 17/M09 A3012 RMK AO2 SLP162 T01721089

KAPA Airport Info (Airnav.com)

KAPA Flight Activity (Flightaware)

Listeners: 6 out of 2995 total

Centennial Tower: 118.900

KAPA Tower (Secondary #1) (Archives)
Denver, Colorado, United States

Feed Status: UP
Listen in your browser - HTML5 player(in browser, HTML5)
Click here to listen with your own player(launches your MP3 player)

KAPA 121553Z 21007KT 10SM CLR 17/M09 A3012 RMK AO2 SLP162 T01721089

KAPA Airport Info (Airnav.com)

KAPA Flight Activity (Flightaware)

Listeners: 1 out of 2995 total

Centennial Tower (Rwy 17R/35L or Rwy 28): 123.700

KAPA Tower (Secondary #2) (Archives)
Denver, Colorado, United States

Feed Status: UP
Listen in your browser - HTML5 player(in browser, HTML5)
Click here to listen with your own player(launches your MP3 player)

KAPA 121553Z 21007KT 10SM CLR 17/M09 A3012 RMK AO2 SLP162 T01721089

KAPA Airport Info (Airnav.com)

KAPA Flight Activity (Flightaware)

Listeners: 0 out of 2995 total

Centennial Tower (Rwy 17R/35L or Rwy 28): 124.600

KAPC Del/Gnd (Archives)
Napa, California, United States

Feed Status: UP
Listen in your browser - HTML5 player(in browser, HTML5)
Click here to listen with your own player(launches your MP3 player)

KAPC 121554Z 25011KT 10SM CLR 12/08 A2972 RMK AO2 SLP056 T01170078

KAPC Airport Info (Airnav.com)

KAPC Flight Activity (Flightaware)

Listeners: 0 out of 2995 total

Napa Clearance Delivery: 127.850
Napa Ground: 121.700

KAPC Tower (Archives)
Napa, California, United States

Feed Status: UP
Listen in your browser - HTML5 player(in browser, HTML5)
Click here to listen with your own player(launches your MP3 player)

KAPC 121554Z 25011KT 10SM CLR 12/08 A2972 RMK AO2 SLP056 T01170078

KAPC Airport Info (Airnav.com)

KAPC Flight Activity (Flightaware)

Listeners: 0 out of 2995 total

Napa Tower: 118.700

KAPF ATIS (Archives)
Naples, Florida, United States

Feed Status: UP
Listen in your browser - HTML5 player(in browser, HTML5)
Click here to listen with your own player(launches your MP3 player)

KAPF 121553Z 01007G20KT 10SM CLR 24/11 A3017 RMK AO2 SLP214 T02440106

KAPF Airport Info (Airnav.com)

KAPF Flight Activity (Flightaware)

Listeners: 0 out of 2995 total

Naples ATIS: 134.225

KAPF Del/Gnd (Archives)
Naples, Florida, United States

Feed Status: UP
Listen in your browser - HTML5 player(in browser, HTML5)
Click here to listen with your own player(launches your MP3 player)

KAPF 121553Z 01007G20KT 10SM CLR 24/11 A3017 RMK AO2 SLP214 T02440106

KAPF Airport Info (Airnav.com)

KAPF Flight Activity (Flightaware)

Listeners: 0 out of 2995 total

Naples Clearance Delivery: 118.000
Naples Ground: 121.600

KAPF Del/Gnd/Twr (Archives)
Naples, Florida, United States

Feed Status: UP
Listen in your browser - HTML5 player(in browser, HTML5)
Click here to listen with your own player(launches your MP3 player)

KAPF 121553Z 01007G20KT 10SM CLR 24/11 A3017 RMK AO2 SLP214 T02440106

KAPF Airport Info (Airnav.com)

KAPF Flight Activity (Flightaware)

Listeners: 0 out of 2995 total

Naples Clearance Delivery: 118.000
Naples Ground: 121.600
Naples Tower: 128.500

KAPF Ft Myers App/Dep (Archives)
Naples, Florida, United States

Feed Status: UP
Listen in your browser - HTML5 player(in browser, HTML5)
Click here to listen with your own player(launches your MP3 player)

KAPF 121553Z 01007G20KT 10SM CLR 24/11 A3017 RMK AO2 SLP214 T02440106

KAPF Airport Info (Airnav.com)

KAPF Flight Activity (Flightaware)

Listeners: 0 out of 2995 total

Fort Myers Approach/Departure: 124.125
Fort Myers Approach/Departure: 126.800

KAPF Tower (Archives)
Naples, Florida, United States

Feed Status: UP
Listen in your browser - HTML5 player(in browser, HTML5)
Click here to listen with your own player(launches your MP3 player)

KAPF 121553Z 01007G20KT 10SM CLR 24/11 A3017 RMK AO2 SLP214 T02440106

KAPF Airport Info (Airnav.com)

KAPF Flight Activity (Flightaware)

Listeners: 1 out of 2995 total

Naples Tower: 128.500

KARB ATIS
Ann Arbor, Michigan, United States

Feed Status: DOWN
Offline since: 2024-04-09 01:52:39 UTC

KARB 120153Z AUTO 32012G19KT 4SM RA BR OVC006 08/07 A2931 RMK AO2 RAB41 SLP926 P0003 T00780067

KARB Airport Info (Airnav.com)

Ann Arbor ATIS: 134.550

KARB Gnd/Twr
Ann Arbor, Michigan, United States

Feed Status: DOWN
Offline since: 2024-04-09 01:52:39 UTC

KARB 120153Z AUTO 32012G19KT 4SM RA BR OVC006 08/07 A2931 RMK AO2 RAB41 SLP926 P0003 T00780067

KARB Airport Info (Airnav.com)

Ann Arbor Ground: 121.600
Ann Arbor Tower: 120.300

KARB Ground
Ann Arbor, Michigan, United States

Feed Status: DOWN
Offline since: 2024-04-09 01:52:39 UTC

KARB 120153Z AUTO 32012G19KT 4SM RA BR OVC006 08/07 A2931 RMK AO2 RAB41 SLP926 P0003 T00780067

KARB Airport Info (Airnav.com)

Ann Arbor Ground: 121.600

KARB Tower
Ann Arbor, Michigan, United States

Feed Status: DOWN
Offline since: 2024-04-09 01:52:39 UTC

KARB 120153Z AUTO 32012G19KT 4SM RA BR OVC006 08/07 A2931 RMK AO2 RAB41 SLP926 P0003 T00780067

KARB Airport Info (Airnav.com)

Ann Arbor Tower: 120.300

KARG CTAF/Memphis Center (Archives)
Walnut Ridge, Arkansas, United States

Feed Status: UP
Listen in your browser - HTML5 player(in browser, HTML5)
Click here to listen with your own player(launches your MP3 player)

KARG 121556Z AUTO 31018KT 10SM CLR 18/M03 A3015 RMK AO2 PK WND 32031/1522 SLP210 T01781028

KARG Airport Info (Airnav.com)

KARG Flight Activity (Flightaware)

Listeners: 1 out of 2995 total

Memphis Center (Sector 04 Jonesboro Low): 120.075
Memphis Center (Sector 04 Jonesboro Low): 289.400
Memphis Center (Sector 27 Jonesboro High): 132.375
Memphis Center (Sector 27 Jonesboro High): 257.600
Memphis Center (Sector 35 Walnut Ridge Ultra-High): 135.225
Memphis Center (Sector 35 Walnut Ridge Ultra-High): 322.300
Walnut Ridge CTAF: 122.800

KARR Tower (Archives)
Chicago/Aurora, Illinois, United States

Feed Status: UP
Listen in your browser - HTML5 player(in browser, HTML5)
Click here to listen with your own player(launches your MP3 player)

KARR 121552Z 30020G36KT 10SM CLR 14/07 A2978 RMK AO2 PK WND 29041/1531 SLP086 T01390067

KARR Airport Info (Airnav.com)

KARR Flight Activity (Flightaware)

Listeners: 0 out of 2995 total

Aurora Tower: 120.600

KASE ATIS (Archives)
Aspen, Colorado, United States

Feed Status: UP
Listen in your browser - HTML5 player(in browser, HTML5)
Click here to listen with your own player(launches your MP3 player)

KASE 121553Z 16005KT 10SM CLR 11/M11 A3021 RMK AO2 SLP162 T01111111

KASE Airport Info (Airnav.com)

KASE Flight Activity (Flightaware)

Listeners: 0 out of 2995 total

Aspen ATIS: 120.400

KASE Gnd/Twr/App/Center (Archives)
Aspen, Colorado, United States

Feed Status: UP
Listen in your browser - HTML5 player(in browser, HTML5)
Click here to listen with your own player(launches your MP3 player)

KASE 121553Z 16005KT 10SM CLR 11/M11 A3021 RMK AO2 SLP162 T01111111

KASE Airport Info (Airnav.com)

KASE Flight Activity (Flightaware)

Listeners: 1 out of 2995 total

Aspen Approach/Departure: 123.800
Aspen Ground: 121.900
Aspen Tower/CTAF: 118.850
Denver Center (Sector 26 POWDR Low): 119.850

KASE Ground/Tower (Archives)
Aspen, Colorado, United States

Feed Status: UP
Listen in your browser - HTML5 player(in browser, HTML5)
Click here to listen with your own player(launches your MP3 player)

KASE 121553Z 16005KT 10SM CLR 11/M11 A3021 RMK AO2 SLP162 T01111111

KASE Airport Info (Airnav.com)

KASE Flight Activity (Flightaware)

Listeners: 0 out of 2995 total

Aspen Ground: 121.900
Aspen Tower/CTAF: 118.850

KASE Tower (Archives)
Aspen, Colorado, United States

Feed Status: UP
Listen in your browser - HTML5 player(in browser, HTML5)
Click here to listen with your own player(launches your MP3 player)

KASE 121553Z 16005KT 10SM CLR 11/M11 A3021 RMK AO2 SLP162 T01111111

KASE Airport Info (Airnav.com)

KASE Flight Activity (Flightaware)

Listeners: 0 out of 2995 total

Aspen Tower/CTAF: 118.850

KASG App/Dep (Archives)
Springdale, Arkansas, United States

Feed Status: UP
Listen in your browser - HTML5 player(in browser, HTML5)
Click here to listen with your own player(launches your MP3 player)

KASG 121548Z 36007KT 10SM CLR 16/01 A3025

KASG Airport Info (Airnav.com)

KASG Flight Activity (Flightaware)

Listeners: 1 out of 2995 total

Razorback Approach/Departure: 126.600

KASG Gnd/Twr (Archives)
Springdale, Arkansas, United States

Feed Status: UP
Listen in your browser - HTML5 player(in browser, HTML5)
Click here to listen with your own player(launches your MP3 player)

KASG 121548Z 36007KT 10SM CLR 16/01 A3025

KASG Airport Info (Airnav.com)

KASG Flight Activity (Flightaware)

Listeners: 0 out of 2995 total

Springdale Ground: 121.600
Springdale Tower: 118.200

KASG Gnd/Twr/App (Archives)
Springdale, Arkansas, United States

Feed Status: UP
Listen in your browser - HTML5 player(in browser, HTML5)
Click here to listen with your own player(launches your MP3 player)

KASG 121548Z 36007KT 10SM CLR 16/01 A3025

KASG Airport Info (Airnav.com)

KASG Flight Activity (Flightaware)

Listeners: 0 out of 2995 total

Razorback Approach/Departure: 126.600
Springdale Ground: 121.600
Springdale Tower: 118.200

KASH ATIS #1 (Archives)
Nashua, New Hampshire, United States

Feed Status: UP
Listen in your browser - HTML5 player(in browser, HTML5)
Click here to listen with your own player(launches your MP3 player)

KASH 121556Z 15008G19KT 100V180 10SM OVC013 17/17 A2944 RMK AO2 PK WND 14026/1527 SLP973 T01720172

KASH Airport Info (Airnav.com)

KASH Flight Activity (Flightaware)

Listeners: 0 out of 2995 total

Nashua ATIS: 125.100

KASH ATIS #2 (Archives)
Nashua, New Hampshire, United States

Feed Status: UP
Listen in your browser - HTML5 player(in browser, HTML5)
Click here to listen with your own player(launches your MP3 player)

KASH 121556Z 15008G19KT 100V180 10SM OVC013 17/17 A2944 RMK AO2 PK WND 14026/1527 SLP973 T01720172

KASH Airport Info (Airnav.com)

KASH Flight Activity (Flightaware)

Listeners: 0 out of 2995 total

Nashua ATIS: 125.100

KASH Gnd/Twr/FBO #1 (Archives)
Nashua, New Hampshire, United States

Feed Status: UP
Listen in your browser - HTML5 player(in browser, HTML5)
Click here to listen with your own player(launches your MP3 player)

KASH 121556Z 15008G19KT 100V180 10SM OVC013 17/17 A2944 RMK AO2 PK WND 14026/1527 SLP973 T01720172

KASH Airport Info (Airnav.com)

KASH Flight Activity (Flightaware)

Listeners: 0 out of 2995 total

Infinity Aviation: 129.750
Nashua Ground: 121.800
Nashua Tower: 133.200

KASH Gnd/Twr/FBO #2 (Archives)
Nashua, New Hampshire, United States

Feed Status: UP
Listen in your browser - HTML5 player(in browser, HTML5)
Click here to listen with your own player(launches your MP3 player)

KASH 121556Z 15008G19KT 100V180 10SM OVC013 17/17 A2944 RMK AO2 PK WND 14026/1527 SLP973 T01720172

KASH Airport Info (Airnav.com)

KASH Flight Activity (Flightaware)

Listeners: 0 out of 2995 total

Infinity Aviation: 129.750
Nashua Ground: 121.800
Nashua Tower: 133.200

KASH Ground/FBO (Archives)
Nashua, New Hampshire, United States

Feed Status: UP
Listen in your browser - HTML5 player(in browser, HTML5)
Click here to listen with your own player(launches your MP3 player)

KASH 121556Z 15008G19KT 100V180 10SM OVC013 17/17 A2944 RMK AO2 PK WND 14026/1527 SLP973 T01720172

KASH Airport Info (Airnav.com)

KASH Flight Activity (Flightaware)

Listeners: 0 out of 2995 total

Infinity Aviation: 129.750
Nashua Ground: 121.800

KASH Tower (Archives)
Nashua, New Hampshire, United States

Feed Status: UP
Listen in your browser - HTML5 player(in browser, HTML5)
Click here to listen with your own player(launches your MP3 player)

KASH 121556Z 15008G19KT 100V180 10SM OVC013 17/17 A2944 RMK AO2 PK WND 14026/1527 SLP973 T01720172

KASH Airport Info (Airnav.com)

KASH Flight Activity (Flightaware)

Listeners: 0 out of 2995 total

Nashua Tower: 133.200

Atlanta Approach (NW Satellite) (Archives)
Atlanta, Georgia, United States

Feed Status: UP
Listen in your browser - HTML5 player(in browser, HTML5)
Click here to listen with your own player(launches your MP3 player)

KRYY 121550Z 28019G26KT 10SM CLR 17/01 A3001 RMK AO2 PK WND 26026/1541 SLP157 T01670006 $

KRYY Airport Info (Airnav.com)

KRYY Flight Activity (Flightaware)

Listeners: 1 out of 2995 total

Atlanta Approach (North Satellite): 121.000

KATW Tower (Archives)
Appleton, Wisconsin, United States

Feed Status: UP
Listen in your browser - HTML5 player(in browser, HTML5)
Click here to listen with your own player(launches your MP3 player)

KATW 121545Z 32017G25KT 10SM SCT025 SCT120 14/05 A2972

KATW Airport Info (Airnav.com)

KATW Flight Activity (Flightaware)

Listeners: 1 out of 2995 total

Appleton Tower: 119.600

KAUG CTAF/FSS (Archives)
Augusta, Maine, United States

Feed Status: UP
Listen in your browser - HTML5 player(in browser, HTML5)
Click here to listen with your own player(launches your MP3 player)

KAUG 121622Z AUTO 17017G31KT 4SM RA BR OVC006 13/12 A2958 RMK AO2 PK WND 16037/1602 RAB03 CIG 003V008 P0003 T01330122

KAUG Airport Info (Airnav.com)

KAUG Flight Activity (Flightaware)

Listeners: 0 out of 2995 total

Augusta CTAF/UNICOM: 123.000
Flight Service: 122.200

KAVQ CTAF (Archives)
Marana, Arizona, United States

Feed Status: UP
Listen in your browser - HTML5 player(in browser, HTML5)
Click here to listen with your own player(launches your MP3 player)

KAVQ 121615Z AUTO 16006KT 10SM 26/M03 A2991 RMK AO2 T02641035

KAVQ Airport Info (Airnav.com)

KAVQ Flight Activity (Flightaware)

Listeners: 0 out of 2995 total

Marana CTAF: 123.000

KAWO CTAF/Clearance (Archives)
Arlington, Washington, United States

Feed Status: UP
Listen in your browser - HTML5 player(in browser, HTML5)
Click here to listen with your own player(launches your MP3 player)

KAWO 121556Z AUTO 31008KT 10SM FEW006 OVC015 08/07 A2990 RMK AO2 SLP129 T00830072

KAWO Airport Info (Airnav.com)

KAWO Flight Activity (Flightaware)

Listeners: 0 out of 2995 total

Arlington Clearance Delivery (Seattle): 121.725
Arlington CTAF: 122.725

KAXH CTAF (Archives)
Houston, Texas, United States

Feed Status: UP
Listen in your browser - HTML5 player(in browser, HTML5)
Click here to listen with your own player(launches your MP3 player)

KAXH Airport Info (Airnav.com)

KAXH Flight Activity (Flightaware)

Listeners: 0 out of 2995 total

Houston Southwest CTAF: 123.000

KBTL/KAZO Gnd/Twr/App
Kalamazoo, Michigan, United States

Feed Status: DOWN
Offline since: 2024-04-10 13:37:39 UTC

KBTL Airport Info (Airnav.com)

Battle Creek Ground: 121.700
Battle Creek Tower: 126.825
Kalamazoo Approach/Departure: 119.200
Kalamazoo Ground: 121.900
Kalamazoo Tower: 118.300

KBAF ATIS (Archives)
Westfield/Springfield, Massachusetts, United States

Feed Status: UP
Listen in your browser - HTML5 player(in browser, HTML5)
Click here to listen with your own player(launches your MP3 player)

KBAF 121553Z 17009G19KT 5SM -RA BR OVC006 16/15 A2935 RMK AO2 PK WND 16028/1454 RAB01 SLP938 P0001 T01610150

KBAF Airport Info (Airnav.com)

KBAF Flight Activity (Flightaware)

Listeners: 0 out of 2995 total

Westfield ATIS: 127.100

KBAF Ground (Archives)
Westfield/Springfield, Massachusetts, United States

Feed Status: UP
Listen in your browser - HTML5 player(in browser, HTML5)
Click here to listen with your own player(launches your MP3 player)

KBAF 121553Z 17009G19KT 5SM -RA BR OVC006 16/15 A2935 RMK AO2 PK WND 16028/1454 RAB01 SLP938 P0001 T01610150

KBAF Airport Info (Airnav.com)

KBAF Flight Activity (Flightaware)

Listeners: 0 out of 2995 total

Emergency/Guard: 121.500
Emergency/Guard: 243.000
NG Ops: 123.050
NG Ops: 309.000
Westfield Ground: 121.700
Westfield Ground: 289.400

KBAF Ground/Tower (Archives)
Westfield/Springfield, Massachusetts, United States

Feed Status: UP
Listen in your browser - HTML5 player(in browser, HTML5)
Click here to listen with your own player(launches your MP3 player)

KBAF 121553Z 17009G19KT 5SM -RA BR OVC006 16/15 A2935 RMK AO2 PK WND 16028/1454 RAB01 SLP938 P0001 T01610150

KBAF Airport Info (Airnav.com)

KBAF Flight Activity (Flightaware)

Listeners: 0 out of 2995 total

Emergency/Guard: 121.500
Emergency/Guard: 243.000
NG Ops: 123.050
NG Ops: 309.000
Westfield Ground: 121.700
Westfield Ground: 289.400
Westfield Tower: 118.900
Westfield Tower: 251.100
Westover Tower: 134.850

KBAF/KCEF Tower (Archives)
Westfield/Springfield, Massachusetts, United States

Feed Status: UP
Listen in your browser - HTML5 player(in browser, HTML5)
Click here to listen with your own player(launches your MP3 player)

KBAF 121553Z 17009G19KT 5SM -RA BR OVC006 16/15 A2935 RMK AO2 PK WND 16028/1454 RAB01 SLP938 P0001 T01610150

KBAF Airport Info (Airnav.com)

KBAF Flight Activity (Flightaware)

Listeners: 2 out of 2995 total

Westfield Tower: 118.900
Westfield Tower: 251.100
Westover Tower: 134.850
Westover Tower: 348.750

KBAK Gnd/Twr (Archives)
Columbus, Indiana, United States

Feed Status: UP
Listen in your browser - HTML5 player(in browser, HTML5)
Click here to listen with your own player(launches your MP3 player)

KBAK 121555Z 26014G22KT 10SM BKN013 OVC018 09/08 A2979

KBAK Airport Info (Airnav.com)

KBAK Flight Activity (Flightaware)

Listeners: 0 out of 2995 total

Columbus Ground: 121.600
Columbus Tower: 118.600

KBAK Gnd/Twr/App/Dep (Archives)
Columbus, Indiana, United States

Feed Status: UP
Listen in your browser - HTML5 player(in browser, HTML5)
Click here to listen with your own player(launches your MP3 player)

KBAK 121555Z 26014G22KT 10SM BKN013 OVC018 09/08 A2979

KBAK Airport Info (Airnav.com)

KBAK Flight Activity (Flightaware)

Listeners: 0 out of 2995 total

Columbus Ground: 121.600
Columbus Tower: 118.600
Emergency/Guard: 121.500
Emergency/Guard: 243.000
Indianapolis Approach/Departure: 134.850

KBAK Indy App/Dep/Guard (Archives)
Columbus, Indiana, United States

Feed Status: UP
Listen in your browser - HTML5 player(in browser, HTML5)
Click here to listen with your own player(launches your MP3 player)

KBAK 121555Z 26014G22KT 10SM BKN013 OVC018 09/08 A2979

KBAK Airport Info (Airnav.com)

KBAK Flight Activity (Flightaware)

Listeners: 0 out of 2995 total

Emergency/Guard: 121.500
Emergency/Guard: 243.000
Indianapolis Approach/Departure: 134.850

KBAZ Tower (Archives)
New Braunfels, Texas, United States

Feed Status: UP
Listen in your browser - HTML5 player(in browser, HTML5)
Click here to listen with your own player(launches your MP3 player)

KBAZ 121551Z 16010KT 10SM CLR 23/12 A3027 RMK AO2 SLP243 T02330122

KBAZ Airport Info (Airnav.com)

KBAZ Flight Activity (Flightaware)

Listeners: 0 out of 2995 total

New Braunfels Tower: 127.050

KBCT ATIS (Archives)
Boca Raton, Florida, United States

Feed Status: UP
Listen in your browser - HTML5 player(in browser, HTML5)
Click here to listen with your own player(launches your MP3 player)

KBCT 121553Z 33010G15KT 10SM CLR 26/14 A3014

KBCT Airport Info (Airnav.com)

KBCT Flight Activity (Flightaware)

Listeners: 0 out of 2995 total

Boca Raton ATIS/AWOS: 121.125

KBCT Emergency/Guard (Archives)
Boca Raton, Florida, United States

Feed Status: UP
Listen in your browser - HTML5 player(in browser, HTML5)
Click here to listen with your own player(launches your MP3 player)

KBCT 121553Z 33010G15KT 10SM CLR 26/14 A3014

KBCT Airport Info (Airnav.com)

KBCT Flight Activity (Flightaware)

Listeners: 0 out of 2995 total

Emergency/Guard: 121.500

KBCT Ground (Archives)
Boca Raton, Florida, United States

Feed Status: UP
Listen in your browser - HTML5 player(in browser, HTML5)
Click here to listen with your own player(launches your MP3 player)

KBCT 121553Z 33010G15KT 10SM CLR 26/14 A3014

KBCT Airport Info (Airnav.com)

KBCT Flight Activity (Flightaware)

Listeners: 0 out of 2995 total

Boca Raton Ground: 121.800

KBCT Ground/Tower (Archives)
Boca Raton, Florida, United States

Feed Status: UP
Listen in your browser - HTML5 player(in browser, HTML5)
Click here to listen with your own player(launches your MP3 player)

KBCT 121553Z 33010G15KT 10SM CLR 26/14 A3014

KBCT Airport Info (Airnav.com)

KBCT Flight Activity (Flightaware)

Listeners: 0 out of 2995 total

Boca Raton Ground: 121.800
Boca Raton Tower: 118.425

KBCT Tower (Archives)
Boca Raton, Florida, United States

Feed Status: UP
Listen in your browser - HTML5 player(in browser, HTML5)
Click here to listen with your own player(launches your MP3 player)

KBCT 121553Z 33010G15KT 10SM CLR 26/14 A3014

KBCT Airport Info (Airnav.com)

KBCT Flight Activity (Flightaware)

Listeners: 1 out of 2995 total

Boca Raton Tower: 118.425

KBDN CTAF (Archives)
Bend, Oregon, United States

Feed Status: UP
Listen in your browser - HTML5 player(in browser, HTML5)
Click here to listen with your own player(launches your MP3 player)

KBDN 121610Z AUTO 35007KT 10SM 09/02 A2974 RMK AO2

KBDN Airport Info (Airnav.com)

KBDN Flight Activity (Flightaware)

Listeners: 1 out of 2995 total

Bend CTAF: 123.000

KBDR Del/Gnd/Twr (Archives)
Bridgeport, Connecticut, United States

Feed Status: UP
Listen in your browser - HTML5 player(in browser, HTML5)
Click here to listen with your own player(launches your MP3 player)

KBDR 121559Z 18013KT 4SM BR OVC005 14/13 A2935 RMK AO2 CIG 003V008 T01440133

KBDR Airport Info (Airnav.com)

KBDR Flight Activity (Flightaware)

Listeners: 2 out of 2995 total

Bridgeport Clearance/Ground: 121.750
Bridgeport Tower: 120.900
Sikorsky Heliport: 133.600

KBDR Del/Gnd/Twr/App (Archives)
Bridgeport, Connecticut, United States

Feed Status: UP
Listen in your browser - HTML5 player(in browser, HTML5)
Click here to listen with your own player(launches your MP3 player)

KBDR 121559Z 18013KT 4SM BR OVC005 14/13 A2935 RMK AO2 CIG 003V008 T01440133

KBDR Airport Info (Airnav.com)

KBDR Flight Activity (Flightaware)

Listeners: 0 out of 2995 total

Bridgeport Clearance/Ground: 121.750
Bridgeport Tower: 120.900
New York Approach (LOVES Sector): 124.075
Sikorsky Heliport: 133.600

New York Approach (LOVES Sector) (Archives)
Bridgeport, Connecticut, United States

Feed Status: UP
Listen in your browser - HTML5 player(in browser, HTML5)
Click here to listen with your own player(launches your MP3 player)

KBDR 121559Z 18013KT 4SM BR OVC005 14/13 A2935 RMK AO2 CIG 003V008 T01440133

KBDR Airport Info (Airnav.com)

KBDR Flight Activity (Flightaware)

Listeners: 0 out of 2995 total

New York Approach (LOVES Sector): 124.075

KFTG/KEIK/KBDU/KLMO/Misc (Archives)
Boulder, Colorado, United States

Feed Status: UP
Listen in your browser - HTML5 player(in browser, HTML5)
Click here to listen with your own player(launches your MP3 player)

KDEN 121553Z 21009KT 10SM CLR 18/M06 A3010 RMK AO2 SLP153 T01831061

KDEN Airport Info (Airnav.com)

KDEN Flight Activity (Flightaware)

Listeners: 0 out of 2995 total

Air-to-Air Fixed Wing: 122.750
Air-to-Air Informal: 123.450
Boulder CTAF: 122.725
Erie CTAF: 123.000
Front Range Tower: 120.200
KBKF Tower: 121.000
Longmont CTAF: 122.975
MULTICOM: 122.900
UNICOM: 122.950

Boston App/Dep (North Sat) #1 (Archives)
Bedford, Massachusetts, United States

Feed Status: UP
Listen in your browser - HTML5 player(in browser, HTML5)
Click here to listen with your own player(launches your MP3 player)

KBED 121601Z 17011G26KT 3SM -RA BR OVC009 16/15 A2944 RMK AO2 PK WND 15026/1554 P0000 T01610150

KBED Airport Info (Airnav.com)

KBED Flight Activity (Flightaware)

Listeners: 0 out of 2995 total

Boston Approach (North Satellites, SFC-3500'): 124.400

KBED ATIS #1 (Archives)
Bedford, Massachusetts, United States

Feed Status: UP
Listen in your browser - HTML5 player(in browser, HTML5)
Click here to listen with your own player(launches your MP3 player)

KBED 121601Z 17011G26KT 3SM -RA BR OVC009 16/15 A2944 RMK AO2 PK WND 15026/1554 P0000 T01610150

KBED Airport Info (Airnav.com)

KBED Flight Activity (Flightaware)

Listeners: 0 out of 2995 total

Hanscom ATIS: 124.600

KBED ATIS #2 (Archives)
Bedford, Massachusetts, United States

Feed Status: UP
Listen in your browser - HTML5 player(in browser, HTML5)
Click here to listen with your own player(launches your MP3 player)

KBED 121601Z 17011G26KT 3SM -RA BR OVC009 16/15 A2944 RMK AO2 PK WND 15026/1554 P0000 T01610150

KBED Airport Info (Airnav.com)

KBED Flight Activity (Flightaware)

Listeners: 0 out of 2995 total

Hanscom ATIS: 124.600

KBED Clearance Delivery (Archives)
Bedford, Massachusetts, United States

Feed Status: UP
Listen in your browser - HTML5 player(in browser, HTML5)
Click here to listen with your own player(launches your MP3 player)

KBED 121601Z 17011G26KT 3SM -RA BR OVC009 16/15 A2944 RMK AO2 PK WND 15026/1554 P0000 T01610150

KBED Airport Info (Airnav.com)

KBED Flight Activity (Flightaware)

Listeners: 0 out of 2995 total

Hanscom Clearance Delivery: 121.850

KBED Del/Gnd (Archives)
Bedford, Massachusetts, United States

Feed Status: UP
Listen in your browser - HTML5 player(in browser, HTML5)
Click here to listen with your own player(launches your MP3 player)

KBED 121601Z 17011G26KT 3SM -RA BR OVC009 16/15 A2944 RMK AO2 PK WND 15026/1554 P0000 T01610150

KBED Airport Info (Airnav.com)

KBED Flight Activity (Flightaware)

Listeners: 0 out of 2995 total

Hanscom Clearance Delivery: 121.850
Hanscom Ground: 121.700

KBED Gnd/Twr (Archives)
Bedford, Massachusetts, United States

Feed Status: UP
Listen in your browser - HTML5 player(in browser, HTML5)
Click here to listen with your own player(launches your MP3 player)

KBED 121601Z 17011G26KT 3SM -RA BR OVC009 16/15 A2944 RMK AO2 PK WND 15026/1554 P0000 T01610150

KBED Airport Info (Airnav.com)

KBED Flight Activity (Flightaware)

Listeners: 0 out of 2995 total

Hanscom Ground: 121.700
Hanscom Tower: 118.500

KBED Ground (Archives)
Bedford, Massachusetts, United States

Feed Status: UP
Listen in your browser - HTML5 player(in browser, HTML5)
Click here to listen with your own player(launches your MP3 player)

KBED 121601Z 17011G26KT 3SM -RA BR OVC009 16/15 A2944 RMK AO2 PK WND 15026/1554 P0000 T01610150

KBED Airport Info (Airnav.com)

KBED Flight Activity (Flightaware)

Listeners: 0 out of 2995 total

Hanscom Ground: 121.700

KBED Tower (Archives)
Bedford, Massachusetts, United States

Feed Status: UP
Listen in your browser - HTML5 player(in browser, HTML5)
Click here to listen with your own player(launches your MP3 player)

KBED 121601Z 17011G26KT 3SM -RA BR OVC009 16/15 A2944 RMK AO2 PK WND 15026/1554 P0000 T01610150

KBED Airport Info (Airnav.com)

KBED Flight Activity (Flightaware)

Listeners: 1 out of 2995 total

Hanscom Tower: 118.500

KBFI Ground/Tower (Archives)
Seattle, Washington, United States

Feed Status: UP
Listen in your browser - HTML5 player(in browser, HTML5)
Click here to listen with your own player(launches your MP3 player)

KBFI 121553Z VRB04KT 10SM OVC012 10/06 A2989 RMK AO2 SLP120 T01000061

KBFI Airport Info (Airnav.com)

KBFI Flight Activity (Flightaware)

Listeners: 1 out of 2995 total

Boeing Ground: 121.900
Boeing Tower (Rwy 14L & 32R/VFR): 118.300
Boeing Tower (Rwy 14R/32L/IFR): 120.600
Emergency: 121.500

KBFM Tower (Archives)
Mobile, Alabama, United States

Feed Status: UP
Listen in your browser - HTML5 player(in browser, HTML5)
Click here to listen with your own player(launches your MP3 player)

KBFM 121553Z 33015G20KT 10SM CLR 23/01 A3023 RMK AO2 SLP235 T02330006

KBFM Airport Info (Airnav.com)

KBFM Flight Activity (Flightaware)

Listeners: 0 out of 2995 total

Downtown Tower: 118.800

KBGM Del/Gnd/Twr/App
Binghamton, New York, United States

Feed Status: DOWN
Offline since: 2023-11-03 13:52:04 UTC

KBGM 121553Z 24012G21KT 10SM FEW018 BKN025 BKN120 14/09 A2924 RMK AO2 SLP896 T01390094

KBGM Airport Info (Airnav.com)

Binghamton Approach/Departure: 118.600
Binghamton Approach/Departure: 127.550
Binghamton Clearance Delivery: 125.050
Binghamton Ground: 121.900
Binghamton Tower: 119.300

KBID CTAF (Archives)
Block Island, Rhode Island, United States

Feed Status: UP
Listen in your browser - HTML5 player(in browser, HTML5)
Click here to listen with your own player(launches your MP3 player)

KBID 121625Z AUTO 17018G25KT 1/4SM -RA FG OVC003 11/11 A2947 RMK AO2 PK WND 17026/1608 P0000

KBID Airport Info (Airnav.com)

KBID Flight Activity (Flightaware)

Listeners: 0 out of 2995 total

Block Island CTAF: 123.000

KBIS App/Dep (Archives)
Bismarck, North Dakota, United States

Feed Status: UP
Listen in your browser - HTML5 player(in browser, HTML5)
Click here to listen with your own player(launches your MP3 player)

KBIS 121552Z 13005KT 10SM CLR 10/M02 A3007 RMK AO2 SLP193 T01001017

KBIS Airport Info (Airnav.com)

KBIS Flight Activity (Flightaware)

Listeners: 1 out of 2995 total

Bismarck Approach/Departure: 126.300

KBIS Gnd/Twr (Archives)
Bismarck, North Dakota, United States

Feed Status: UP
Listen in your browser - HTML5 player(in browser, HTML5)
Click here to listen with your own player(launches your MP3 player)

KBIS 121552Z 13005KT 10SM CLR 10/M02 A3007 RMK AO2 SLP193 T01001017

KBIS Airport Info (Airnav.com)

KBIS Flight Activity (Flightaware)

Listeners: 1 out of 2995 total

Bismarck Ground: 121.900
Bismarck Tower: 118.300

KBJC Ground/Tower (Archives)
Denver, Colorado, United States

Feed Status: UP
Listen in your browser - HTML5 player(in browser, HTML5)
Click here to listen with your own player(launches your MP3 player)

KBJC 121554Z 15006KT 10SM SKC 16/M06 A3011

KBJC Airport Info (Airnav.com)

KBJC Flight Activity (Flightaware)

Listeners: 5 out of 2995 total

Metro Ground: 121.700
Metro Tower: 118.600
Metro Tower: 123.950

KBJI CTAF/ZMP (Archives)
Bemidji, Minnesota, United States

Feed Status: UP
Listen in your browser - HTML5 player(in browser, HTML5)
Click here to listen with your own player(launches your MP3 player)

KBJI 121615Z AUTO 32007KT 10SM SCT035 09/00 A3007 RMK AO2 T00870001

KBJI Airport Info (Airnav.com)

KBJI Flight Activity (Flightaware)

Listeners: 5 out of 2995 total

Bemidji CTAF: 122.800
Minneapolis Center (Sector 25 Low/High): 134.750

KBKF ATIS (Archives)
Aurora, Colorado, United States

Feed Status: UP
Listen in your browser - HTML5 player(in browser, HTML5)
Click here to listen with your own player(launches your MP3 player)

KBKF 121558Z 22010KT 10SM CLR 18/M09 A3010 RMK AO2A SLP151 T01781092

KBKF Airport Info (Airnav.com)

KBKF Flight Activity (Flightaware)

Listeners: 0 out of 2995 total

Buckley ATIS: 119.675

KBKF Tower (UHF) (Archives)
Aurora, Colorado, United States

Feed Status: UP
Listen in your browser - HTML5 player(in browser, HTML5)
Click here to listen with your own player(launches your MP3 player)

KBKF 121558Z 22010KT 10SM CLR 18/M09 A3010 RMK AO2A SLP151 T01781092

KBKF Airport Info (Airnav.com)

KBKF Flight Activity (Flightaware)

Listeners: 1 out of 2995 total

Buckley Tower: 291.675

KBKF Tower (VHF) (Archives)
Aurora, Colorado, United States

Feed Status: UP
Listen in your browser - HTML5 player(in browser, HTML5)
Click here to listen with your own player(launches your MP3 player)

KBKF 121558Z 22010KT 10SM CLR 18/M09 A3010 RMK AO2A SLP151 T01781092

KBKF Airport Info (Airnav.com)

KBKF Flight Activity (Flightaware)

Listeners: 1 out of 2995 total

Buckley Tower: 121.000

KBKF Tower (VHF/UHF) (Archives)
Aurora, Colorado, United States

Feed Status: UP
Listen in your browser - HTML5 player(in browser, HTML5)
Click here to listen with your own player(launches your MP3 player)

KBKF 121558Z 22010KT 10SM CLR 18/M09 A3010 RMK AO2A SLP151 T01781092

KBKF Airport Info (Airnav.com)

KBKF Flight Activity (Flightaware)

Listeners: 1 out of 2995 total

Buckley Tower: 121.000
Buckley Tower: 291.675

KBKL Gnd/Twr/Misc (Archives)
Cleveland, Ohio, United States

Feed Status: UP
Listen in your browser - HTML5 player(in browser, HTML5)
Click here to listen with your own player(launches your MP3 player)

KBKL 121553Z 25020G33KT 5SM -RA FEW018 BKN027 OVC035 10/07 A2940 RMK AO2 PK WND 25033/1542 SLP954 P0002 T01000067

KBKL Airport Info (Airnav.com)

KBKL Flight Activity (Flightaware)

Listeners: 0 out of 2995 total

Lakefront Area CTAF: 122.800
Lakefront Ground: 121.900
Lakefront Tower: 124.300
Lakefront UNICOM: 122.950

KBLI Tower (Archives)
Bellingham, Washington, United States

Feed Status: UP
Listen in your browser - HTML5 player(in browser, HTML5)
Click here to listen with your own player(launches your MP3 player)

KBLI 121553Z 02004KT 5SM BR BKN003 BKN012 OVC029 08/07 A2991 RMK AO2 SLP135 T00830072

KBLI Airport Info (Airnav.com)

KBLI Flight Activity (Flightaware)

Listeners: 1 out of 2995 total

Bellingham Tower: 124.900

KBLM/N12/3N6/KMJX
Belmar/Farmingdale, New Jersey, United States

Feed Status: DOWN
Offline since: 2024-04-06 06:00:04 UTC

KBLM 121624Z AUTO 25017G27KT 10SM -RA BKN013 BKN020 OVC029 15/14 A2936 RMK AO2 PK WND 28027/1617 WSHFT 1604 LTG DSNT N RAB05 PRESRR P0001

KBLM Airport Info (Airnav.com)

3N6 Old Bridge CTAF: 123.075
Emergency/Guard: 121.500
Monmouth Clearance: 120.950
Monmouth Clearance: 126.150
Monmouth CTAF: 123.000
N12 Lakewood CTAF: 122.800
Ocean County KMJX CTAF: 122.700

KBMG Approach/Departure (Archives)
Bloomington, Indiana, United States

Feed Status: UP
Listen in your browser - HTML5 player(in browser, HTML5)
Click here to listen with your own player(launches your MP3 player)

KBMG 121553Z 27009KT 7SM -RA OVC009 08/07 A2981 RMK AO2 RAB19 CIG 006V013 SLP094 P0003 T00830067

KBMG Airport Info (Airnav.com)

KBMG Flight Activity (Flightaware)

Listeners: 0 out of 2995 total

Emergency/Guard: 121.500
Emergency/Guard: 243.000
Hulman Approach: 128.025

KBMG Tower (Archives)
Bloomington, Indiana, United States

Feed Status: UP
Listen in your browser - HTML5 player(in browser, HTML5)
Click here to listen with your own player(launches your MP3 player)

KBMG 121553Z 27009KT 7SM -RA OVC009 08/07 A2981 RMK AO2 RAB19 CIG 006V013 SLP094 P0003 T00830067

KBMG Airport Info (Airnav.com)

KBMG Flight Activity (Flightaware)

Listeners: 1 out of 2995 total

Bloomington Tower: 120.775

KBMG Twr/App (Archives)
Bloomington, Indiana, United States

Feed Status: UP
Listen in your browser - HTML5 player(in browser, HTML5)
Click here to listen with your own player(launches your MP3 player)

KBMG 121553Z 27009KT 7SM -RA OVC009 08/07 A2981 RMK AO2 RAB19 CIG 006V013 SLP094 P0003 T00830067

KBMG Airport Info (Airnav.com)

KBMG Flight Activity (Flightaware)

Listeners: 0 out of 2995 total

Bloomington Tower: 120.775
Emergency/Guard: 121.500
Emergency/Guard: 243.000
Hulman Approach: 128.025

KBMI App/Dep (Archives)
Bloomington/Normal, Illinois, United States

Feed Status: UP
Listen in your browser - HTML5 player(in browser, HTML5)
Click here to listen with your own player(launches your MP3 player)

KBMI 121556Z 31019G31KT 10SM FEW028 13/07 A2987 RMK AO2 PK WND 30031/1552 SLP115 T01330067

KBMI Airport Info (Airnav.com)

KBMI Flight Activity (Flightaware)

Listeners: 0 out of 2995 total

St. Louis Approach/Departure: 128.725

KBMI ATIS (Archives)
Bloomington/Normal, Illinois, United States

Feed Status: UP
Listen in your browser - HTML5 player(in browser, HTML5)
Click here to listen with your own player(launches your MP3 player)

KBMI 121556Z 31019G31KT 10SM FEW028 13/07 A2987 RMK AO2 PK WND 30031/1552 SLP115 T01330067

KBMI Airport Info (Airnav.com)

KBMI Flight Activity (Flightaware)

Listeners: 0 out of 2995 total

Bloomington ATIS: 135.350

KBMI Gnd/Twr/App (Archives)
Bloomington/Normal, Illinois, United States

Feed Status: UP
Listen in your browser - HTML5 player(in browser, HTML5)
Click here to listen with your own player(launches your MP3 player)

KBMI 121556Z 31019G31KT 10SM FEW028 13/07 A2987 RMK AO2 PK WND 30031/1552 SLP115 T01330067

KBMI Airport Info (Airnav.com)

KBMI Flight Activity (Flightaware)

Listeners: 0 out of 2995 total

Bloomington Ground: 121.650
Bloomington Tower: 124.600
St. Louis Approach/Departure: 128.725

KBMI Gnd/Twr/App/Dep (Archives)
Bloomington/Normal, Illinois, United States

Feed Status: UP
Listen in your browser - HTML5 player(in browser, HTML5)
Click here to listen with your own player(launches your MP3 player)

KBMI 121556Z 31019G31KT 10SM FEW028 13/07 A2987 RMK AO2 PK WND 30031/1552 SLP115 T01330067

KBMI Airport Info (Airnav.com)

KBMI Flight Activity (Flightaware)

Listeners: 0 out of 2995 total

Bloomington Ground: 121.650
Bloomington Tower: 124.600
St. Louis Approach/Departure: 128.725

KBOK/KCEC CTAF (Archives)
Brookings, Oregon, United States

Feed Status: UP
Listen in your browser - HTML5 player(in browser, HTML5)
Click here to listen with your own player(launches your MP3 player)

KBOK 121556Z AUTO 29003KT 10SM SCT046 08/08 A2971 RMK AO2 SLP062 T00830078

KBOK Airport Info (Airnav.com)

KBOK Flight Activity (Flightaware)

Listeners: 0 out of 2995 total

Brookings/Crescent City CTAF: 122.800

KBOW AWOS (Archives)
Bartow, Florida, United States

Feed Status: UP
Listen in your browser - HTML5 player(in browser, HTML5)
Click here to listen with your own player(launches your MP3 player)

KBOW 121550Z 31009G16KT 10SM CLR 23/08 A3018

KBOW Airport Info (Airnav.com)

KBOW Flight Activity (Flightaware)

Listeners: 0 out of 2995 total

Bartow AWOS: 123.775

KBOW Gnd/Twr/Misc (Archives)
Bartow, Florida, United States

Feed Status: UP
Listen in your browser - HTML5 player(in browser, HTML5)
Click here to listen with your own player(launches your MP3 player)

KBOW 121550Z 31009G16KT 10SM CLR 23/08 A3018

KBOW Airport Info (Airnav.com)

KBOW Flight Activity (Flightaware)

Listeners: 0 out of 2995 total

Bartow Ground: 121.900
Bartow Tower: 121.200
Bartow UNICOM: 122.950
Emergency/Guard: 121.500

KBOW Gnd/UNICOM/Guard (Archives)
Bartow, Florida, United States

Feed Status: UP
Listen in your browser - HTML5 player(in browser, HTML5)
Click here to listen with your own player(launches your MP3 player)

KBOW 121550Z 31009G16KT 10SM CLR 23/08 A3018

KBOW Airport Info (Airnav.com)

KBOW Flight Activity (Flightaware)

Listeners: 0 out of 2995 total

Bartow Ground: 121.900
Bartow UNICOM: 122.950
Emergency/Guard: 121.500

KBOW Tower/CTAF #1 (Archives)
Bartow, Florida, United States

Feed Status: UP
Listen in your browser - HTML5 player(in browser, HTML5)
Click here to listen with your own player(launches your MP3 player)

KBOW 121550Z 31009G16KT 10SM CLR 23/08 A3018

KBOW Airport Info (Airnav.com)

KBOW Flight Activity (Flightaware)

Listeners: 0 out of 2995 total

Bartow Tower: 121.200

KBOW Tower/CTAF #2 (Archives)
Bartow, Florida, United States

Feed Status: UP
Listen in your browser - HTML5 player(in browser, HTML5)
Click here to listen with your own player(launches your MP3 player)

KLAL 121550Z 33008KT 10SM SKC 23/08 A3018

KLAL Airport Info (Airnav.com)

KLAL Flight Activity (Flightaware)

Listeners: 0 out of 2995 total

Bartow Tower: 121.200

KBPK CTAF (Archives)
Mountain Home, Arkansas, United States

Feed Status: UP
Listen in your browser - HTML5 player(in browser, HTML5)
Click here to listen with your own player(launches your MP3 player)

KBPK 040453Z AUTO 26003KT 10SM CLR 07/M02 A2979 RMK AO2 SLP088 T00721017 $

KBPK Airport Info (Airnav.com)

KBPK Flight Activity (Flightaware)

Listeners: 0 out of 2995 total

Baxter County CTAF: 123.000

KWHP/KVNY/KBUR App/Dep (Archives)
Burbank, California, United States

Feed Status: UP
Listen in your browser - HTML5 player(in browser, HTML5)
Click here to listen with your own player(launches your MP3 player)

KWHP 121550Z 10003KT 1 1/2SM OVC007 12/12 A2988

KWHP Airport Info (Airnav.com)

KWHP Flight Activity (Flightaware)

Listeners: 0 out of 2995 total

SOCAL App (Glendale Sector): 135.050
SOCAL App (Valley Sector): 124.600
SOCAL Approach (Fillmore Sector): 120.400
SOCAL Approach (Moorpark Sector): 128.750
SOCAL Approach (Woodland Sector): 134.200

KBUY CTAF (Archives)
Burlington, North Carolina, United States

Feed Status: UP
Listen in your browser - HTML5 player(in browser, HTML5)
Click here to listen with your own player(launches your MP3 player)

KBUY 121554Z AUTO 24020G30KT 10SM SCT070 18/01 A2973 RMK AO2 PK WND 24038/1457 SLP065 T01780006

KBUY Airport Info (Airnav.com)

KBUY Flight Activity (Flightaware)

Listeners: 1 out of 2995 total

Burlington CTAF: 122.975

KBVY Ground (Archives)
Beverly, Massachusetts, United States

Feed Status: UP
Listen in your browser - HTML5 player(in browser, HTML5)
Click here to listen with your own player(launches your MP3 player)

KBVY 121553Z 15011G19KT 4SM BR OVC006 13/13 A2948 RMK AO2 PK WND 16030/1506 RAE46 CIG 003V010 SLP977 P0000 T01280128

KBVY Airport Info (Airnav.com)

KBVY Flight Activity (Flightaware)

Listeners: 0 out of 2995 total

Beverly Ground: 121.600

KBVY Tower #1 (Archives)
Beverly, Massachusetts, United States

Feed Status: UP
Listen in your browser - HTML5 player(in browser, HTML5)
Click here to listen with your own player(launches your MP3 player)

KBVY 121553Z 15011G19KT 4SM BR OVC006 13/13 A2948 RMK AO2 PK WND 16030/1506 RAE46 CIG 003V010 SLP977 P0000 T01280128

KBVY Airport Info (Airnav.com)

KBVY Flight Activity (Flightaware)

Listeners: 1 out of 2995 total

Beverly Tower: 125.200

KBVY Tower #2 (Archives)
Beverly, Massachusetts, United States

Feed Status: UP
Listen in your browser - HTML5 player(in browser, HTML5)
Click here to listen with your own player(launches your MP3 player)

KBVY 121553Z 15011G19KT 4SM BR OVC006 13/13 A2948 RMK AO2 PK WND 16030/1506 RAE46 CIG 003V010 SLP977 P0000 T01280128

KBVY Airport Info (Airnav.com)

KBVY Flight Activity (Flightaware)

Listeners: 0 out of 2995 total

Beverly Tower: 125.200

KBXM CTAF/AWOS (Archives)
Brunswick, Maine, United States

Feed Status: UP
Listen in your browser - HTML5 player(in browser, HTML5)
Click here to listen with your own player(launches your MP3 player)

KBXM Airport Info (Airnav.com)

KBXM Flight Activity (Flightaware)

Listeners: 0 out of 2995 total

Brunswick CTAF/UNICOM: 122.725
KBXM AWOS: 134.875

KBZN App/Dep (Archives)
Bozeman, Montana, United States

Feed Status: UP
Listen in your browser - HTML5 player(in browser, HTML5)
Click here to listen with your own player(launches your MP3 player)

KBZN 121556Z VRB03KT 10SM CLR 17/02 A2980 RMK AO2 SLP065 T01720017

KBZN Airport Info (Airnav.com)

KBZN Flight Activity (Flightaware)

Listeners: 1 out of 2995 total

Big Sky Approach/Departure: 118.975

KBZN Area Flight Service (Archives)
Bozeman, Montana, United States

Feed Status: UP
Listen in your browser - HTML5 player(in browser, HTML5)
Click here to listen with your own player(launches your MP3 player)

KBZN 121556Z VRB03KT 10SM CLR 17/02 A2980 RMK AO2 SLP065 T01720017

KBZN Airport Info (Airnav.com)

KBZN Flight Activity (Flightaware)

Listeners: 0 out of 2995 total

Great Falls Radio/Flight Service: 122.500

KBZN ATIS (Archives)
Bozeman, Montana, United States

Feed Status: UP
Listen in your browser - HTML5 player(in browser, HTML5)
Click here to listen with your own player(launches your MP3 player)

KBZN 121556Z VRB03KT 10SM CLR 17/02 A2980 RMK AO2 SLP065 T01720017

KBZN Airport Info (Airnav.com)

KBZN Flight Activity (Flightaware)

Listeners: 0 out of 2995 total

Bozeman ATIS: 135.425

KBZN Emergency/Guard (Archives)
Bozeman, Montana, United States

Feed Status: UP
Listen in your browser - HTML5 player(in browser, HTML5)
Click here to listen with your own player(launches your MP3 player)

KBZN 121556Z VRB03KT 10SM CLR 17/02 A2980 RMK AO2 SLP065 T01720017

KBZN Airport Info (Airnav.com)

KBZN Flight Activity (Flightaware)

Listeners: 0 out of 2995 total

Emergency/Guard: 121.500

KBZN Gnd/Twr (Archives)
Bozeman, Montana, United States

Feed Status: UP
Listen in your browser - HTML5 player(in browser, HTML5)
Click here to listen with your own player(launches your MP3 player)

KBZN 121556Z VRB03KT 10SM CLR 17/02 A2980 RMK AO2 SLP065 T01720017

KBZN Airport Info (Airnav.com)

KBZN Flight Activity (Flightaware)

Listeners: 0 out of 2995 total

Bozeman Ground: 121.800
Bozeman Tower/CTAF: 118.200

KBZN Gnd/Twr/App (Archives)
Bozeman, Montana, United States

Feed Status: UP
Listen in your browser - HTML5 player(in browser, HTML5)
Click here to listen with your own player(launches your MP3 player)

KBZN 121556Z VRB03KT 10SM CLR 17/02 A2980 RMK AO2 SLP065 T01720017

KBZN Airport Info (Airnav.com)

KBZN Flight Activity (Flightaware)

Listeners: 4 out of 2995 total

Big Sky Approach/Departure: 118.975
Bozeman Ground: 121.800
Bozeman Tower/CTAF: 118.200

KBZN Ground (Archives)
Bozeman, Montana, United States

Feed Status: UP
Listen in your browser - HTML5 player(in browser, HTML5)
Click here to listen with your own player(launches your MP3 player)

KBZN 121556Z VRB03KT 10SM CLR 17/02 A2980 RMK AO2 SLP065 T01720017

KBZN Airport Info (Airnav.com)

KBZN Flight Activity (Flightaware)

Listeners: 0 out of 2995 total

Bozeman Ground: 121.800

KBZN Tower (Archives)
Bozeman, Montana, United States

Feed Status: UP
Listen in your browser - HTML5 player(in browser, HTML5)
Click here to listen with your own player(launches your MP3 player)

KBZN 121556Z VRB03KT 10SM CLR 17/02 A2980 RMK AO2 SLP065 T01720017

KBZN Airport Info (Airnav.com)

KBZN Flight Activity (Flightaware)

Listeners: 0 out of 2995 total

Bozeman Tower/CTAF: 118.200

KCCB CTAF (Archives)
Upland, California, United States

Feed Status: UP
Listen in your browser - HTML5 player(in browser, HTML5)
Click here to listen with your own player(launches your MP3 player)

KCCB 121615Z AUTO 26010KT 1 1/2SM BR OVC003 12/12 A2987 RMK AO2

KCCB Airport Info (Airnav.com)

KCCB Flight Activity (Flightaware)

Listeners: 0 out of 2995 total

Upland CTAF: 123.000

KATL Approach (South Sat) (Archives)
Atlanta, Georgia, United States

Feed Status: UP
Listen in your browser - HTML5 player(in browser, HTML5)
Click here to listen with your own player(launches your MP3 player)

KCCO 121615Z AUTO 31010G19KT 10SM CLR 18/M03 A3007 RMK AO2 T01761026

KCCO Airport Info (Airnav.com)

KCCO Flight Activity (Flightaware)

Listeners: 0 out of 2995 total

Atlanta Approach (SW Satellite): 119.800

KCCO Area Air-to-Air (Archives)
Atlanta, Georgia, United States

Feed Status: UP
Listen in your browser - HTML5 player(in browser, HTML5)
Click here to listen with your own player(launches your MP3 player)

KCCO 121615Z AUTO 31010G19KT 10SM CLR 18/M03 A3007 RMK AO2 T01761026

KCCO Airport Info (Airnav.com)

KCCO Flight Activity (Flightaware)

Listeners: 0 out of 2995 total

Newnan Area Air to Air: 123.450

KCCO AWOS (Archives)
Atlanta, Georgia, United States

Feed Status: UP
Listen in your browser - HTML5 player(in browser, HTML5)
Click here to listen with your own player(launches your MP3 player)

KCCO 121615Z AUTO 31010G19KT 10SM CLR 18/M03 A3007 RMK AO2 T01761026

KCCO Airport Info (Airnav.com)

KCCO Flight Activity (Flightaware)

Listeners: 0 out of 2995 total

Newnan AWOS: 118.975

KCCO CTAF (Archives)
Atlanta, Georgia, United States

Feed Status: UP
Listen in your browser - HTML5 player(in browser, HTML5)
Click here to listen with your own player(launches your MP3 player)

KCCO 121615Z AUTO 31010G19KT 10SM CLR 18/M03 A3007 RMK AO2 T01761026

KCCO Airport Info (Airnav.com)

KCCO Flight Activity (Flightaware)

Listeners: 0 out of 2995 total

Emergency/Guard: 121.500
Flight School Company Channel: 123.300
Newnan CTAF: 122.700

KCCO Emergency/Guard (Archives)
Atlanta, Georgia, United States

Feed Status: UP
Listen in your browser - HTML5 player(in browser, HTML5)
Click here to listen with your own player(launches your MP3 player)

KCCO 121615Z AUTO 31010G19KT 10SM CLR 18/M03 A3007 RMK AO2 T01761026

KCCO Airport Info (Airnav.com)

KCCO Flight Activity (Flightaware)

Listeners: 0 out of 2995 total

Emergency/Guard: 121.500

KCCR Gnd/Twr (Archives)
Concord, California, United States

Feed Status: UP
Listen in your browser - HTML5 player(in browser, HTML5)
Click here to listen with your own player(launches your MP3 player)

KCCR 121553Z 20010KT 10SM CLR 13/08 A2972 RMK AO2 SLP049 T01330078

KCCR Airport Info (Airnav.com)

KCCR Flight Activity (Flightaware)

Listeners: 2 out of 2995 total

Concord Ground: 121.900
Concord Tower: 119.700

KCDC ASOS (Archives)
Cedar City, Utah, United States

Feed Status: UP
Listen in your browser - HTML5 player(in browser, HTML5)
Click here to listen with your own player(launches your MP3 player)

KCDC 121553Z AUTO 24007KT 10SM CLR 16/M03 A2999 RMK AO2 SLP101 T01611033

KCDC Airport Info (Airnav.com)

KCDC Flight Activity (Flightaware)

Listeners: 0 out of 2995 total

Cedar City ASOS: 119.025

KCDC CTAF #1 (Archives)
Cedar City, Utah, United States

Feed Status: UP
Listen in your browser - HTML5 player(in browser, HTML5)
Click here to listen with your own player(launches your MP3 player)

KCDC 121553Z AUTO 24007KT 10SM CLR 16/M03 A2999 RMK AO2 SLP101 T01611033

KCDC Airport Info (Airnav.com)

KCDC Flight Activity (Flightaware)

Listeners: 1 out of 2995 total

Cedar City CTAF: 123.000

KCDC Guard (Archives)
Cedar City, Utah, United States

Feed Status: UP
Listen in your browser - HTML5 player(in browser, HTML5)
Click here to listen with your own player(launches your MP3 player)

KCDC 121553Z AUTO 24007KT 10SM CLR 16/M03 A2999 RMK AO2 SLP101 T01611033

KCDC Airport Info (Airnav.com)

KCDC Flight Activity (Flightaware)

Listeners: 0 out of 2995 total

Emergency/Guard: 121.500

KCDC T-Bird Dispatch (Archives)
Cedar City, Utah, United States

Feed Status: UP
Listen in your browser - HTML5 player(in browser, HTML5)
Click here to listen with your own player(launches your MP3 player)

KCDC 121553Z AUTO 24007KT 10SM CLR 16/M03 A2999 RMK AO2 SLP101 T01611033

KCDC Airport Info (Airnav.com)

KCDC Flight Activity (Flightaware)

Listeners: 0 out of 2995 total

SUU Aviation T-Bird Traffic (Dispatch): 123.500

KCDW Del/Gnd/Twr (Archives)
Caldwell, New Jersey, United States

Feed Status: UP
Listen in your browser - HTML5 player(in browser, HTML5)
Click here to listen with your own player(launches your MP3 player)

KCDW 121617Z 29017G26KT 1 1/2SM +RA BKN020 OVC026 17/12 A2930 RMK AO2 PK WND 29026/1613 LTG DSNT S RAB14 PRESRR P0009 T01670117

KCDW Airport Info (Airnav.com)

KCDW Flight Activity (Flightaware)

Listeners: 2 out of 2995 total

Caldwell Clearance: 121.100
Caldwell Ground: 121.900
Caldwell Tower: 119.800

KBOK/KCEC CTAF (Archives)
Crescent City, California, United States

Feed Status: UP
Listen in your browser - HTML5 player(in browser, HTML5)
Click here to listen with your own player(launches your MP3 player)

KBOK 121556Z AUTO 29003KT 10SM SCT046 08/08 A2971 RMK AO2 SLP062 T00830078

KBOK Airport Info (Airnav.com)

KBOK Flight Activity (Flightaware)

Listeners: 0 out of 2995 total

Brookings/Crescent City CTAF: 122.800

KBAF/KCEF Tower (Archives)
Springfield/Chicopee, Massachusetts, United States

Feed Status: UP
Listen in your browser - HTML5 player(in browser, HTML5)
Click here to listen with your own player(launches your MP3 player)

KBAF 121553Z 17009G19KT 5SM -RA BR OVC006 16/15 A2935 RMK AO2 PK WND 16028/1454 RAB01 SLP938 P0001 T01610150

KBAF Airport Info (Airnav.com)

KBAF Flight Activity (Flightaware)

Listeners: 2 out of 2995 total

Westfield Tower: 118.900
Westfield Tower: 251.100
Westover Tower: 134.850
Westover Tower: 348.750

KCEZ CTAF/ZDV (Archives)
Cortez, Colorado, United States

Feed Status: UP
Listen in your browser - HTML5 player(in browser, HTML5)
Click here to listen with your own player(launches your MP3 player)

KCEZ 121553Z AUTO 00000KT 10SM CLR 16/M07 A3013 RMK AO2 SLP163 T01611067

KCEZ Airport Info (Airnav.com)

KCEZ Flight Activity (Flightaware)

Listeners: 2 out of 2995 total

Cortez CTAF: 122.800
Denver Center (Sector 36 Farmington Low): 118.575
Emergency/Guard: 121.500

KCFD CTAF/App (Archives)
Bryan, Texas, United States

Feed Status: UP
Listen in your browser - HTML5 player(in browser, HTML5)
Click here to listen with your own player(launches your MP3 player)

KCFD 121615Z AUTO 14008KT 10SM CLR 23/08 A3032 RMK AO2 T02290083

KCFD Airport Info (Airnav.com)

KCFD Flight Activity (Flightaware)

Listeners: 0 out of 2995 total

Bryan CTAF/UNICOM: 123.000
Houston Approach/Departure: 134.300

KCFJ CTAF (Archives)
Crawfordsville, Indiana, United States

Feed Status: UP
Listen in your browser - HTML5 player(in browser, HTML5)
Click here to listen with your own player(launches your MP3 player)

KCFJ 121615Z AUTO 29015G21KT 10SM BKN016 OVC022 09/07 A2978 RMK AO2 T00890067

KCFJ Airport Info (Airnav.com)

KCFJ Flight Activity (Flightaware)

Listeners: 0 out of 2995 total

Crawfordsville CTAF: 122.800

KCFJ Emergency/Guard (Archives)
Crawfordsville, Indiana, United States

Feed Status: UP
Listen in your browser - HTML5 player(in browser, HTML5)
Click here to listen with your own player(launches your MP3 player)

KCFJ 121615Z AUTO 29015G21KT 10SM BKN016 OVC022 09/07 A2978 RMK AO2 T00890067

KCFJ Airport Info (Airnav.com)

KCFJ Flight Activity (Flightaware)

Listeners: 0 out of 2995 total

Emergency/Guard: 121.500

KCFO/KEIK/KBDU/KLMO/Misc (Archives)
Denver, Colorado, United States

Feed Status: UP
Listen in your browser - HTML5 player(in browser, HTML5)
Click here to listen with your own player(launches your MP3 player)

KDEN 121553Z 21009KT 10SM CLR 18/M06 A3010 RMK AO2 SLP153 T01831061

KDEN Airport Info (Airnav.com)

KDEN Flight Activity (Flightaware)

Listeners: 0 out of 2995 total

Air-to-Air Fixed Wing: 122.750
Air-to-Air Informal: 123.450
Boulder CTAF: 122.725
Erie CTAF: 123.000
Front Range Tower: 120.200
KBKF Tower: 121.000
Longmont CTAF: 122.975
MULTICOM: 122.900
UNICOM: 122.950

KCGZ AWOS (Archives)
Casa Grande, Arizona, United States

Feed Status: UP
Listen in your browser - HTML5 player(in browser, HTML5)
Click here to listen with your own player(launches your MP3 player)

KCGZ 121556Z AUTO 14005KT 10SM CLR 23/01 A2990 RMK AO2 SLP112 T02280011 PNO $

KCGZ Airport Info (Airnav.com)

KCGZ Flight Activity (Flightaware)

Listeners: 0 out of 2995 total

Casa Grande AWOS: 132.175

KCGZ CTAF (Archives)
Casa Grande, Arizona, United States

Feed Status: UP
Listen in your browser - HTML5 player(in browser, HTML5)
Click here to listen with your own player(launches your MP3 player)

KCGZ 121556Z AUTO 14005KT 10SM CLR 23/01 A2990 RMK AO2 SLP112 T02280011 PNO $

KCGZ Airport Info (Airnav.com)

KCGZ Flight Activity (Flightaware)

Listeners: 0 out of 2995 total

Casa Grande CTAF: 122.700

KCGZ SE/SW Practice Area (Archives)
Casa Grande, Arizona, United States

Feed Status: UP
Listen in your browser - HTML5 player(in browser, HTML5)
Click here to listen with your own player(launches your MP3 player)

KCGZ 121556Z AUTO 14005KT 10SM CLR 23/01 A2990 RMK AO2 SLP112 T02280011 PNO $

KCGZ Airport Info (Airnav.com)

KCGZ Flight Activity (Flightaware)

Listeners: 0 out of 2995 total

Casa Grande SE Practice Area: 122.850

KCHD Tower (North) (Archives)
Chandler, Arizona, United States

Feed Status: UP
Listen in your browser - HTML5 player(in browser, HTML5)
Click here to listen with your own player(launches your MP3 player)

KCHD 121547Z VRB04KT 10SM CLR 23/03 A2987

KCHD Airport Info (Airnav.com)

KCHD Flight Activity (Flightaware)

Listeners: 0 out of 2995 total

Chandler Tower (North): 126.100

KCHD Tower (South) (Archives)
Chandler, Arizona, United States

Feed Status: UP
Listen in your browser - HTML5 player(in browser, HTML5)
Click here to listen with your own player(launches your MP3 player)

KCHD 121547Z VRB04KT 10SM CLR 23/03 A2987

KCHD Airport Info (Airnav.com)

KCHD Flight Activity (Flightaware)

Listeners: 0 out of 2995 total

Chandler Tower (South): 133.100

KCHO Area Emergency/Guard (Archives)
Charlottesville, Virginia, United States

Feed Status: UP
Listen in your browser - HTML5 player(in browser, HTML5)
Click here to listen with your own player(launches your MP3 player)


Listeners: 0 out of 2995 total

Emergency/Guard: 121.500

KCHO Tower (Archives)
Charlottesville, Virginia, United States

Feed Status: UP
Listen in your browser - HTML5 player(in browser, HTML5)
Click here to listen with your own player(launches your MP3 player)

KCHO 121553Z 28011G23KT 10SM FEW050 17/05 A2958 RMK AO2 SLP009 T01720050

KCHO Airport Info (Airnav.com)

KCHO Flight Activity (Flightaware)

Listeners: 0 out of 2995 total

Charlottesville Tower: 124.500

KCHO Tower/App (Archives)
Charlottesville, Virginia, United States

Feed Status: UP
Listen in your browser - HTML5 player(in browser, HTML5)
Click here to listen with your own player(launches your MP3 player)

KCHO 121553Z 28011G23KT 10SM FEW050 17/05 A2958 RMK AO2 SLP009 T01720050

KCHO Airport Info (Airnav.com)

KCHO Flight Activity (Flightaware)

Listeners: 1 out of 2995 total

Charlottesville Tower: 124.500
Potomac Approach/Departure: 132.850

KCIC Tower/ZOA42 (Archives)
Chico, California, United States

Feed Status: UP
Listen in your browser - HTML5 player(in browser, HTML5)
Click here to listen with your own player(launches your MP3 player)

KCIC 121515Z AUTO 13012KT 10SM SCT120 16/09 A2963 RMK AO1

KCIC Airport Info (Airnav.com)

KCIC Flight Activity (Flightaware)

Listeners: 6 out of 2995 total

Chico CTAF/Tower: 121.000
Oakland Center (Sector 42 Low): 132.200

KCID Gnd/Twr/App/KIOW (Archives)
Cedar Rapids, Iowa, United States

Feed Status: UP
Listen in your browser - HTML5 player(in browser, HTML5)
Click here to listen with your own player(launches your MP3 player)

KCID 121552Z 31020G28KT 10SM CLR 14/04 A2998 RMK AO2 PK WND 31029/1541 SLP153 T01390039

KCID Airport Info (Airnav.com)

KCID Flight Activity (Flightaware)

Listeners: 0 out of 2995 total

Cedar Rapids Approach (091-269): 119.700
Cedar Rapids Approach (270-090): 134.050
Cedar Rapids Clearance Delivery: 125.450
Cedar Rapids Ground (0500-2330): 121.600
Cedar Rapids Tower (0500-2330): 118.700
UNICOM C17 (Marion) and surrounding area: 122.700
UNICOM IA24 Green Castle: 122.900
UNICOM KIOW (Iowa City) and surrounding area: 122.800

KCKB App/Dep (Archives)
Clarksburg, West Virginia, United States

Feed Status: UP
Listen in your browser - HTML5 player(in browser, HTML5)
Click here to listen with your own player(launches your MP3 player)

KCKB 121553Z 25013G20KT 10SM -RA BKN024 OVC035 11/06 A2957 RMK AO2 PK WND 24027/1502 RAB30 SLP007 P0000 T01060061 $

KCKB Airport Info (Airnav.com)

KCKB Flight Activity (Flightaware)

Listeners: 0 out of 2995 total

Clarksburg Approach (East): 121.150
Clarksburg Approach (West): 119.600

KCKB App/Dep (East) (Archives)
Clarksburg, West Virginia, United States

Feed Status: UP
Listen in your browser - HTML5 player(in browser, HTML5)
Click here to listen with your own player(launches your MP3 player)

KCKB 121553Z 25013G20KT 10SM -RA BKN024 OVC035 11/06 A2957 RMK AO2 PK WND 24027/1502 RAB30 SLP007 P0000 T01060061 $

KCKB Airport Info (Airnav.com)

KCKB Flight Activity (Flightaware)

Listeners: 0 out of 2995 total

Clarksburg Approach (East): 121.150

KCKB App/Dep (West) (Archives)
Clarksburg, West Virginia, United States

Feed Status: UP
Listen in your browser - HTML5 player(in browser, HTML5)
Click here to listen with your own player(launches your MP3 player)

KCKB 121553Z 25013G20KT 10SM -RA BKN024 OVC035 11/06 A2957 RMK AO2 PK WND 24027/1502 RAB30 SLP007 P0000 T01060061 $

KCKB Airport Info (Airnav.com)

KCKB Flight Activity (Flightaware)

Listeners: 0 out of 2995 total

Clarksburg Approach (West): 119.600

KCKB Emergency/Guard (Archives)
Clarksburg, West Virginia, United States

Feed Status: UP
Listen in your browser - HTML5 player(in browser, HTML5)
Click here to listen with your own player(launches your MP3 player)

KCKB 121553Z 25013G20KT 10SM -RA BKN024 OVC035 11/06 A2957 RMK AO2 PK WND 24027/1502 RAB30 SLP007 P0000 T01060061 $

KCKB Airport Info (Airnav.com)

KCKB Flight Activity (Flightaware)

Listeners: 0 out of 2995 total

Emergency/Guard: 121.500

KCKB Ground (Archives)
Clarksburg, West Virginia, United States

Feed Status: UP
Listen in your browser - HTML5 player(in browser, HTML5)
Click here to listen with your own player(launches your MP3 player)

KCKB 121553Z 25013G20KT 10SM -RA BKN024 OVC035 11/06 A2957 RMK AO2 PK WND 24027/1502 RAB30 SLP007 P0000 T01060061 $

KCKB Airport Info (Airnav.com)

KCKB Flight Activity (Flightaware)

Listeners: 0 out of 2995 total

Clarksburg Ground: 121.900

KCKB Ground/Tower (Archives)
Clarksburg, West Virginia, United States

Feed Status: UP
Listen in your browser - HTML5 player(in browser, HTML5)
Click here to listen with your own player(launches your MP3 player)

KCKB 121553Z 25013G20KT 10SM -RA BKN024 OVC035 11/06 A2957 RMK AO2 PK WND 24027/1502 RAB30 SLP007 P0000 T01060061 $

KCKB Airport Info (Airnav.com)

KCKB Flight Activity (Flightaware)

Listeners: 0 out of 2995 total

Clarksburg Ground: 121.900
Clarksburg Tower: 126.700

KCKB Tower (Archives)
Clarksburg, West Virginia, United States

Feed Status: UP
Listen in your browser - HTML5 player(in browser, HTML5)
Click here to listen with your own player(launches your MP3 player)

KCKB 121553Z 25013G20KT 10SM -RA BKN024 OVC035 11/06 A2957 RMK AO2 PK WND 24027/1502 RAB30 SLP007 P0000 T01060061 $

KCKB Airport Info (Airnav.com)

KCKB Flight Activity (Flightaware)

Listeners: 0 out of 2995 total

Clarksburg Tower: 126.700

KCLL Gnd/Twr (Archives)
College Station, Texas, United States

Feed Status: UP
Listen in your browser - HTML5 player(in browser, HTML5)
Click here to listen with your own player(launches your MP3 player)

KCLL 121553Z 14008KT 10SM CLR 23/08 A3029 RMK AO2 SLP253 T02330078

KCLL Airport Info (Airnav.com)

KCLL Flight Activity (Flightaware)

Listeners: 2 out of 2995 total

Easterwood Ground: 128.700
Easterwood Tower: 118.500

KCMA App/Dep (Mugu App) (Archives)
Camarillo, California, United States

Feed Status: UP
Listen in your browser - HTML5 player(in browser, HTML5)
Click here to listen with your own player(launches your MP3 player)

KCMA 121602Z 14004KT 7SM OVC012 14/10 A2987 RMK AO2 T01440100

KCMA Airport Info (Airnav.com)

KCMA Flight Activity (Flightaware)

Listeners: 1 out of 2995 total

Point Mugu Approach: 123.750
Point Mugu Approach: 124.700

KCMA ATIS (Archives)
Camarillo, California, United States

Feed Status: UP
Listen in your browser - HTML5 player(in browser, HTML5)
Click here to listen with your own player(launches your MP3 player)

KCMA 121602Z 14004KT 7SM OVC012 14/10 A2987 RMK AO2 T01440100

KCMA Airport Info (Airnav.com)

KCMA Flight Activity (Flightaware)

Listeners: 0 out of 2995 total

Camarillo ATIS: 126.025

KCMA Ground/Tower (Archives)
Camarillo, California, United States

Feed Status: UP
Listen in your browser - HTML5 player(in browser, HTML5)
Click here to listen with your own player(launches your MP3 player)

KCMA 121602Z 14004KT 7SM OVC012 14/10 A2987 RMK AO2 T01440100

KCMA Airport Info (Airnav.com)

KCMA Flight Activity (Flightaware)

Listeners: 0 out of 2995 total

Camarillo Ground: 121.800
Camarillo Tower: 128.200

KWDR/KCVC/KCNI CTAF (Archives)
Canton, Georgia, United States

Feed Status: UP
Listen in your browser - HTML5 player(in browser, HTML5)
Click here to listen with your own player(launches your MP3 player)

KWDR 121615Z AUTO 27017G23KT 235V305 10SM CLR 18/M01 A2998 RMK AO2

KWDR Airport Info (Airnav.com)

KWDR Flight Activity (Flightaware)

Listeners: 0 out of 2995 total

KWDR/KCVC/KCNI CTAF: 123.000

KCNO Ground
Chino, California, United States

Feed Status: DOWN
Offline since: 2024-02-25 21:59:21 UTC

KCNO 121600Z 24010KT 4SM HZ OVC008 13/00 A2988 RMK AO2 T01330000

KCNO Airport Info (Airnav.com)

Chino Ground: 121.600

KCNO Ground/Tower
Chino, California, United States

Feed Status: DOWN
Offline since: 2024-02-25 22:00:05 UTC

KCNO 121600Z 24010KT 4SM HZ OVC008 13/00 A2988 RMK AO2 T01330000

KCNO Airport Info (Airnav.com)

Chino Ground: 121.600
Chino Tower: 118.500

KCNO Tower
Chino, California, United States

Feed Status: DOWN
Offline since: 2024-02-25 21:59:21 UTC

KCNO 121600Z 24010KT 4SM HZ OVC008 13/00 A2988 RMK AO2 T01330000

KCNO Airport Info (Airnav.com)

Chino Tower: 118.500

KCNY CTAF/Misc (Archives)
Moab, Utah, United States

Feed Status: UP
Listen in your browser - HTML5 player(in browser, HTML5)
Click here to listen with your own player(launches your MP3 player)

KCNY 121453Z AUTO 13010KT 10SM CLR 13/M08 A3005 RMK AO2 SLP142 T01331078 50005

KCNY Airport Info (Airnav.com)

KCNY Flight Activity (Flightaware)

Listeners: 0 out of 2995 total

Canyonlands CTAF: 122.800
Emergency/Guard: 121.500
Emergency/Guard: 243.000
Helicopter: 123.025

KCOE CTAF (Archives)
Coeur d'Alene, Idaho, United States

Feed Status: UP
Listen in your browser - HTML5 player(in browser, HTML5)
Click here to listen with your own player(launches your MP3 player)

KCOE 121556Z AUTO 17009KT 10SM BKN090 11/05 A2982 RMK AO2 SLP116 T01110050

KCOE Airport Info (Airnav.com)

KCOE Flight Activity (Flightaware)

Listeners: 0 out of 2995 total

Coeur d'Alene CTAF: 122.800

KCOE FSS (Archives)
Coeur d'Alene, Idaho, United States

Feed Status: UP
Listen in your browser - HTML5 player(in browser, HTML5)
Click here to listen with your own player(launches your MP3 player)

KCOE 121556Z AUTO 17009KT 10SM BKN090 11/05 A2982 RMK AO2 SLP116 T01110050

KCOE Airport Info (Airnav.com)

KCOE Flight Activity (Flightaware)

Listeners: 0 out of 2995 total

Flight Service: 122.550
Flight Service: 122.650
Flight Service: 122.000
Flight Service: 122.050

KCON/KDAW/KFIT CTAF (Archives)
Concord, New Hampshire, United States

Feed Status: UP
Listen in your browser - HTML5 player(in browser, HTML5)
Click here to listen with your own player(launches your MP3 player)

KMHT 121553Z 16016G26KT 5SM -RA BR BKN013 OVC018 18/16 A2943 RMK AO2 PK WND 16032/1522 RAE25B47 SLP977 P0000 T01780156

KMHT Airport Info (Airnav.com)

KMHT Flight Activity (Flightaware)

Listeners: 0 out of 2995 total

NH/MA Area CTAF: 122.700

MA/NH/RI/CT Area CTAF (Archives)
Concord, New Hampshire, United States

Feed Status: UP
Listen in your browser - HTML5 player(in browser, HTML5)
Click here to listen with your own player(launches your MP3 player)

KBOS 121606Z 18028G41KT 7SM BKN009 OVC015 16/14 A2946 RMK AO2 PK WND 17041/1602 T01610144 $

KBOS Airport Info (Airnav.com)

KBOS Flight Activity (Flightaware)

Listeners: 0 out of 2995 total

Air-to-Air: 122.750
Bridgeport Flight Service: 122.200
CTAF: 122.700
CTAF: 122.800
CTAF: 122.900
CTAF: 123.000
Emergency/Guard: 121.500

MA/NH/RI/CT Area CTAF (Archives)
Concord, New Hampshire, United States

Feed Status: UP
Listen in your browser - HTML5 player(in browser, HTML5)
Click here to listen with your own player(launches your MP3 player)

KBOS 121606Z 18028G41KT 7SM BKN009 OVC015 16/14 A2946 RMK AO2 PK WND 17041/1602 T01610144 $

KBOS Airport Info (Airnav.com)

KBOS Flight Activity (Flightaware)

Listeners: 0 out of 2995 total

Air-to-Air: 122.750
Bridgeport Flight Service: 122.200
CTAF: 122.700
CTAF: 122.800
CTAF: 122.900
CTAF: 123.000
Emergency/Guard: 121.500

MA/NH/RI/CT Area CTAF (Archives)
Concord, New Hampshire, United States

Feed Status: UP
Listen in your browser - HTML5 player(in browser, HTML5)
Click here to listen with your own player(launches your MP3 player)

KBOS 121606Z 18028G41KT 7SM BKN009 OVC015 16/14 A2946 RMK AO2 PK WND 17041/1602 T01610144 $

KBOS Airport Info (Airnav.com)

KBOS Flight Activity (Flightaware)

Listeners: 0 out of 2995 total

Air-to-Air: 122.750
Bridgeport Flight Service: 122.200
CTAF: 122.700
CTAF: 122.800
CTAF: 122.900
CTAF: 123.000
Emergency/Guard: 121.500

KCPM CTAF (Archives)
Compton, California, United States

Feed Status: UP
Listen in your browser - HTML5 player(in browser, HTML5)
Click here to listen with your own player(launches your MP3 player)

KCPM Airport Info (Airnav.com)

KCPM Flight Activity (Flightaware)

Listeners: 0 out of 2995 total

Compton CTAF: 123.050

KCPR Gnd/Twr/App (Archives)
Casper, Wyoming, United States

Feed Status: UP
Listen in your browser - HTML5 player(in browser, HTML5)
Click here to listen with your own player(launches your MP3 player)

KCPR 121553Z 20015G24KT 10SM CLR 14/M03 A3001 RMK AO2 PK WND 21026/1539 SLP134 T01441028

KCPR Airport Info (Airnav.com)

KCPR Flight Activity (Flightaware)

Listeners: 1 out of 2995 total

Casper Approach: 120.650
Casper Ground: 121.900
Casper Tower: 118.300

KCPR Twr/App/ZDV/Radio (Archives)
Casper, Wyoming, United States

Feed Status: UP
Listen in your browser - HTML5 player(in browser, HTML5)
Click here to listen with your own player(launches your MP3 player)

KCPR 121553Z 20015G24KT 10SM CLR 14/M03 A3001 RMK AO2 PK WND 21026/1539 SLP134 T01441028

KCPR Airport Info (Airnav.com)

KCPR Flight Activity (Flightaware)

Listeners: 2 out of 2995 total

Casper Approach: 120.650
Casper Ground: 121.900
Casper Radio: 122.600
Casper Tower: 118.300
Denver Center (Sector 22 Casper Low): 135.600

KCPS Del/Gnd/Twr/App (Archives)
Cahokia/St Louis, Illinois, United States

Feed Status: UP
Listen in your browser - HTML5 player(in browser, HTML5)
Click here to listen with your own player(launches your MP3 player)

KCPS 121553Z 32017G32KT 10SM CLR 16/05 A3003 RMK AO2 PK WND 33034/1521 SLP167 T01560050

KCPS Airport Info (Airnav.com)

KCPS Flight Activity (Flightaware)

Listeners: 0 out of 2995 total

Downtown Clearance Delivery: 118.275
Downtown Ground: 121.800
Downtown Tower: 119.925
St. Louis Approach/Departure: 123.700

KCQF CTAF/Misc (Archives)
Fairhope, Alabama, United States

Feed Status: UP
Listen in your browser - HTML5 player(in browser, HTML5)
Click here to listen with your own player(launches your MP3 player)

KCQF 121615Z AUTO 30007KT 10SM CLR 20/04 A3022 RMK AO2

KCQF Airport Info (Airnav.com)

KCQF Flight Activity (Flightaware)

Listeners: 0 out of 2995 total

Emergency/Guard: 121.500
Fairhope CTAF: 123.000

KCRE ATIS (Archives)
North Myrtle Beach, South Carolina, United States

Feed Status: UP
Listen in your browser - HTML5 player(in browser, HTML5)
Click here to listen with your own player(launches your MP3 player)

KCRE 121553Z 28016G35KT 10SM CLR 21/07 A2984 RMK AO1 PK WND 24035/1546 SLP106 T02110067

KCRE Airport Info (Airnav.com)

KCRE Flight Activity (Flightaware)

Listeners: 0 out of 2995 total

Strand ATIS: 119.625

KCRE Ground/Tower (Archives)
North Myrtle Beach, South Carolina, United States

Feed Status: UP
Listen in your browser - HTML5 player(in browser, HTML5)
Click here to listen with your own player(launches your MP3 player)

KCRE 121553Z 28016G35KT 10SM CLR 21/07 A2984 RMK AO1 PK WND 24035/1546 SLP106 T02110067

KCRE Airport Info (Airnav.com)

KCRE Flight Activity (Flightaware)

Listeners: 0 out of 2995 total

Strand Ground: 121.800
Strand Tower: 124.600

KCRE Guard (Archives)
North Myrtle Beach, South Carolina, United States

Feed Status: UP
Listen in your browser - HTML5 player(in browser, HTML5)
Click here to listen with your own player(launches your MP3 player)

KCRE 121553Z 28016G35KT 10SM CLR 21/07 A2984 RMK AO1 PK WND 24035/1546 SLP106 T02110067

KCRE Airport Info (Airnav.com)

KCRE Flight Activity (Flightaware)

Listeners: 0 out of 2995 total

Emergency/Guard: 121.500

KCRG Gnd/Twr/App
Jacksonville, Florida, United States

Feed Status: DOWN
Offline since: 2024-03-15 16:16:04 UTC

KCRG 121553Z 29012G25KT 10SM CLR 23/06 A3009 RMK AO2 SLP187 T02280061

KCRG Airport Info (Airnav.com)

Craig Clearance: 118.350
Craig Ground: 121.800
Craig Tower: 132.100
Jacksonville Approach: 118.000
Jacksonville Approach: 124.900

KCRQ Tower (Archives)
Carlsbad, California, United States

Feed Status: UP
Listen in your browser - HTML5 player(in browser, HTML5)
Click here to listen with your own player(launches your MP3 player)

KCRQ 121553Z AUTO 20005KT 7SM OVC008 13/11 A2987 RMK AO2 SLP115 T01280111

KCRQ Airport Info (Airnav.com)

KCRQ Flight Activity (Flightaware)

Listeners: 0 out of 2995 total

Palomar Tower: 118.600

KCTJ/KLGC CTAF (Archives)
Carrollton, Georgia, United States

Feed Status: UP
Listen in your browser - HTML5 player(in browser, HTML5)
Click here to listen with your own player(launches your MP3 player)

KCCO 121615Z AUTO 31010G19KT 10SM CLR 18/M03 A3007 RMK AO2 T01761026

KCCO Airport Info (Airnav.com)

KCCO Flight Activity (Flightaware)

Listeners: 0 out of 2995 total

KCTJ/KLGC CTAF: 122.975

KCUB CTAF (Archives)
Columbia, South Carolina, United States

Feed Status: UP
Listen in your browser - HTML5 player(in browser, HTML5)
Click here to listen with your own player(launches your MP3 player)

KCUB 121553Z AUTO 26018G25KT 10SM CLR 19/03 A2989 RMK AO2 PK WND 26032/1520 SLP119 T01940028

KCUB Airport Info (Airnav.com)

KCUB Flight Activity (Flightaware)

Listeners: 0 out of 2995 total

Columbia CTAF: 123.075

KWDR/KCVC/KCNI CTAF (Archives)
Atlanta, Georgia, United States

Feed Status: UP
Listen in your browser - HTML5 player(in browser, HTML5)
Click here to listen with your own player(launches your MP3 player)

KWDR 121615Z AUTO 27017G23KT 235V305 10SM CLR 18/M01 A2998 RMK AO2

KWDR Airport Info (Airnav.com)

KWDR Flight Activity (Flightaware)

Listeners: 0 out of 2995 total

KWDR/KCVC/KCNI CTAF: 123.000

KCVO CTAF/Misc (Archives)
Corvallis, Oregon, United States

Feed Status: UP
Listen in your browser - HTML5 player(in browser, HTML5)
Click here to listen with your own player(launches your MP3 player)

KCVO 121608Z AUTO 34004KT 10SM BKN011 10/08 A2978 RMK AO2

KCVO Airport Info (Airnav.com)

KCVO Flight Activity (Flightaware)

Listeners: 2 out of 2995 total

Cascade Approach: 127.500
Cascade Approach: 119.600
Corvallis CTAF: 123.075
Seattle Center (Sector 6 Low): 125.800

KCXP CTAF
Carson City, Nevada, United States

Feed Status: DOWN
Offline since: 2024-04-12 07:29:22 UTC

KCXP 121615Z AUTO 17003KT 10SM CLR 15/00 A2978 RMK AO2

KCXP Airport Info (Airnav.com)

Carson City CTAF: 123.000

KCXY Ground (Archives)
Harrisburg, Pennsylvania, United States

Feed Status: UP
Listen in your browser - HTML5 player(in browser, HTML5)
Click here to listen with your own player(launches your MP3 player)

KMDT 121556Z 27015G28KT 10SM BKN049 OVC120 14/06 A2941 RMK AO2 PK WND 26028/1552 SLP958 T01440056

KMDT Airport Info (Airnav.com)

KMDT Flight Activity (Flightaware)

Listeners: 0 out of 2995 total

Capital City Ground: 121.900

KCXY Ground/Tower (Archives)
Harrisburg, Pennsylvania, United States

Feed Status: UP
Listen in your browser - HTML5 player(in browser, HTML5)
Click here to listen with your own player(launches your MP3 player)

KMDT 121556Z 27015G28KT 10SM BKN049 OVC120 14/06 A2941 RMK AO2 PK WND 26028/1552 SLP958 T01440056

KMDT Airport Info (Airnav.com)

KMDT Flight Activity (Flightaware)

Listeners: 0 out of 2995 total

Capital City Ground: 121.900
Capital City Tower: 119.500

KCXY Tower (Archives)
Harrisburg, Pennsylvania, United States

Feed Status: UP
Listen in your browser - HTML5 player(in browser, HTML5)
Click here to listen with your own player(launches your MP3 player)

KMDT 121556Z 27015G28KT 10SM BKN049 OVC120 14/06 A2941 RMK AO2 PK WND 26028/1552 SLP958 T01440056

KMDT Airport Info (Airnav.com)

KMDT Flight Activity (Flightaware)

Listeners: 0 out of 2995 total

Capital City Tower: 119.500

KCYS Gnd/Twr/App/Center (Archives)
Cheyenne, Wyoming, United States

Feed Status: UP
Listen in your browser - HTML5 player(in browser, HTML5)
Click here to listen with your own player(launches your MP3 player)

KCYS 121553Z 22015KT 10SM CLR 16/M07 A3009 RMK AO2 SLP136 T01611072

KCYS Airport Info (Airnav.com)

KCYS Flight Activity (Flightaware)

Listeners: 5 out of 2995 total

Cheyenne Approach: 124.550
Cheyenne Ground: 121.900
Cheyenne Tower: 118.700
Denver Center (Sector 21 Cheyenne Low): 125.900
Emergency/Guard: 121.500

KCZL CTAF (Archives)
Calhoun, Georgia, United States

Feed Status: UP
Listen in your browser - HTML5 player(in browser, HTML5)
Click here to listen with your own player(launches your MP3 player)

KCZL 121615Z AUTO 29009G18KT 10SM CLR 18/03 A2999 RMK AO2

KCZL Airport Info (Airnav.com)

KCZL Flight Activity (Flightaware)

Listeners: 0 out of 2995 total

Calhoun CTAF: 122.800

KDAA/KADW Tower (Archives)
Fort Belvoir, Virginia, United States

Feed Status: UP
Listen in your browser - HTML5 player(in browser, HTML5)
Click here to listen with your own player(launches your MP3 player)

KDAA 121555Z AUTO 28016G25KT 10SM BKN065 19/03 A2948 RMK AO2 PK WND 29027/30 SLP985 T01890031 $

KDAA Airport Info (Airnav.com)

KDAA Flight Activity (Flightaware)

Listeners: 4 out of 2995 total

Andrews Tower: 118.400
Andrews Tower: 349.000
Davison Tower: 241.000
Davison Tower: 126.300
Davison Tower: 229.400

KCON/KDAW/KFIT CTAF (Archives)
Rochester, New Hampshire, United States

Feed Status: UP
Listen in your browser - HTML5 player(in browser, HTML5)
Click here to listen with your own player(launches your MP3 player)

KMHT 121553Z 16016G26KT 5SM -RA BR BKN013 OVC018 18/16 A2943 RMK AO2 PK WND 16032/1522 RAE25B47 SLP977 P0000 T01780156

KMHT Airport Info (Airnav.com)

KMHT Flight Activity (Flightaware)

Listeners: 0 out of 2995 total

NH/MA Area CTAF: 122.700

KDBQ ATIS (Archives)
Dubuque, Iowa, United States

Feed Status: UP
Listen in your browser - HTML5 player(in browser, HTML5)
Click here to listen with your own player(launches your MP3 player)

KDBQ 121553Z 31022G31KT 10SM CLR 12/02 A2991 RMK AO2 PK WND 30033/1506 SLP131 T01220022

KDBQ Airport Info (Airnav.com)

KDBQ Flight Activity (Flightaware)

Listeners: 1 out of 2995 total

Dubuque ATIS: 127.250

KDBQ Ground (Archives)
Dubuque, Iowa, United States

Feed Status: UP
Listen in your browser - HTML5 player(in browser, HTML5)
Click here to listen with your own player(launches your MP3 player)

KDBQ 121553Z 31022G31KT 10SM CLR 12/02 A2991 RMK AO2 PK WND 30033/1506 SLP131 T01220022

KDBQ Airport Info (Airnav.com)

KDBQ Flight Activity (Flightaware)

Listeners: 0 out of 2995 total

Dubuque Ground: 121.800

KDBQ Ground/Tower (Archives)
Dubuque, Iowa, United States

Feed Status: UP
Listen in your browser - HTML5 player(in browser, HTML5)
Click here to listen with your own player(launches your MP3 player)

KDBQ 121553Z 31022G31KT 10SM CLR 12/02 A2991 RMK AO2 PK WND 30033/1506 SLP131 T01220022

KDBQ Airport Info (Airnav.com)

KDBQ Flight Activity (Flightaware)

Listeners: 0 out of 2995 total

Dubuque Ground: 121.800
Dubuque Tower: 119.500

KDBQ Guard (Archives)
Dubuque, Iowa, United States

Feed Status: UP
Listen in your browser - HTML5 player(in browser, HTML5)
Click here to listen with your own player(launches your MP3 player)

KDBQ 121553Z 31022G31KT 10SM CLR 12/02 A2991 RMK AO2 PK WND 30033/1506 SLP131 T01220022

KDBQ Airport Info (Airnav.com)

KDBQ Flight Activity (Flightaware)

Listeners: 0 out of 2995 total

Emergency/Guard: 121.500

KDBQ Tower (Archives)
Dubuque, Iowa, United States

Feed Status: UP
Listen in your browser - HTML5 player(in browser, HTML5)
Click here to listen with your own player(launches your MP3 player)

KDBQ 121553Z 31022G31KT 10SM CLR 12/02 A2991 RMK AO2 PK WND 30033/1506 SLP131 T01220022

KDBQ Airport Info (Airnav.com)

KDBQ Flight Activity (Flightaware)

Listeners: 1 out of 2995 total

Dubuque Tower: 119.500

KDED CTAF (Archives)
DeLand, Florida, United States

Feed Status: UP
Listen in your browser - HTML5 player(in browser, HTML5)
Click here to listen with your own player(launches your MP3 player)

KDED 121615Z AUTO 26009G15KT 230V300 10SM CLR 24/09 A3013 RMK AO2 T02370085

KDED Airport Info (Airnav.com)

KDED Flight Activity (Flightaware)

Listeners: 0 out of 2995 total

DeLand CTAF/UNICOM: 123.075

KDED CTAF/Misc (Archives)
DeLand, Florida, United States

Feed Status: UP
Listen in your browser - HTML5 player(in browser, HTML5)
Click here to listen with your own player(launches your MP3 player)

KDED 121615Z AUTO 26009G15KT 230V300 10SM CLR 24/09 A3013 RMK AO2 T02370085

KDED Airport Info (Airnav.com)

KDED Flight Activity (Flightaware)

Listeners: 0 out of 2995 total

DeLand CTAF/UNICOM: 123.075
Skydive DeLand: 122.850

KDED Emergency/Guard (Archives)
DeLand, Florida, United States

Feed Status: UP
Listen in your browser - HTML5 player(in browser, HTML5)
Click here to listen with your own player(launches your MP3 player)

KDED 121615Z AUTO 26009G15KT 230V300 10SM CLR 24/09 A3013 RMK AO2 T02370085

KDED Airport Info (Airnav.com)

KDED Flight Activity (Flightaware)

Listeners: 0 out of 2995 total

Emergency/Guard: 121.500

KDLH Gnd/Twr/App (Archives)
Duluth, Minnesota, United States

Feed Status: UP
Listen in your browser - HTML5 player(in browser, HTML5)
Click here to listen with your own player(launches your MP3 player)

KDLH 121555Z 33017G24KT 10SM BKN016 08/02 A2995 RMK AO2 SLP153 T00830017

KDLH Airport Info (Airnav.com)

KDLH Flight Activity (Flightaware)

Listeners: 2 out of 2995 total

Duluth Approach/Departure: 125.450
Duluth Ground: 121.900
Duluth Tower: 118.300

KDMW AWOS #1 (Archives)
Westminster, Maryland, United States

Feed Status: UP
Listen in your browser - HTML5 player(in browser, HTML5)
Click here to listen with your own player(launches your MP3 player)

KDMW 121605Z AUTO 24021G27KT 10SM SCT042 SCT050 16/06 A2945 RMK AO2

KDMW Airport Info (Airnav.com)

KDMW Flight Activity (Flightaware)

Listeners: 0 out of 2995 total

Carroll County AWOS: 121.250

KDMW AWOS #2 (Archives)
Westminster, Maryland, United States

Feed Status: UP
Listen in your browser - HTML5 player(in browser, HTML5)
Click here to listen with your own player(launches your MP3 player)

KDMW 121605Z AUTO 24021G27KT 10SM SCT042 SCT050 16/06 A2945 RMK AO2

KDMW Airport Info (Airnav.com)

KDMW Flight Activity (Flightaware)

Listeners: 0 out of 2995 total

Carroll County AWOS: 121.250

KDMW CTAF #1 (Archives)
Westminster, Maryland, United States

Feed Status: UP
Listen in your browser - HTML5 player(in browser, HTML5)
Click here to listen with your own player(launches your MP3 player)

KDMW 121605Z AUTO 24021G27KT 10SM SCT042 SCT050 16/06 A2945 RMK AO2

KDMW Airport Info (Airnav.com)

KDMW Flight Activity (Flightaware)

Listeners: 1 out of 2995 total

Carroll County CTAF: 122.700

KDMW CTAF #2 (Archives)
Westminster, Maryland, United States

Feed Status: UP
Listen in your browser - HTML5 player(in browser, HTML5)
Click here to listen with your own player(launches your MP3 player)

KDMW 121605Z AUTO 24021G27KT 10SM SCT042 SCT050 16/06 A2945 RMK AO2

KDMW Airport Info (Airnav.com)

KDMW Flight Activity (Flightaware)

Listeners: 0 out of 2995 total

Carroll County CTAF: 122.700

KDMW Emergency/Guard #1 (Archives)
Westminster, Maryland, United States

Feed Status: UP
Listen in your browser - HTML5 player(in browser, HTML5)
Click here to listen with your own player(launches your MP3 player)

KDMW 121605Z AUTO 24021G27KT 10SM SCT042 SCT050 16/06 A2945 RMK AO2

KDMW Airport Info (Airnav.com)

KDMW Flight Activity (Flightaware)

Listeners: 0 out of 2995 total

Emergency/Guard: 121.500

KDMW Emergency/Guard #2 (Archives)
Westminster, Maryland, United States

Feed Status: UP
Listen in your browser - HTML5 player(in browser, HTML5)
Click here to listen with your own player(launches your MP3 player)

KDMW 121605Z AUTO 24021G27KT 10SM SCT042 SCT050 16/06 A2945 RMK AO2

KDMW Airport Info (Airnav.com)

KDMW Flight Activity (Flightaware)

Listeners: 0 out of 2995 total

Emergency/Guard: 121.500

KDOV ATIS (Archives)
Dover, Delaware, United States

Feed Status: UP
Listen in your browser - HTML5 player(in browser, HTML5)
Click here to listen with your own player(launches your MP3 player)

KDOV 121555Z AUTO 26018G23KT 10SM BKN065 BKN140 OVC160 15/10 A2944 RMK AO2 RAE15RAB18E28DZB28E30 SLP973 P0002 T01510101

KDOV Airport Info (Airnav.com)

KDOV Flight Activity (Flightaware)

Listeners: 0 out of 2995 total

Dover ATIS: 127.825

KDOV Del/Gnd/Twr/App (Archives)
Dover, Delaware, United States

Feed Status: UP
Listen in your browser - HTML5 player(in browser, HTML5)
Click here to listen with your own player(launches your MP3 player)

KDOV 121555Z AUTO 26018G23KT 10SM BKN065 BKN140 OVC160 15/10 A2944 RMK AO2 RAE15RAB18E28DZB28E30 SLP973 P0002 T01510101

KDOV Airport Info (Airnav.com)

KDOV Flight Activity (Flightaware)

Listeners: 1 out of 2995 total

Dover Approach/Departure: 132.425
Dover Approach/Departure: 132.425
Dover Clearance Delivery: 118.050
Dover Clearance Delivery: 125.550
Dover Ground: 118.875
Dover Tower: 126.350

KDOV Gnd/App (Archives)
Dover, Delaware, United States

Feed Status: UP
Listen in your browser - HTML5 player(in browser, HTML5)
Click here to listen with your own player(launches your MP3 player)

KDOV 121555Z AUTO 26018G23KT 10SM BKN065 BKN140 OVC160 15/10 A2944 RMK AO2 RAE15RAB18E28DZB28E30 SLP973 P0002 T01510101

KDOV Airport Info (Airnav.com)

KDOV Flight Activity (Flightaware)

Listeners: 0 out of 2995 total

Dover Approach/Departure: 132.425
Dover Ground: 118.875

KDOV Tower (Archives)
Dover, Delaware, United States

Feed Status: UP
Listen in your browser - HTML5 player(in browser, HTML5)
Click here to listen with your own player(launches your MP3 player)

KDOV 121555Z AUTO 26018G23KT 10SM BKN065 BKN140 OVC160 15/10 A2944 RMK AO2 RAE15RAB18E28DZB28E30 SLP973 P0002 T01510101

KDOV Airport Info (Airnav.com)

KDOV Flight Activity (Flightaware)

Listeners: 0 out of 2995 total

Dover Tower: 126.350

KDPA ATIS (Archives)
Chicago, Illinois, United States

Feed Status: UP
Listen in your browser - HTML5 player(in browser, HTML5)
Click here to listen with your own player(launches your MP3 player)

KDPA 121552Z 31021G31KT 10SM FEW042 14/05 A2975 RMK AO2 PK WND 30031/1536 SLP076 T01440050

KDPA Airport Info (Airnav.com)

KDPA Flight Activity (Flightaware)

Listeners: 0 out of 2995 total

DuPage ATIS: 132.075

KDPA Chicago Approach (Archives)
Chicago, Illinois, United States

Feed Status: UP
Listen in your browser - HTML5 player(in browser, HTML5)
Click here to listen with your own player(launches your MP3 player)

KORD 121551Z 31019G29KT 10SM BKN044 BKN250 15/05 A2972 RMK AO2 PK WND 32033/1458 SLP065 T01500050

KORD Airport Info (Airnav.com)

KORD Flight Activity (Flightaware)

Listeners: 0 out of 2995 total

Chicago Approach/Departure: 133.500

KDPA Del/Gnd/Twr/Misc (Archives)
Chicago, Illinois, United States

Feed Status: UP
Listen in your browser - HTML5 player(in browser, HTML5)
Click here to listen with your own player(launches your MP3 player)

KDPA 121552Z 31021G31KT 10SM FEW042 14/05 A2975 RMK AO2 PK WND 30031/1536 SLP076 T01440050

KDPA Airport Info (Airnav.com)

KDPA Flight Activity (Flightaware)

Listeners: 0 out of 2995 total

DuPage Clearance Delivery: 119.750
DuPage Flight Center (FBO): 464.375
DuPage Ground: 121.800
DuPage Ground Operations: 469.5875
DuPage Ground Operations: 453.225
DuPage Ground Operations (Airport Authority): 453.500
DuPage Tower: 120.900
DuPage UNICOM ("Flight Center"): 122.950
Flight Service Station (FSS) RCO: 122.550

KDTO ASOS (Archives)
Denton, Texas, United States

Feed Status: UP
Listen in your browser - HTML5 player(in browser, HTML5)
Click here to listen with your own player(launches your MP3 player)

KDTO 121553Z 20010KT 10SM CLR 21/09 A3026 RMK AO2 SLP243 T02110094

KDTO Airport Info (Airnav.com)

KDTO Flight Activity (Flightaware)

Listeners: 0 out of 2995 total

Denton ASOS: 119.325

KDTO Gnd/Twr (Archives)
Denton, Texas, United States

Feed Status: UP
Listen in your browser - HTML5 player(in browser, HTML5)
Click here to listen with your own player(launches your MP3 player)

KDTO 121553Z 20010KT 10SM CLR 21/09 A3026 RMK AO2 SLP243 T02110094

KDTO Airport Info (Airnav.com)

KDTO Flight Activity (Flightaware)

Listeners: 1 out of 2995 total

Denton Ground: 123.950
Denton Tower: 119.950

KDTO Tower (Archives)
Denton, Texas, United States

Feed Status: UP
Listen in your browser - HTML5 player(in browser, HTML5)
Click here to listen with your own player(launches your MP3 player)

KDTO 121553Z 20010KT 10SM CLR 21/09 A3026 RMK AO2 SLP243 T02110094

KDTO Airport Info (Airnav.com)

KDTO Flight Activity (Flightaware)

Listeners: 0 out of 2995 total

Denton Tower: 119.950

KDVO CTAF (Archives)
Novato, California, United States

Feed Status: UP
Listen in your browser - HTML5 player(in browser, HTML5)
Click here to listen with your own player(launches your MP3 player)

KDVO 121615Z AUTO 30007KT 10SM CLR 14/08 A2972 RMK AO2

KDVO Airport Info (Airnav.com)

KDVO Flight Activity (Flightaware)

Listeners: 0 out of 2995 total

Novato CTAF: 123.075

KDVT ATIS (Archives)
Phoenix, Arizona, United States

Feed Status: UP
Listen in your browser - HTML5 player(in browser, HTML5)
Click here to listen with your own player(launches your MP3 player)

KDVT 121553Z VRB03KT 10SM CLR 23/02 A2988 RMK AO2 SLP100 T02280022

KDVT Airport Info (Airnav.com)

KDVT Flight Activity (Flightaware)

Listeners: 0 out of 2995 total

Deer Valley ATIS: 126.500

KDVT Clearance Delivery (Archives)
Phoenix, Arizona, United States

Feed Status: UP
Listen in your browser - HTML5 player(in browser, HTML5)
Click here to listen with your own player(launches your MP3 player)

KDVT 121553Z VRB03KT 10SM CLR 23/02 A2988 RMK AO2 SLP100 T02280022

KDVT Airport Info (Airnav.com)

KDVT Flight Activity (Flightaware)

Listeners: 0 out of 2995 total

Deer Valley Clearance Delivery: 123.900

KDVT Delivery/Ground (Archives)
Phoenix, Arizona, United States

Feed Status: UP
Listen in your browser - HTML5 player(in browser, HTML5)
Click here to listen with your own player(launches your MP3 player)

KDVT 121553Z VRB03KT 10SM CLR 23/02 A2988 RMK AO2 SLP100 T02280022

KDVT Airport Info (Airnav.com)

KDVT Flight Activity (Flightaware)

Listeners: 0 out of 2995 total

Deer Valley Clearance Delivery: 123.900
Deer Valley Ground: 121.800

KDVT Ground (Archives)
Phoenix, Arizona, United States

Feed Status: UP
Listen in your browser - HTML5 player(in browser, HTML5)
Click here to listen with your own player(launches your MP3 player)

KDVT 121553Z VRB03KT 10SM CLR 23/02 A2988 RMK AO2 SLP100 T02280022

KDVT Airport Info (Airnav.com)

KDVT Flight Activity (Flightaware)

Listeners: 0 out of 2995 total

Deer Valley Ground: 121.800

KDVT Tower (Both) (Archives)
Phoenix, Arizona, United States

Feed Status: UP
Listen in your browser - HTML5 player(in browser, HTML5)
Click here to listen with your own player(launches your MP3 player)

KDVT 121553Z VRB03KT 10SM CLR 23/02 A2988 RMK AO2 SLP100 T02280022

KDVT Airport Info (Airnav.com)

KDVT Flight Activity (Flightaware)

Listeners: 0 out of 2995 total

Deer Valley Tower (North): 120.200
Deer Valley Tower (South): 118.400

KDVT Tower (North) (Archives)
Phoenix, Arizona, United States

Feed Status: UP
Listen in your browser - HTML5 player(in browser, HTML5)
Click here to listen with your own player(launches your MP3 player)

KDVT 121553Z VRB03KT 10SM CLR 23/02 A2988 RMK AO2 SLP100 T02280022

KDVT Airport Info (Airnav.com)

KDVT Flight Activity (Flightaware)

Listeners: 1 out of 2995 total

Deer Valley Tower (North): 120.200

KDVT Tower (South) (Archives)
Phoenix, Arizona, United States

Feed Status: UP
Listen in your browser - HTML5 player(in browser, HTML5)
Click here to listen with your own player(launches your MP3 player)

KDVT 121553Z VRB03KT 10SM CLR 23/02 A2988 RMK AO2 SLP100 T02280022

KDVT Airport Info (Airnav.com)

KDVT Flight Activity (Flightaware)

Listeners: 4 out of 2995 total

Deer Valley Tower (South): 118.400

KDWH Del/ Gnd/Twr (Archives)
Houston, Texas, United States

Feed Status: UP
Listen in your browser - HTML5 player(in browser, HTML5)
Click here to listen with your own player(launches your MP3 player)

KDWH 121553Z 13007KT 10SM CLR 24/07 A3030 RMK AO2 SLP259 T02390072 $

KDWH Airport Info (Airnav.com)

KDWH Flight Activity (Flightaware)

Listeners: 3 out of 2995 total

Hooks Clearance Delivery: 119.450
Hooks Ground: 121.800
Hooks Tower (E): 127.400
Hooks Tower (W): 118.400
Hooks UNICOM: 122.950

KDXR ATIS (Archives)
Danbury, Connecticut, United States

Feed Status: UP
Listen in your browser - HTML5 player(in browser, HTML5)
Click here to listen with your own player(launches your MP3 player)

KDXR 121628Z 13011KT 4SM BR OVC002 16/14 A2931 RMK AO2 T01560139

KDXR Airport Info (Airnav.com)

KDXR Flight Activity (Flightaware)

Listeners: 0 out of 2995 total

Danbury ATIS: 127.750

KDXR Ground/Tower (Archives)
Danbury, Connecticut, United States

Feed Status: UP
Listen in your browser - HTML5 player(in browser, HTML5)
Click here to listen with your own player(launches your MP3 player)

KDXR 121628Z 13011KT 4SM BR OVC002 16/14 A2931 RMK AO2 T01560139

KDXR Airport Info (Airnav.com)

KDXR Flight Activity (Flightaware)

Listeners: 0 out of 2995 total

Danbury Ground: 121.600
Danbury Tower: 119.400

KDYB CTAF (Archives)
Summerville, South Carolina, United States

Feed Status: UP
Listen in your browser - HTML5 player(in browser, HTML5)
Click here to listen with your own player(launches your MP3 player)

KDYB 121615Z AUTO 25016G22KT 10SM CLR 20/08 A2991 RMK AO2

KDYB Airport Info (Airnav.com)

KDYB Flight Activity (Flightaware)

Listeners: 0 out of 2995 total

Summerville CTAF: 123.000

KDYL CTAF #1 (Archives)
Doylestown, Pennsylvania, United States

Feed Status: UP
Listen in your browser - HTML5 player(in browser, HTML5)
Click here to listen with your own player(launches your MP3 player)

KDYL 121603Z AUTO 24011G22KT 10SM FEW015 BKN041 OVC065 14/12 A2936 RMK AO2 T01440117

KDYL Airport Info (Airnav.com)

KDYL Flight Activity (Flightaware)

Listeners: 0 out of 2995 total

Doylestown CTAF/UNICOM: 122.975

KDYL CTAF #2 (Archives)
Doylestown, Pennsylvania, United States

Feed Status: UP
Listen in your browser - HTML5 player(in browser, HTML5)
Click here to listen with your own player(launches your MP3 player)

KDYL 121603Z AUTO 24011G22KT 10SM FEW015 BKN041 OVC065 14/12 A2936 RMK AO2 T01440117

KDYL Airport Info (Airnav.com)

KDYL Flight Activity (Flightaware)

Listeners: 0 out of 2995 total

Doylestown CTAF/UNICOM: 122.975

KEAR AWOS (Archives)
Kearney, Nebraska, United States

Feed Status: UP
Listen in your browser - HTML5 player(in browser, HTML5)
Click here to listen with your own player(launches your MP3 player)

KEAR 121556Z AUTO 16007KT 140V200 10SM CLR 13/M06 A3019 RMK AO2 SLP226 T01331056

KEAR Airport Info (Airnav.com)

KEAR Flight Activity (Flightaware)

Listeners: 1 out of 2995 total

Kearney AWOS: 123.875

KEAR Columbus Radio (Archives)
Kearney, Nebraska, United States

Feed Status: UP
Listen in your browser - HTML5 player(in browser, HTML5)
Click here to listen with your own player(launches your MP3 player)

KEAR 121556Z AUTO 16007KT 140V200 10SM CLR 13/M06 A3019 RMK AO2 SLP226 T01331056

KEAR Airport Info (Airnav.com)

KEAR Flight Activity (Flightaware)

Listeners: 2 out of 2995 total

Columbus Radio: 122.550

KEAR CTAF (Archives)
Kearney, Nebraska, United States

Feed Status: UP
Listen in your browser - HTML5 player(in browser, HTML5)
Click here to listen with your own player(launches your MP3 player)

KEAR 121556Z AUTO 16007KT 140V200 10SM CLR 13/M06 A3019 RMK AO2 SLP226 T01331056

KEAR Airport Info (Airnav.com)

KEAR Flight Activity (Flightaware)

Listeners: 1 out of 2995 total

Kearney CTAF: 123.000

KEAU Tower (Archives)
Eau Claire, Wisconsin, United States

Feed Status: UP
Listen in your browser - HTML5 player(in browser, HTML5)
Click here to listen with your own player(launches your MP3 player)

KEAU 121556Z 33012G26KT 10SM FEW038 13/02 A2991 RMK AO2 PK WND 33029/1533 SLP129 T01280017

KEAU Airport Info (Airnav.com)

KEAU Flight Activity (Flightaware)

Listeners: 0 out of 2995 total

Eau Claire Tower: 118.575

KEDC ATIS (Archives)
Austin, Texas, United States

Feed Status: UP
Listen in your browser - HTML5 player(in browser, HTML5)
Click here to listen with your own player(launches your MP3 player)

KEDC 121615Z AUTO 20007KT 5SM HZ CLR 22/11 A3028 RMK AO2

KEDC Airport Info (Airnav.com)

KEDC Flight Activity (Flightaware)

Listeners: 0 out of 2995 total

Executive ATIS/AWOS: 118.825

KEDC Austin App/Dep (Archives)
Austin, Texas, United States

Feed Status: UP
Listen in your browser - HTML5 player(in browser, HTML5)
Click here to listen with your own player(launches your MP3 player)

KEDC 121615Z AUTO 20007KT 5SM HZ CLR 22/11 A3028 RMK AO2

KEDC Airport Info (Airnav.com)

KEDC Flight Activity (Flightaware)

Listeners: 0 out of 2995 total

Auston Approach/Departure: 127.225

KEDC Clearance Delivery (Archives)
Austin, Texas, United States

Feed Status: UP
Listen in your browser - HTML5 player(in browser, HTML5)
Click here to listen with your own player(launches your MP3 player)

KEDC 121615Z AUTO 20007KT 5SM HZ CLR 22/11 A3028 RMK AO2

KEDC Airport Info (Airnav.com)

KEDC Flight Activity (Flightaware)

Listeners: 0 out of 2995 total

Executive Clearance Delivery (when Tower is closed): 126.025

KEDC Clearance/Ground (Archives)
Austin, Texas, United States

Feed Status: UP
Listen in your browser - HTML5 player(in browser, HTML5)
Click here to listen with your own player(launches your MP3 player)

KEDC 121615Z AUTO 20007KT 5SM HZ CLR 22/11 A3028 RMK AO2

KEDC Airport Info (Airnav.com)

KEDC Flight Activity (Flightaware)

Listeners: 0 out of 2995 total

Executive Clearance Delivery (when Tower is closed): 126.025
Executive Ground: 119.450

KEDC Del/Gnd/Twr (Archives)
Austin, Texas, United States

Feed Status: UP
Listen in your browser - HTML5 player(in browser, HTML5)
Click here to listen with your own player(launches your MP3 player)

KEDC 121615Z AUTO 20007KT 5SM HZ CLR 22/11 A3028 RMK AO2

KEDC Airport Info (Airnav.com)

KEDC Flight Activity (Flightaware)

Listeners: 0 out of 2995 total

Executive Ground: 119.450
Executive Tower: 120.300

KEDC Ground (Archives)
Austin, Texas, United States

Feed Status: UP
Listen in your browser - HTML5 player(in browser, HTML5)
Click here to listen with your own player(launches your MP3 player)

KEDC 121615Z AUTO 20007KT 5SM HZ CLR 22/11 A3028 RMK AO2

KEDC Airport Info (Airnav.com)

KEDC Flight Activity (Flightaware)

Listeners: 0 out of 2995 total

Executive Ground: 119.450

KEDC Ground/Tower (Archives)
Austin, Texas, United States

Feed Status: UP
Listen in your browser - HTML5 player(in browser, HTML5)
Click here to listen with your own player(launches your MP3 player)

KEDC 121615Z AUTO 20007KT 5SM HZ CLR 22/11 A3028 RMK AO2

KEDC Airport Info (Airnav.com)

KEDC Flight Activity (Flightaware)

Listeners: 0 out of 2995 total

Executive Ground: 119.450
Executive Tower: 120.300

KEDC Tower (Archives)
Austin, Texas, United States

Feed Status: UP
Listen in your browser - HTML5 player(in browser, HTML5)
Click here to listen with your own player(launches your MP3 player)

KEDC 121615Z AUTO 20007KT 5SM HZ CLR 22/11 A3028 RMK AO2

KEDC Airport Info (Airnav.com)

KEDC Flight Activity (Flightaware)

Listeners: 0 out of 2995 total

Executive Tower: 120.300

KEDU CTAF (Archives)
Davis, California, United States

Feed Status: UP
Listen in your browser - HTML5 player(in browser, HTML5)
Click here to listen with your own player(launches your MP3 player)

KEDU 121620Z AUTO 06010KT 10SM BKN090 14/07 A2966 RMK AO1

KEDU Airport Info (Airnav.com)

KEDU Flight Activity (Flightaware)

Listeners: 0 out of 2995 total

University CTAF: 123.075

KEEN CTAF (Archives)
Keene, New Hampshire, United States

Feed Status: UP
Listen in your browser - HTML5 player(in browser, HTML5)
Click here to listen with your own player(launches your MP3 player)

KMHT 121553Z 16016G26KT 5SM -RA BR BKN013 OVC018 18/16 A2943 RMK AO2 PK WND 16032/1522 RAE25B47 SLP977 P0000 T01780156

KMHT Airport Info (Airnav.com)

KMHT Flight Activity (Flightaware)

Listeners: 0 out of 2995 total

Keene CTAF: 123.000

MA/NH/RI/CT Area CTAF (Archives)
Keene, New Hampshire, United States

Feed Status: UP
Listen in your browser - HTML5 player(in browser, HTML5)
Click here to listen with your own player(launches your MP3 player)

KBOS 121606Z 18028G41KT 7SM BKN009 OVC015 16/14 A2946 RMK AO2 PK WND 17041/1602 T01610144 $

KBOS Airport Info (Airnav.com)

KBOS Flight Activity (Flightaware)

Listeners: 0 out of 2995 total

Air-to-Air: 122.750
Bridgeport Flight Service: 122.200
CTAF: 122.700
CTAF: 122.800
CTAF: 122.900
CTAF: 123.000
Emergency/Guard: 121.500

MA/NH/RI/CT Area CTAF (Archives)
Keene, New Hampshire, United States

Feed Status: UP
Listen in your browser - HTML5 player(in browser, HTML5)
Click here to listen with your own player(launches your MP3 player)

KBOS 121606Z 18028G41KT 7SM BKN009 OVC015 16/14 A2946 RMK AO2 PK WND 17041/1602 T01610144 $

KBOS Airport Info (Airnav.com)

KBOS Flight Activity (Flightaware)

Listeners: 0 out of 2995 total

Air-to-Air: 122.750
Bridgeport Flight Service: 122.200
CTAF: 122.700
CTAF: 122.800
CTAF: 122.900
CTAF: 123.000
Emergency/Guard: 121.500

MA/NH/RI/CT Area CTAF (Archives)
Keene, New Hampshire, United States

Feed Status: UP
Listen in your browser - HTML5 player(in browser, HTML5)
Click here to listen with your own player(launches your MP3 player)

KBOS 121606Z 18028G41KT 7SM BKN009 OVC015 16/14 A2946 RMK AO2 PK WND 17041/1602 T01610144 $

KBOS Airport Info (Airnav.com)

KBOS Flight Activity (Flightaware)

Listeners: 0 out of 2995 total

Air-to-Air: 122.750
Bridgeport Flight Service: 122.200
CTAF: 122.700
CTAF: 122.800
CTAF: 122.900
CTAF: 123.000
Emergency/Guard: 121.500

KEFD Tower (Archives)
Houston, Texas, United States

Feed Status: UP
Listen in your browser - HTML5 player(in browser, HTML5)
Click here to listen with your own player(launches your MP3 player)

KEFD 121554Z 08010G15KT 10SM CLR 23/05 A3030

KEFD Airport Info (Airnav.com)

KEFD Flight Activity (Flightaware)

Listeners: 0 out of 2995 total

Ellington Tower: 126.050

KFTG/KEIK/KBDU/KLMO/Misc (Archives)
Erie, Colorado, United States

Feed Status: UP
Listen in your browser - HTML5 player(in browser, HTML5)
Click here to listen with your own player(launches your MP3 player)

KDEN 121553Z 21009KT 10SM CLR 18/M06 A3010 RMK AO2 SLP153 T01831061

KDEN Airport Info (Airnav.com)

KDEN Flight Activity (Flightaware)

Listeners: 0 out of 2995 total

Air-to-Air Fixed Wing: 122.750
Air-to-Air Informal: 123.450
Boulder CTAF: 122.725
Erie CTAF: 123.000
Front Range Tower: 120.200
KBKF Tower: 121.000
Longmont CTAF: 122.975
MULTICOM: 122.900
UNICOM: 122.950

KELM App/Dep (Archives)
Elmira, New York, United States

Feed Status: UP
Listen in your browser - HTML5 player(in browser, HTML5)
Click here to listen with your own player(launches your MP3 player)

KELM 121553Z 25016G25KT 10SM OVC041 14/06 A2923 RMK AO2 PK WND 25032/1512 SLP897 T01440061

KELM Airport Info (Airnav.com)

KELM Flight Activity (Flightaware)

Listeners: 1 out of 2995 total

Elmira Approach/Departure: 128.425
Elmira Approach/Departure (Backup): 118.150
Elmira Approach/Departure (Ithica): 124.300

KELM ATIS (Archives)
Elmira, New York, United States

Feed Status: UP
Listen in your browser - HTML5 player(in browser, HTML5)
Click here to listen with your own player(launches your MP3 player)

KELM 121553Z 25016G25KT 10SM OVC041 14/06 A2923 RMK AO2 PK WND 25032/1512 SLP897 T01440061

KELM Airport Info (Airnav.com)

KELM Flight Activity (Flightaware)

Listeners: 0 out of 2995 total

Elmira ATIS: 125.475

KELM Del/Gnd/Twr/App (Archives)
Elmira, New York, United States

Feed Status: UP
Listen in your browser - HTML5 player(in browser, HTML5)
Click here to listen with your own player(launches your MP3 player)

KELM 121553Z 25016G25KT 10SM OVC041 14/06 A2923 RMK AO2 PK WND 25032/1512 SLP897 T01440061

KELM Airport Info (Airnav.com)

KELM Flight Activity (Flightaware)

Listeners: 0 out of 2995 total

Elmira Approach/Departure: 128.425
Elmira Approach/Departure (Backup): 118.150
Elmira Approach/Departure (Ithica): 124.300
Elmira Clearance Delivery/Ground: 121.900
Elmira Tower: 121.100

KELM Del/Ground (Archives)
Elmira, New York, United States

Feed Status: UP
Listen in your browser - HTML5 player(in browser, HTML5)
Click here to listen with your own player(launches your MP3 player)

KELM 121553Z 25016G25KT 10SM OVC041 14/06 A2923 RMK AO2 PK WND 25032/1512 SLP897 T01440061

KELM Airport Info (Airnav.com)

KELM Flight Activity (Flightaware)

Listeners: 0 out of 2995 total

Elmira Clearance Delivery/Ground: 121.900

KELM Emergency/Guard (Archives)
Elmira, New York, United States

Feed Status: UP
Listen in your browser - HTML5 player(in browser, HTML5)
Click here to listen with your own player(launches your MP3 player)

KELM 121553Z 25016G25KT 10SM OVC041 14/06 A2923 RMK AO2 PK WND 25032/1512 SLP897 T01440061

KELM Airport Info (Airnav.com)

KELM Flight Activity (Flightaware)

Listeners: 0 out of 2995 total

Emergency/Guard: 121.500

KELM Tower (Archives)
Elmira, New York, United States

Feed Status: UP
Listen in your browser - HTML5 player(in browser, HTML5)
Click here to listen with your own player(launches your MP3 player)

KELM 121553Z 25016G25KT 10SM OVC041 14/06 A2923 RMK AO2 PK WND 25032/1512 SLP897 T01440061

KELM Airport Info (Airnav.com)

KELM Flight Activity (Flightaware)

Listeners: 0 out of 2995 total

Elmira Tower: 121.100

KEMT Gnd/Twr (Archives)
El Monte, California, United States

Feed Status: UP
Listen in your browser - HTML5 player(in browser, HTML5)
Click here to listen with your own player(launches your MP3 player)

KEMT 121545Z 00000KT 3SM BR OVC009 13/11 A2988

KEMT Airport Info (Airnav.com)

KEMT Flight Activity (Flightaware)

Listeners: 0 out of 2995 total

El Monte Ground: 125.900
El Monte Tower: 121.200
Santa Fe Dam Practice Area: 123.300

KENW Ground/Tower (Archives)
Kenosha, Wisconsin, United States

Feed Status: UP
Listen in your browser - HTML5 player(in browser, HTML5)
Click here to listen with your own player(launches your MP3 player)

KENW 121553Z 32019G29KT 10SM CLR 16/05 A2971 RMK AO2 PK WND 31032/1504 SLP062 T01560050

KENW Airport Info (Airnav.com)

KENW Flight Activity (Flightaware)

Listeners: 0 out of 2995 total

Kenosha Ground: 121.875
Kenosha Tower: 118.600

KEST CTAF (Archives)
Estherville, Iowa, United States

Feed Status: UP
Listen in your browser - HTML5 player(in browser, HTML5)
Click here to listen with your own player(launches your MP3 player)

KEST 121552Z AUTO 35020G26KT 10SM CLR 12/00 A3009 RMK AO2 PK WND 34028/1509 SLP196 T01220000 $

KEST Airport Info (Airnav.com)

KEST Flight Activity (Flightaware)

Listeners: 0 out of 2995 total

Estherville CTAF: 122.975

KEUL CTAF (Archives)
Nampa, Idaho, United States

Feed Status: UP
Listen in your browser - HTML5 player(in browser, HTML5)
Click here to listen with your own player(launches your MP3 player)

KMAN 121615Z AUTO 15006G11KT 10SM CLR 16/08 A2977 RMK A01

KMAN Airport Info (Airnav.com)

KMAN Flight Activity (Flightaware)

Listeners: 0 out of 2995 total

Caldwell CTAF: 123.000

KEVB ATIS (Archives)
New Smyrna Beach, Florida, United States

Feed Status: UP
Listen in your browser - HTML5 player(in browser, HTML5)
Click here to listen with your own player(launches your MP3 player)

KEVB 121547Z 32013G20KT 10SM CLR 23/08 A3012

KEVB Airport Info (Airnav.com)

KEVB Flight Activity (Flightaware)

Listeners: 0 out of 2995 total

New Smyrna ATIS: 124.625

KEVB Gnd/Twr (Archives)
New Smyrna Beach, Florida, United States

Feed Status: UP
Listen in your browser - HTML5 player(in browser, HTML5)
Click here to listen with your own player(launches your MP3 player)

KEVB 121547Z 32013G20KT 10SM CLR 23/08 A3012

KEVB Airport Info (Airnav.com)

KEVB Flight Activity (Flightaware)

Listeners: 0 out of 2995 total

New Smyrna Ground: 121.325
New Smyrna Tower: 119.675

KEVB Ground (Archives)
New Smyrna Beach, Florida, United States

Feed Status: UP
Listen in your browser - HTML5 player(in browser, HTML5)
Click here to listen with your own player(launches your MP3 player)

KEVB 121547Z 32013G20KT 10SM CLR 23/08 A3012

KEVB Airport Info (Airnav.com)

KEVB Flight Activity (Flightaware)

Listeners: 0 out of 2995 total

New Smyrna Ground: 121.325

KEVB Tower (Archives)
New Smyrna Beach, Florida, United States

Feed Status: UP
Listen in your browser - HTML5 player(in browser, HTML5)
Click here to listen with your own player(launches your MP3 player)

KEVB 121547Z 32013G20KT 10SM CLR 23/08 A3012

KEVB Airport Info (Airnav.com)

KEVB Flight Activity (Flightaware)

Listeners: 0 out of 2995 total

New Smyrna Tower: 119.675

KFAR Tower (Archives)
Fargo, North Dakota, United States

Feed Status: UP
Listen in your browser - HTML5 player(in browser, HTML5)
Click here to listen with your own player(launches your MP3 player)

KFAR 121553Z 01004KT 10SM CLR 12/02 A3011 RMK AO2 SLP203 T01170017

KFAR Airport Info (Airnav.com)

KFAR Flight Activity (Flightaware)

Listeners: 4 out of 2995 total

Fargo Tower: 133.800

KFCM Tower (Archives)
Minneapolis, Minnesota, United States

Feed Status: UP
Listen in your browser - HTML5 player(in browser, HTML5)
Click here to listen with your own player(launches your MP3 player)

KFCM 121553Z 32016G25KT 10SM CLR 11/01 A3001 RMK AO2 SLP165 T01110011 $

KFCM Airport Info (Airnav.com)

KFCM Flight Activity (Flightaware)

Listeners: 2 out of 2995 total

Flying Cloud Tower: 119.150

KFDK ATIS (Archives)
Frederick, Maryland, United States

Feed Status: UP
Listen in your browser - HTML5 player(in browser, HTML5)
Click here to listen with your own player(launches your MP3 player)

KFDK 121547Z 25020G31KT 10SM SCT050 BKN120 18/07 A2948

KFDK Airport Info (Airnav.com)

KFDK Flight Activity (Flightaware)

Listeners: 0 out of 2995 total

Frederick ATIS: 124.875

KFDK Del/Gnd/Twr/CTAF #1 (Archives)
Frederick, Maryland, United States

Feed Status: UP
Listen in your browser - HTML5 player(in browser, HTML5)
Click here to listen with your own player(launches your MP3 player)

KFDK 121547Z 25020G31KT 10SM SCT050 BKN120 18/07 A2948

KFDK Airport Info (Airnav.com)

KFDK Flight Activity (Flightaware)

Listeners: 1 out of 2995 total

Clearance Delivery (Potomac Approach): 126.900
Frederick Ground: 121.975
Frederick Tower/CTAF: 132.400

KFFC CTAF (Archives)
Atlanta, Georgia, United States

Feed Status: UP
Listen in your browser - HTML5 player(in browser, HTML5)
Click here to listen with your own player(launches your MP3 player)

KCCO 121615Z AUTO 31010G19KT 10SM CLR 18/M03 A3007 RMK AO2 T01761026

KCCO Airport Info (Airnav.com)

KCCO Flight Activity (Flightaware)

Listeners: 0 out of 2995 total

Falcon CTAF: 123.050

KFFZ ATIS (Archives)
Mesa, Arizona, United States

Feed Status: UP
Listen in your browser - HTML5 player(in browser, HTML5)
Click here to listen with your own player(launches your MP3 player)

KFFZ Airport Info (Airnav.com)

KFFZ Flight Activity (Flightaware)

Listeners: 1 out of 2995 total

Falcon ATIS: 118.250

KFFZ Ground (Archives)
Mesa, Arizona, United States

Feed Status: UP
Listen in your browser - HTML5 player(in browser, HTML5)
Click here to listen with your own player(launches your MP3 player)

KFFZ Airport Info (Airnav.com)

KFFZ Flight Activity (Flightaware)

Listeners: 0 out of 2995 total

Falcon Ground: 121.300

KFFZ Twr #1 (Archives)
Mesa, Arizona, United States

Feed Status: UP
Listen in your browser - HTML5 player(in browser, HTML5)
Click here to listen with your own player(launches your MP3 player)

KFFZ Airport Info (Airnav.com)

KFFZ Flight Activity (Flightaware)

Listeners: 3 out of 2995 total

Falcon Tower (North, 4L/22R): 119.700
Falcon Tower (South)/CTAF: 124.600

KFFZ Twr (North) (Archives)
Mesa, Arizona, United States

Feed Status: UP
Listen in your browser - HTML5 player(in browser, HTML5)
Click here to listen with your own player(launches your MP3 player)

KFFZ Airport Info (Airnav.com)

KFFZ Flight Activity (Flightaware)

Listeners: 0 out of 2995 total

Falcon Tower (North, 4L/22R): 119.700

KFFZ Twr (South)/CTAF (Archives)
Mesa, Arizona, United States

Feed Status: UP
Listen in your browser - HTML5 player(in browser, HTML5)
Click here to listen with your own player(launches your MP3 player)

KFFZ Airport Info (Airnav.com)

KFFZ Flight Activity (Flightaware)

Listeners: 1 out of 2995 total

Falcon Tower (South)/CTAF: 124.600

KFHU Gnd/Twr/Radar (Archives)
Fort Huachuca/Sierra Vista, Arizona, United States

Feed Status: UP
Listen in your browser - HTML5 player(in browser, HTML5)
Click here to listen with your own player(launches your MP3 player)

KFHU 121611Z AUTO 13020G26KT 10SM CLR 22/M02 A3007 RMK AO2 PRESRR SLP124

KFHU Airport Info (Airnav.com)

KFHU Flight Activity (Flightaware)

Listeners: 0 out of 2995 total

Libby AAF GCA Radar: 127.050
Libby AAF GCA Radar: 254.350
Libby Ground: 121.700
Libby Ground: 268.700
Libby Tower: 124.950
Libby Tower: 284.750

KCON/KDAW/KFIT CTAF (Archives)
Fitchburg, Massachusetts, United States

Feed Status: UP
Listen in your browser - HTML5 player(in browser, HTML5)
Click here to listen with your own player(launches your MP3 player)

KMHT 121553Z 16016G26KT 5SM -RA BR BKN013 OVC018 18/16 A2943 RMK AO2 PK WND 16032/1522 RAE25B47 SLP977 P0000 T01780156

KMHT Airport Info (Airnav.com)

KMHT Flight Activity (Flightaware)

Listeners: 0 out of 2995 total

NH/MA Area CTAF: 122.700

KFIT CTAF
Fitchburg, Massachusetts, United States

Feed Status: DOWN
Offline since: 2023-12-28 14:59:39 UTC

KFIT 121552Z AUTO 15012G20KT 10SM OVC009 16/14 A2943 RMK AO2 PK WND 14028/1453 RAB05E33 CIG 006V014 SLP965 P0001 T01610144

KFIT Airport Info (Airnav.com)

Emergency/Guard: 121.500
Fitchburg CTAF/UNICOM: 122.700

MA/NH/RI/CT Area CTAF (Archives)
Fitchburg, Massachusetts, United States

Feed Status: UP
Listen in your browser - HTML5 player(in browser, HTML5)
Click here to listen with your own player(launches your MP3 player)

KBOS 121606Z 18028G41KT 7SM BKN009 OVC015 16/14 A2946 RMK AO2 PK WND 17041/1602 T01610144 $

KBOS Airport Info (Airnav.com)

KBOS Flight Activity (Flightaware)

Listeners: 0 out of 2995 total

Air-to-Air: 122.750
Bridgeport Flight Service: 122.200
CTAF: 122.700
CTAF: 122.800
CTAF: 122.900
CTAF: 123.000
Emergency/Guard: 121.500

MA/NH/RI/CT Area CTAF (Archives)
Fitchburg, Massachusetts, United States

Feed Status: UP
Listen in your browser - HTML5 player(in browser, HTML5)
Click here to listen with your own player(launches your MP3 player)

KBOS 121606Z 18028G41KT 7SM BKN009 OVC015 16/14 A2946 RMK AO2 PK WND 17041/1602 T01610144 $

KBOS Airport Info (Airnav.com)

KBOS Flight Activity (Flightaware)

Listeners: 0 out of 2995 total

Air-to-Air: 122.750
Bridgeport Flight Service: 122.200
CTAF: 122.700
CTAF: 122.800
CTAF: 122.900
CTAF: 123.000
Emergency/Guard: 121.500

MA/NH/RI/CT Area CTAF (Archives)
Fitchburg, Massachusetts, United States

Feed Status: UP
Listen in your browser - HTML5 player(in browser, HTML5)
Click here to listen with your own player(launches your MP3 player)

KBOS 121606Z 18028G41KT 7SM BKN009 OVC015 16/14 A2946 RMK AO2 PK WND 17041/1602 T01610144 $

KBOS Airport Info (Airnav.com)

KBOS Flight Activity (Flightaware)

Listeners: 0 out of 2995 total

Air-to-Air: 122.750
Bridgeport Flight Service: 122.200
CTAF: 122.700
CTAF: 122.800
CTAF: 122.900
CTAF: 123.000
Emergency/Guard: 121.500

KFKA CTAF (Archives)
Preston, Minnesota, United States

Feed Status: UP
Listen in your browser - HTML5 player(in browser, HTML5)
Click here to listen with your own player(launches your MP3 player)

KFKA 121615Z AUTO 32023G30KT 10SM SCT040 11/03 A2996 RMK AO2

KFKA Airport Info (Airnav.com)

KFKA Flight Activity (Flightaware)

Listeners: 0 out of 2995 total

Preston CTAF: 122.900

KFLG Ground/Tower (Archives)
Flagstaff, Arizona, United States

Feed Status: UP
Listen in your browser - HTML5 player(in browser, HTML5)
Click here to listen with your own player(launches your MP3 player)

KFLG 121557Z 00000KT 10SM CLR 16/M04 A3011 RMK AO2 SLP126 T01561039

KFLG Airport Info (Airnav.com)

KFLG Flight Activity (Flightaware)

Listeners: 0 out of 2995 total

Flagstaff Ground: 121.900
Flagstaff Tower: 134.550

KFLO App/Dep (Archives)
Florence, South Carolina, United States

Feed Status: UP
Listen in your browser - HTML5 player(in browser, HTML5)
Click here to listen with your own player(launches your MP3 player)

KFLO 121553Z 26021G28KT 10SM SCT049 SCT055 21/09 A2984 RMK AO2 PK WND 23032/1503 SLP102 T02060089

KFLO Airport Info (Airnav.com)

KFLO Flight Activity (Flightaware)

Listeners: 0 out of 2995 total

Florence Approach: 135.250
Florence Approach: 118.600

KFLO ATIS (Archives)
Florence, South Carolina, United States

Feed Status: UP
Listen in your browser - HTML5 player(in browser, HTML5)
Click here to listen with your own player(launches your MP3 player)

KFLO 121553Z 26021G28KT 10SM SCT049 SCT055 21/09 A2984 RMK AO2 PK WND 23032/1503 SLP102 T02060089

KFLO Airport Info (Airnav.com)

KFLO Flight Activity (Flightaware)

Listeners: 0 out of 2995 total

Florence ATIS: 123.625

KFLO Emergency/Guard (Archives)
Florence, South Carolina, United States

Feed Status: UP
Listen in your browser - HTML5 player(in browser, HTML5)
Click here to listen with your own player(launches your MP3 player)

KFLO 121553Z 26021G28KT 10SM SCT049 SCT055 21/09 A2984 RMK AO2 PK WND 23032/1503 SLP102 T02060089

KFLO Airport Info (Airnav.com)

KFLO Flight Activity (Flightaware)

Listeners: 0 out of 2995 total

Emergency/Guard: 121.500

KFLO Gnd/Twr/App
Florence, South Carolina, United States

Feed Status: DOWN
Offline since: 2024-04-09 13:15:39 UTC

KFLO 121553Z 26021G28KT 10SM SCT049 SCT055 21/09 A2984 RMK AO2 PK WND 23032/1503 SLP102 T02060089

KFLO Airport Info (Airnav.com)

Florence Approach: 118.600
Florence Approach: 135.250
Florence Ground: 121.900
Florence Tower: 125.100

KFLO Ground (Archives)
Florence, South Carolina, United States

Feed Status: UP
Listen in your browser - HTML5 player(in browser, HTML5)
Click here to listen with your own player(launches your MP3 player)

KFLO 121553Z 26021G28KT 10SM SCT049 SCT055 21/09 A2984 RMK AO2 PK WND 23032/1503 SLP102 T02060089

KFLO Airport Info (Airnav.com)

KFLO Flight Activity (Flightaware)

Listeners: 0 out of 2995 total

Florence Ground: 121.900

KFLO Tower (Archives)
Florence, South Carolina, United States

Feed Status: UP
Listen in your browser - HTML5 player(in browser, HTML5)
Click here to listen with your own player(launches your MP3 player)

KFLO 121553Z 26021G28KT 10SM SCT049 SCT055 21/09 A2984 RMK AO2 PK WND 23032/1503 SLP102 T02060089

KFLO Airport Info (Airnav.com)

KFLO Flight Activity (Flightaware)

Listeners: 0 out of 2995 total

Florence Tower: 125.100

Boston Approach (Cape North) (Archives)
Falmouth, Massachusetts, United States

Feed Status: UP
Listen in your browser - HTML5 player(in browser, HTML5)
Click here to listen with your own player(launches your MP3 player)

KFMH 121556Z 18028G38KT 2SM BR OVC003 13/13 A2953

KFMH Airport Info (Airnav.com)

KFMH Flight Activity (Flightaware)

Listeners: 0 out of 2995 total

Boston Approach (Cape North Arrival): 118.200

Boston Approach (OTIS Arrival) (Archives)
Falmouth, Massachusetts, United States

Feed Status: UP
Listen in your browser - HTML5 player(in browser, HTML5)
Click here to listen with your own player(launches your MP3 player)

KFMH 121556Z 18028G38KT 2SM BR OVC003 13/13 A2953

KFMH Airport Info (Airnav.com)

KFMH Flight Activity (Flightaware)

Listeners: 0 out of 2995 total

Boston Approach (OTIS Arrival): 126.300

KFMH ATIS (Archives)
Falmouth, Massachusetts, United States

Feed Status: UP
Listen in your browser - HTML5 player(in browser, HTML5)
Click here to listen with your own player(launches your MP3 player)

KFMH 121556Z 18028G38KT 2SM BR OVC003 13/13 A2953

KFMH Airport Info (Airnav.com)

KFMH Flight Activity (Flightaware)

Listeners: 0 out of 2995 total

Coast Guard ATIS: 120.475

KFMH Ground (Archives)
Falmouth, Massachusetts, United States

Feed Status: UP
Listen in your browser - HTML5 player(in browser, HTML5)
Click here to listen with your own player(launches your MP3 player)

KFMH 121556Z 18028G38KT 2SM BR OVC003 13/13 A2953

KFMH Airport Info (Airnav.com)

KFMH Flight Activity (Flightaware)

Listeners: 0 out of 2995 total

Coast Guard Ground: 124.150

KFMH Tower (Archives)
Falmouth, Massachusetts, United States

Feed Status: UP
Listen in your browser - HTML5 player(in browser, HTML5)
Click here to listen with your own player(launches your MP3 player)

KFMH 121556Z 18028G38KT 2SM BR OVC003 13/13 A2953

KFMH Airport Info (Airnav.com)

KFMH Flight Activity (Flightaware)

Listeners: 0 out of 2995 total

Coast Guard Tower: 128.425

KFMN Gnd/Twr/App
Farmington, New Mexico, United States

Feed Status: DOWN
Offline since: 2024-04-08 18:31:22 UTC

KFMN 121553Z 11011KT 10SM CLR 16/M09 A3013 RMK AO2 SLP177 T01611094

KFMN Airport Info (Airnav.com)

Denver Center (Sector 36 Farmington Low): 118.575
Emergency/Guard: 121.500
Farmington Ground: 121.700
Farmington Tower: 118.900

KFMY ATIS (Archives)
Fort Myers, Florida, United States

Feed Status: UP
Listen in your browser - HTML5 player(in browser, HTML5)
Click here to listen with your own player(launches your MP3 player)

KFMY 121553Z 05011G18KT 10SM CLR 24/11 A3017 RMK AO2 SLP218 T02390106

KFMY Airport Info (Airnav.com)

KFMY Flight Activity (Flightaware)

Listeners: 0 out of 2995 total

Page ATIS: 123.725

KFMY Emergency/Guard (Archives)
Fort Myers, Florida, United States

Feed Status: UP
Listen in your browser - HTML5 player(in browser, HTML5)
Click here to listen with your own player(launches your MP3 player)

KFMY 121553Z 05011G18KT 10SM CLR 24/11 A3017 RMK AO2 SLP218 T02390106

KFMY Airport Info (Airnav.com)

KFMY Flight Activity (Flightaware)

Listeners: 0 out of 2995 total

Emergency/Guard: 121.500

KFMY Ground #1 (Archives)
Fort Myers, Florida, United States

Feed Status: UP
Listen in your browser - HTML5 player(in browser, HTML5)
Click here to listen with your own player(launches your MP3 player)

KFMY 121553Z 05011G18KT 10SM CLR 24/11 A3017 RMK AO2 SLP218 T02390106

KFMY Airport Info (Airnav.com)

KFMY Flight Activity (Flightaware)

Listeners: 0 out of 2995 total

Page Clearance/Ground: 121.700

KFMY Ground #2 (Archives)
Fort Myers, Florida, United States

Feed Status: UP
Listen in your browser - HTML5 player(in browser, HTML5)
Click here to listen with your own player(launches your MP3 player)

KFMY 121553Z 05011G18KT 10SM CLR 24/11 A3017 RMK AO2 SLP218 T02390106

KFMY Airport Info (Airnav.com)

KFMY Flight Activity (Flightaware)

Listeners: 0 out of 2995 total

Page Clearance/Ground: 121.700

KFMY Ground/Tower (Archives)
Fort Myers, Florida, United States

Feed Status: UP
Listen in your browser - HTML5 player(in browser, HTML5)
Click here to listen with your own player(launches your MP3 player)

KFMY 121553Z 05011G18KT 10SM CLR 24/11 A3017 RMK AO2 SLP218 T02390106

KFMY Airport Info (Airnav.com)

KFMY Flight Activity (Flightaware)

Listeners: 0 out of 2995 total

Page Clearance/Ground: 121.700
Page Tower: 119.000

KFMY Tower (Archives)
Fort Myers, Florida, United States

Feed Status: UP
Listen in your browser - HTML5 player(in browser, HTML5)
Click here to listen with your own player(launches your MP3 player)

KFMY 121553Z 05011G18KT 10SM CLR 24/11 A3017 RMK AO2 SLP218 T02390106

KFMY Airport Info (Airnav.com)

KFMY Flight Activity (Flightaware)

Listeners: 0 out of 2995 total

Page Tower: 119.000

KFNL ASRI (FBO) (Archives)
Fort Collins/Loveland, Colorado, United States

Feed Status: UP
Listen in your browser - HTML5 player(in browser, HTML5)
Click here to listen with your own player(launches your MP3 player)

KFNL 121556Z 24003KT 10SM CLR 12/M03 A3010 RMK AO2 SLP168 T01171033

KFNL Airport Info (Airnav.com)

KFNL Flight Activity (Flightaware)

Listeners: 0 out of 2995 total

Fort Collins ASRI (FBO): 130.575

KFNL Ground (Archives)
Fort Collins/Loveland, Colorado, United States

Feed Status: UP
Listen in your browser - HTML5 player(in browser, HTML5)
Click here to listen with your own player(launches your MP3 player)

KFNL 121556Z 24003KT 10SM CLR 12/M03 A3010 RMK AO2 SLP168 T01171033

KFNL Airport Info (Airnav.com)

KFNL Flight Activity (Flightaware)

Listeners: 0 out of 2995 total

Fort Collins Ground: 121.650

KFNL Ground/Tower (Archives)
Fort Collins/Loveland, Colorado, United States

Feed Status: UP
Listen in your browser - HTML5 player(in browser, HTML5)
Click here to listen with your own player(launches your MP3 player)

KFNL 121556Z 24003KT 10SM CLR 12/M03 A3010 RMK AO2 SLP168 T01171033

KFNL Airport Info (Airnav.com)

KFNL Flight Activity (Flightaware)

Listeners: 0 out of 2995 total

Fort Collins Ground: 121.650
Fort Collins Tower/CTAF: 118.400

KFNL Tower/CTAF (Archives)
Fort Collins/Loveland, Colorado, United States

Feed Status: UP
Listen in your browser - HTML5 player(in browser, HTML5)
Click here to listen with your own player(launches your MP3 player)

KFNL 121556Z 24003KT 10SM CLR 12/M03 A3010 RMK AO2 SLP168 T01171033

KFNL Airport Info (Airnav.com)

KFNL Flight Activity (Flightaware)

Listeners: 0 out of 2995 total

Fort Collins Tower/CTAF: 118.400

KFPR ATIS (Archives)
Fort Pierce, Florida, United States

Feed Status: UP
Listen in your browser - HTML5 player(in browser, HTML5)
Click here to listen with your own player(launches your MP3 player)

KFPR 121553Z 33012G18KT 300V050 10SM CLR 24/09 A3015 RMK AO2 SLP209 T02440089

KFPR Airport Info (Airnav.com)

KFPR Flight Activity (Flightaware)

Listeners: 0 out of 2995 total

Fort Pierce ATIS: 134.825

KFPR Ground (Archives)
Fort Pierce, Florida, United States

Feed Status: UP
Listen in your browser - HTML5 player(in browser, HTML5)
Click here to listen with your own player(launches your MP3 player)

KFPR 121553Z 33012G18KT 300V050 10SM CLR 24/09 A3015 RMK AO2 SLP209 T02440089

KFPR Airport Info (Airnav.com)

KFPR Flight Activity (Flightaware)

Listeners: 0 out of 2995 total

Ft Pierce Ground: 119.550

KFPR Ground/Tower (Archives)
Fort Pierce, Florida, United States

Feed Status: UP
Listen in your browser - HTML5 player(in browser, HTML5)
Click here to listen with your own player(launches your MP3 player)

KFPR 121553Z 33012G18KT 300V050 10SM CLR 24/09 A3015 RMK AO2 SLP209 T02440089

KFPR Airport Info (Airnav.com)

KFPR Flight Activity (Flightaware)

Listeners: 0 out of 2995 total

Ft Pierce Ground: 119.550
Ft Pierce Tower: 128.200

KFPR Tower (Archives)
Fort Pierce, Florida, United States

Feed Status: UP
Listen in your browser - HTML5 player(in browser, HTML5)
Click here to listen with your own player(launches your MP3 player)

KFPR 121553Z 33012G18KT 300V050 10SM CLR 24/09 A3015 RMK AO2 SLP209 T02440089

KFPR Airport Info (Airnav.com)

KFPR Flight Activity (Flightaware)

Listeners: 0 out of 2995 total

Ft Pierce Tower: 128.200

Palm Beach App/Dep (Archives)
Fort Pierce, Florida, United States

Feed Status: UP
Listen in your browser - HTML5 player(in browser, HTML5)
Click here to listen with your own player(launches your MP3 player)

KFPR 121553Z 33012G18KT 300V050 10SM CLR 24/09 A3015 RMK AO2 SLP209 T02440089

KFPR Airport Info (Airnav.com)

KFPR Flight Activity (Flightaware)

Listeners: 0 out of 2995 total

Palm Beach Approach/Departure: 123.625

KFRG ATIS (Archives)
Farmingdale, New York, United States

Feed Status: UP
Listen in your browser - HTML5 player(in browser, HTML5)
Click here to listen with your own player(launches your MP3 player)

KFRG 121603Z 18020G31KT 2SM BR OVC005 13/12 A2934 RMK AO2 PK WND 18031/1600 SFC VIS 5 T01280117

KFRG Airport Info (Airnav.com)

KFRG Flight Activity (Flightaware)

Listeners: 4 out of 2995 total

Republic ATIS: 126.650

KFRG Ground #2 (Archives)
Farmingdale, New York, United States

Feed Status: UP
Listen in your browser - HTML5 player(in browser, HTML5)
Click here to listen with your own player(launches your MP3 player)

KFRG 121603Z 18020G31KT 2SM BR OVC005 13/12 A2934 RMK AO2 PK WND 18031/1600 SFC VIS 5 T01280117

KFRG Airport Info (Airnav.com)

KFRG Flight Activity (Flightaware)

Listeners: 2 out of 2995 total

Republic Ground: 121.600

KFRG Ground/Tower #2 (Archives)
Farmingdale, New York, United States

Feed Status: UP
Listen in your browser - HTML5 player(in browser, HTML5)
Click here to listen with your own player(launches your MP3 player)

KFRG 121603Z 18020G31KT 2SM BR OVC005 13/12 A2934 RMK AO2 PK WND 18031/1600 SFC VIS 5 T01280117

KFRG Airport Info (Airnav.com)

KFRG Flight Activity (Flightaware)

Listeners: 0 out of 2995 total

Republic Ground: 121.600
Republic Tower: 118.800
Republic Tower: 124.500

KFRG Tower #1 (Archives)
Farmingdale, New York, United States

Feed Status: UP
Listen in your browser - HTML5 player(in browser, HTML5)
Click here to listen with your own player(launches your MP3 player)

KFRG 121603Z 18020G31KT 2SM BR OVC005 13/12 A2934 RMK AO2 PK WND 18031/1600 SFC VIS 5 T01280117

KFRG Airport Info (Airnav.com)

KFRG Flight Activity (Flightaware)

Listeners: 5 out of 2995 total

Republic Tower: 118.800

KFRG Tower #2 (Archives)
Farmingdale, New York, United States

Feed Status: UP
Listen in your browser - HTML5 player(in browser, HTML5)
Click here to listen with your own player(launches your MP3 player)

KFRG 121603Z 18020G31KT 2SM BR OVC005 13/12 A2934 RMK AO2 PK WND 18031/1600 SFC VIS 5 T01280117

KFRG Airport Info (Airnav.com)

KFRG Flight Activity (Flightaware)

Listeners: 0 out of 2995 total

Republic Tower: 118.800
Republic Tower: 124.500

KFSD Twr/App/Dep/ZMP (Archives)
Sioux Falls, South Dakota, United States

Feed Status: UP
Listen in your browser - HTML5 player(in browser, HTML5)
Click here to listen with your own player(launches your MP3 player)

KFSD 121556Z 35009G16KT 10SM FEW040 13/02 A3015 RMK AO2 SLP214 T01330017

KFSD Airport Info (Airnav.com)

KFSD Flight Activity (Flightaware)

Listeners: 8 out of 2995 total

Minneapolis Center (Sector 33 PIR Low): 132.050
Sioux Falls Approach/Departure: 125.800
Sioux Falls Tower: 118.300

KFTW Del/Gnd/Twr (Archives)
Fort Worth, Texas, United States

Feed Status: UP
Listen in your browser - HTML5 player(in browser, HTML5)
Click here to listen with your own player(launches your MP3 player)

KFTW 121553Z 16010G17KT 10SM CLR 21/08 A3025 RMK AO2 SLP237 T02110078

KFTW Airport Info (Airnav.com)

KFTW Flight Activity (Flightaware)

Listeners: 2 out of 2995 total

Meacham Clearance Delivery: 124.650
Meacham Ground: 121.900
Meacham Tower: 118.300

KFTW Del/Ground (Archives)
Fort Worth, Texas, United States

Feed Status: UP
Listen in your browser - HTML5 player(in browser, HTML5)
Click here to listen with your own player(launches your MP3 player)

KFTW 121553Z 16010G17KT 10SM CLR 21/08 A3025 RMK AO2 SLP237 T02110078

KFTW Airport Info (Airnav.com)

KFTW Flight Activity (Flightaware)

Listeners: 0 out of 2995 total

Meacham Clearance Delivery: 124.650
Meacham Ground: 121.900

KFTW Tower (Archives)
Fort Worth, Texas, United States

Feed Status: UP
Listen in your browser - HTML5 player(in browser, HTML5)
Click here to listen with your own player(launches your MP3 player)

KFTW 121553Z 16010G17KT 10SM CLR 21/08 A3025 RMK AO2 SLP237 T02110078

KFTW Airport Info (Airnav.com)

KFTW Flight Activity (Flightaware)

Listeners: 0 out of 2995 total

Meacham Tower: 118.300

Regional App (Meacham North) (Archives)
Fort Worth, Texas, United States

Feed Status: UP
Listen in your browser - HTML5 player(in browser, HTML5)
Click here to listen with your own player(launches your MP3 player)

KFTW 121553Z 16010G17KT 10SM CLR 21/08 A3025 RMK AO2 SLP237 T02110078

KFTW Airport Info (Airnav.com)

KFTW Flight Activity (Flightaware)

Listeners: 0 out of 2995 total

Regional Approach (Meacham North): 118.100

Regional App (Meacham South) (Archives)
Fort Worth, Texas, United States

Feed Status: UP
Listen in your browser - HTML5 player(in browser, HTML5)
Click here to listen with your own player(launches your MP3 player)

KDFW 121553Z 17009KT 10SM SCT250 22/07 A3024 RMK AO2 SLP235 T02220067

KDFW Airport Info (Airnav.com)

KDFW Flight Activity (Flightaware)

Listeners: 0 out of 2995 total

Regional Approach (Meacham South): 135.975

Regional Approach (Meacham North/South) (Archives)
Fort Worth, Texas, United States

Feed Status: UP
Listen in your browser - HTML5 player(in browser, HTML5)
Click here to listen with your own player(launches your MP3 player)

KFTW 121553Z 16010G17KT 10SM CLR 21/08 A3025 RMK AO2 SLP237 T02110078

KFTW Airport Info (Airnav.com)

KFTW Flight Activity (Flightaware)

Listeners: 0 out of 2995 total

Regional Approach (Meacham North): 118.100
Regional Approach (Meacham South): 135.975

Atlanta Approach (N. Sat) (Archives)
Atlanta, Georgia, United States

Feed Status: UP
Listen in your browser - HTML5 player(in browser, HTML5)
Click here to listen with your own player(launches your MP3 player)

KRYY 121550Z 28019G26KT 10SM CLR 17/01 A3001 RMK AO2 PK WND 26026/1541 SLP157 T01670006 $

KRYY Airport Info (Airnav.com)

KRYY Flight Activity (Flightaware)

Listeners: 1 out of 2995 total

Atlanta Approach (North Satellite): 121.000

KFTY Ground/Tower (Archives)
Atlanta, Georgia, United States

Feed Status: UP
Listen in your browser - HTML5 player(in browser, HTML5)
Click here to listen with your own player(launches your MP3 player)

KFTY 121553Z 27019G35KT 10SM CLR 17/00 A3001 RMK AO2 PK WND 29035/1550 SLP159 T01720000

KFTY Airport Info (Airnav.com)

KFTY Flight Activity (Flightaware)

Listeners: 0 out of 2995 total

County Ground: 121.700
County Tower: 118.450

KFUL Ground/Tower (Archives)
Fullerton, California, United States

Feed Status: UP
Listen in your browser - HTML5 player(in browser, HTML5)
Click here to listen with your own player(launches your MP3 player)

KFUL 121606Z 18007KT 6SM BR BKN009 14/12 A2989 RMK SD

KFUL Airport Info (Airnav.com)

KFUL Flight Activity (Flightaware)

Listeners: 1 out of 2995 total

Fullerton Ground: 121.800
Fullerton Tower: 119.100

KFWS Ground/Tower (Archives)
Fort Worth, Texas, United States

Feed Status: UP
Listen in your browser - HTML5 player(in browser, HTML5)
Click here to listen with your own player(launches your MP3 player)

KFWS 121547Z 16009KT 10SM CLR 22/06 A3027

KFWS Airport Info (Airnav.com)

KFWS Flight Activity (Flightaware)

Listeners: 1 out of 2995 total

Spinks Ground: 119.475
Spinks Tower/CTAF: 124.625

KFXE ATIS (Archives)
Fort Lauderdale, Florida, United States

Feed Status: UP
Listen in your browser - HTML5 player(in browser, HTML5)
Click here to listen with your own player(launches your MP3 player)

KFXE 121553Z VRB06KT 10SM CLR 25/16 A3014 RMK AO2 SLP207 T02500161

KFXE Airport Info (Airnav.com)

KFXE Flight Activity (Flightaware)

Listeners: 0 out of 2995 total

Executive ATIS: 119.850

KFXE Ground (Archives)
Fort Lauderdale, Florida, United States

Feed Status: UP
Listen in your browser - HTML5 player(in browser, HTML5)
Click here to listen with your own player(launches your MP3 player)

KFXE 121553Z VRB06KT 10SM CLR 25/16 A3014 RMK AO2 SLP207 T02500161

KFXE Airport Info (Airnav.com)

KFXE Flight Activity (Flightaware)

Listeners: 0 out of 2995 total

Executive Ground: 121.750

KFXE Practice Area (Archives)
Fort Lauderdale, Florida, United States

Feed Status: UP
Listen in your browser - HTML5 player(in browser, HTML5)
Click here to listen with your own player(launches your MP3 player)

KFXE 121553Z VRB06KT 10SM CLR 25/16 A3014 RMK AO2 SLP207 T02500161

KFXE Airport Info (Airnav.com)

KFXE Flight Activity (Flightaware)

Listeners: 0 out of 2995 total

Coral Springs/Everglades Practice Area: 123.450

KFYV Gnd/Twr/App/ZME (Archives)
Fayetteville, Arkansas, United States

Feed Status: UP
Listen in your browser - HTML5 player(in browser, HTML5)
Click here to listen with your own player(launches your MP3 player)

KFYV 121553Z 33007KT 10SM CLR 18/M01 A3026 RMK AO2 SLP241 T01781011

KFYV Airport Info (Airnav.com)

KFYV Flight Activity (Flightaware)

Listeners: 3 out of 2995 total

Drake Ground: 121.800
Drake Tower: 128.000
Jonesboro Flight Service Station (FSS): 122.300
Memphis Center (High): 132.550
Memphis Center (High): 353.800
Razorback Approach: 121.000

KGAI CTAF/UNICOM (Archives)
Gaithersburg, Maryland, United States

Feed Status: UP
Listen in your browser - HTML5 player(in browser, HTML5)
Click here to listen with your own player(launches your MP3 player)

KGAI 121556Z AUTO 29019G26KT 10SM BKN055 16/06 A2949 RMK AO2 PK WND 29028/1541 SLP996 T01610056

KGAI Airport Info (Airnav.com)

KGAI Flight Activity (Flightaware)

Listeners: 0 out of 2995 total

Gaithersburg CTAF: 123.075

KGBG CTAF (Archives)
Galesburg, Illinois, United States

Feed Status: UP
Listen in your browser - HTML5 player(in browser, HTML5)
Click here to listen with your own player(launches your MP3 player)

KGBG 121615Z AUTO 30019G27KT 10SM CLR 14/06 A2996 RMK AO2 T01400058

KGBG Airport Info (Airnav.com)

KGBG Flight Activity (Flightaware)

Listeners: 0 out of 2995 total

Emergency/Guard: 121.500
Galesburg CTAF: 123.000

KGDM/KORE CTAF (Archives)
Gardner, Massachusetts, United States

Feed Status: UP
Listen in your browser - HTML5 player(in browser, HTML5)
Click here to listen with your own player(launches your MP3 player)

KGDM Airport Info (Airnav.com)

KGDM Flight Activity (Flightaware)

Listeners: 0 out of 2995 total

Gardner CTAF: 122.800

KGED ASOS (Archives)
Georgetown, Delaware, United States

Feed Status: UP
Listen in your browser - HTML5 player(in browser, HTML5)
Click here to listen with your own player(launches your MP3 player)

KGED 121554Z AUTO 24009KT 10SM FEW020 OVC049 15/13 A2949 RMK AO2 RAE1455 SLP985 P0000 T01500128

KGED Airport Info (Airnav.com)

KGED Flight Activity (Flightaware)

Listeners: 0 out of 2995 total

Georgetown ASOS: 118.375

KGED Clearance Delivery (Archives)
Georgetown, Delaware, United States

Feed Status: UP
Listen in your browser - HTML5 player(in browser, HTML5)
Click here to listen with your own player(launches your MP3 player)

KGED 121554Z AUTO 24009KT 10SM FEW020 OVC049 15/13 A2949 RMK AO2 RAE1455 SLP985 P0000 T01500128

KGED Airport Info (Airnav.com)

KGED Flight Activity (Flightaware)

Listeners: 0 out of 2995 total

Georgetown Clearance Delivery (Dover Approach): 125.550

KGED CTAF (Archives)
Georgetown, Delaware, United States

Feed Status: UP
Listen in your browser - HTML5 player(in browser, HTML5)
Click here to listen with your own player(launches your MP3 player)

KGED 121554Z AUTO 24009KT 10SM FEW020 OVC049 15/13 A2949 RMK AO2 RAE1455 SLP985 P0000 T01500128

KGED Airport Info (Airnav.com)

KGED Flight Activity (Flightaware)

Listeners: 0 out of 2995 total

Georgetown CTAF: 123.000

KGED Emergency/Guard (Archives)
Georgetown, Delaware, United States

Feed Status: UP
Listen in your browser - HTML5 player(in browser, HTML5)
Click here to listen with your own player(launches your MP3 player)

KGED 121554Z AUTO 24009KT 10SM FEW020 OVC049 15/13 A2949 RMK AO2 RAE1455 SLP985 P0000 T01500128

KGED Airport Info (Airnav.com)

KGED Flight Activity (Flightaware)

Listeners: 0 out of 2995 total

Emergency/Guard: 121.500

KGEU App/Dep (Archives)
Glendale, Arizona, United States

Feed Status: UP
Listen in your browser - HTML5 player(in browser, HTML5)
Click here to listen with your own player(launches your MP3 player)

KGEU 121547Z 00000KT 10SM SKC 22/02 A2984

KGEU Airport Info (Airnav.com)

KGEU Flight Activity (Flightaware)

Listeners: 1 out of 2995 total

Luke Approach/Departure: 118.150

KGEU ATIS (Archives)
Glendale, Arizona, United States

Feed Status: UP
Listen in your browser - HTML5 player(in browser, HTML5)
Click here to listen with your own player(launches your MP3 player)

KGEU 121547Z 00000KT 10SM SKC 22/02 A2984

KGEU Airport Info (Airnav.com)

KGEU Flight Activity (Flightaware)

Listeners: 0 out of 2995 total

Glendale ATIS: 119.425

KGEU Ground (Archives)
Glendale, Arizona, United States

Feed Status: UP
Listen in your browser - HTML5 player(in browser, HTML5)
Click here to listen with your own player(launches your MP3 player)

KGEU 121547Z 00000KT 10SM SKC 22/02 A2984

KGEU Airport Info (Airnav.com)

KGEU Flight Activity (Flightaware)

Listeners: 0 out of 2995 total

Glendale Ground: 118.000

KGEU Tower (Archives)
Glendale, Arizona, United States

Feed Status: UP
Listen in your browser - HTML5 player(in browser, HTML5)
Click here to listen with your own player(launches your MP3 player)

KGEU 121547Z 00000KT 10SM SKC 22/02 A2984

KGEU Airport Info (Airnav.com)

KGEU Flight Activity (Flightaware)

Listeners: 0 out of 2995 total

Glendale Tower: 121.000

KGFK Approach (Archives)
Grand Forks, North Dakota, United States

Feed Status: UP
Listen in your browser - HTML5 player(in browser, HTML5)
Click here to listen with your own player(launches your MP3 player)

KGFK 121553Z 34006KT 10SM FEW055 09/01 A3010 RMK AO2 SLP202 T00940011

KGFK Airport Info (Airnav.com)

KGFK Flight Activity (Flightaware)

Listeners: 1 out of 2995 total

Grand Forks Approach: 118.100
Grand Forks Approach (VFR): 132.300

KGFK ATIS (Archives)
Grand Forks, North Dakota, United States

Feed Status: UP
Listen in your browser - HTML5 player(in browser, HTML5)
Click here to listen with your own player(launches your MP3 player)

KGFK 121553Z 34006KT 10SM FEW055 09/01 A3010 RMK AO2 SLP202 T00940011

KGFK Airport Info (Airnav.com)

KGFK Flight Activity (Flightaware)

Listeners: 0 out of 2995 total

Grand Forks ATIS: 119.400

KGFK Ground (Archives)
Grand Forks, North Dakota, United States

Feed Status: UP
Listen in your browser - HTML5 player(in browser, HTML5)
Click here to listen with your own player(launches your MP3 player)

KGFK 121553Z 34006KT 10SM FEW055 09/01 A3010 RMK AO2 SLP202 T00940011

KGFK Airport Info (Airnav.com)

KGFK Flight Activity (Flightaware)

Listeners: 0 out of 2995 total

Grand Forks Ground: 124.575

KGFK Tower (Both) (Archives)
Grand Forks, North Dakota, United States

Feed Status: UP
Listen in your browser - HTML5 player(in browser, HTML5)
Click here to listen with your own player(launches your MP3 player)

KGFK 121553Z 34006KT 10SM FEW055 09/01 A3010 RMK AO2 SLP202 T00940011

KGFK Airport Info (Airnav.com)

KGFK Flight Activity (Flightaware)

Listeners: 1 out of 2995 total

Grand Forks Tower (IFR/VFR): 118.400
Grand Forks Tower (VFR): 120.550

KGFK Tower 1 (118.4/IFR/VFR) (Archives)
Grand Forks, North Dakota, United States

Feed Status: UP
Listen in your browser - HTML5 player(in browser, HTML5)
Click here to listen with your own player(launches your MP3 player)

KGFK 121553Z 34006KT 10SM FEW055 09/01 A3010 RMK AO2 SLP202 T00940011

KGFK Airport Info (Airnav.com)

KGFK Flight Activity (Flightaware)

Listeners: 0 out of 2995 total

Grand Forks Tower (IFR/VFR): 118.400

KGFK Tower 2 (120.55/VFR) (Archives)
Grand Forks, North Dakota, United States

Feed Status: UP
Listen in your browser - HTML5 player(in browser, HTML5)
Click here to listen with your own player(launches your MP3 player)

KGFK 121553Z 34006KT 10SM FEW055 09/01 A3010 RMK AO2 SLP202 T00940011

KGFK Airport Info (Airnav.com)

KGFK Flight Activity (Flightaware)

Listeners: 0 out of 2995 total

Grand Forks Tower (VFR): 120.550

KGFL CTAF/App (Archives)
Glens Falls, New York, United States

Feed Status: UP
Listen in your browser - HTML5 player(in browser, HTML5)
Click here to listen with your own player(launches your MP3 player)

KGFL 121609Z AUTO 17012G24KT 7SM -RA BKN033 OVC050 18/14 A2924 RMK AO2 RAB1559 P0001 T01830144

KGFL Airport Info (Airnav.com)

KGFL Flight Activity (Flightaware)

Listeners: 0 out of 2995 total

Albany Approach: 118.050
Albany Approach: 132.825
Glens Falls Unicom: 123.000
Unicom (Granville, Schroon Lake, Argyle, Heber Air: 122.900
Unicom (Saratoga Co., Rutland, Ticonderoga, Round : 122.800

KGGE CTAF (Archives)
Georgetown, South Carolina, United States

Feed Status: UP
Listen in your browser - HTML5 player(in browser, HTML5)
Click here to listen with your own player(launches your MP3 player)

KGGE 121615Z AUTO 24017G26KT 10SM CLR 21/07 A2989 RMK AO2

KGGE Airport Info (Airnav.com)

KGGE Flight Activity (Flightaware)

Listeners: 0 out of 2995 total

Georgetown CTAF: 123.000

KGGG App/Dep (Archives)
Longview, Texas, United States

Feed Status: UP
Listen in your browser - HTML5 player(in browser, HTML5)
Click here to listen with your own player(launches your MP3 player)

KGGG 121553Z 18005KT 10SM CLR 21/07 A3028 RMK AO2 SLP249 T02110067

KGGG Airport Info (Airnav.com)

KGGG Flight Activity (Flightaware)

Listeners: 1 out of 2995 total

Longview Approach (East): 127.325
Longview Approach (West): 128.750

KGGG Gnd/Twr (Archives)
Longview, Texas, United States

Feed Status: UP
Listen in your browser - HTML5 player(in browser, HTML5)
Click here to listen with your own player(launches your MP3 player)

KGGG 121553Z 18005KT 10SM CLR 21/07 A3028 RMK AO2 SLP249 T02110067

KGGG Airport Info (Airnav.com)

KGGG Flight Activity (Flightaware)

Listeners: 0 out of 2995 total

EastTex Ground: 121.600
EastTex Tower: 119.200

KGIF ASOS (Archives)
Winter Haven, Florida, United States

Feed Status: UP
Listen in your browser - HTML5 player(in browser, HTML5)
Click here to listen with your own player(launches your MP3 player)

KGIF 121553Z AUTO VRB06KT 10SM CLR 24/09 A3018 RMK AO2 SLP216 T02390089

KGIF Airport Info (Airnav.com)

KGIF Flight Activity (Flightaware)

Listeners: 0 out of 2995 total

Winter Haven ASOS: 133.675

KGIF CTAF/GCO/Guard (Archives)
Winter Haven, Florida, United States

Feed Status: UP
Listen in your browser - HTML5 player(in browser, HTML5)
Click here to listen with your own player(launches your MP3 player)

KGIF 121553Z AUTO VRB06KT 10SM CLR 24/09 A3018 RMK AO2 SLP216 T02390089

KGIF Airport Info (Airnav.com)

KGIF Flight Activity (Flightaware)

Listeners: 0 out of 2995 total

Emergency/Guard: 121.500
Winter Haven CTAF: 123.050
Winter Haven GCO (Clearance Delivery): 121.725
Winter Haven Temp. Tower (only during Sun 'n Fun): 119.125

KGIF GCO/Guard (Archives)
Winter Haven, Florida, United States

Feed Status: UP
Listen in your browser - HTML5 player(in browser, HTML5)
Click here to listen with your own player(launches your MP3 player)

KGIF 121553Z AUTO VRB06KT 10SM CLR 24/09 A3018 RMK AO2 SLP216 T02390089

KGIF Airport Info (Airnav.com)

KGIF Flight Activity (Flightaware)

Listeners: 0 out of 2995 total

Emergency/Guard: 121.500
Winter Haven GCO (Clearance Delivery): 121.725

KGIF/F57 CTAF (Archives)
Winter Haven, Florida, United States

Feed Status: UP
Listen in your browser - HTML5 player(in browser, HTML5)
Click here to listen with your own player(launches your MP3 player)

KGIF 121553Z AUTO VRB06KT 10SM CLR 24/09 A3018 RMK AO2 SLP216 T02390089

KGIF Airport Info (Airnav.com)

KGIF Flight Activity (Flightaware)

Listeners: 1 out of 2995 total

Winter Haven CTAF: 123.050
Winter Haven Temp. Tower (only during Sun 'n Fun): 119.125

KPCM/KGIF CTAF (Archives)
Winter Haven, Florida, United States

Feed Status: UP
Listen in your browser - HTML5 player(in browser, HTML5)
Click here to listen with your own player(launches your MP3 player)

KLAL 121550Z 33008KT 10SM SKC 23/08 A3018

KLAL Airport Info (Airnav.com)

KLAL Flight Activity (Flightaware)

Listeners: 0 out of 2995 total

Plant City/Winter Haven CTAF: 123.050

KGJT Gnd/Twr/App/ZDV (Archives)
Grand Junction, Colorado, United States

Feed Status: UP
Listen in your browser - HTML5 player(in browser, HTML5)
Click here to listen with your own player(launches your MP3 player)

KGJT 121553Z 13012KT 10SM CLR 15/M07 A3010 RMK AO2 SLP154 T01501067

KGJT Airport Info (Airnav.com)

KGJT Flight Activity (Flightaware)

Listeners: 2 out of 2995 total

Denver Approach: 119.700
Denver Center (Sector 11 Grand Junction Low): 134.500
Grand Junction Ground: 121.700
Grand Junction Tower: 118.100

KGKT CTAF (Archives)
Sevierville, Tennessee, United States

Feed Status: UP
Listen in your browser - HTML5 player(in browser, HTML5)
Click here to listen with your own player(launches your MP3 player)

KGKT 121615Z AUTO 27010G28KT 10SM BKN055 BKN065 15/04 A2989 RMK A01

KGKT Airport Info (Airnav.com)

KGKT Flight Activity (Flightaware)

Listeners: 0 out of 2995 total

Gatlinburg CTAF: 123.000

KGKY Ground/Tower
Arlington, Texas, United States

Feed Status: DOWN
Offline since: 2024-04-02 15:16:39 UTC

KGKY 121553Z 17009KT 10SM CLR 22/07 A3026 RMK AO2 SLP241 T02170072

KGKY Airport Info (Airnav.com)

Arlington Ground: 121.875
Arlington Tower: 128.625

KGMU ATIS (Archives)
Greenville, South Carolina, United States

Feed Status: UP
Listen in your browser - HTML5 player(in browser, HTML5)
Click here to listen with your own player(launches your MP3 player)

KGMU 121553Z 27018G26KT 10SM CLR 18/01 A2986 RMK AO2 PK WND 27027/1540 SLP106 T01830006

KGMU Airport Info (Airnav.com)

KGMU Flight Activity (Flightaware)

Listeners: 0 out of 2995 total

Greenville ATIS: 127.075

KGMU Ground (Archives)
Greenville, South Carolina, United States

Feed Status: UP
Listen in your browser - HTML5 player(in browser, HTML5)
Click here to listen with your own player(launches your MP3 player)

KGMU 121553Z 27018G26KT 10SM CLR 18/01 A2986 RMK AO2 PK WND 27027/1540 SLP106 T01830006

KGMU Airport Info (Airnav.com)

KGMU Flight Activity (Flightaware)

Listeners: 0 out of 2995 total

Greenville Ground: 121.250

KGMU Ground/Tower (Archives)
Greenville, South Carolina, United States

Feed Status: UP
Listen in your browser - HTML5 player(in browser, HTML5)
Click here to listen with your own player(launches your MP3 player)

KGMU 121553Z 27018G26KT 10SM CLR 18/01 A2986 RMK AO2 PK WND 27027/1540 SLP106 T01830006

KGMU Airport Info (Airnav.com)

KGMU Flight Activity (Flightaware)

Listeners: 0 out of 2995 total

Greenville Ground: 121.250
Greenville Tower: 119.900

KGMU Tower (Archives)
Greenville, South Carolina, United States

Feed Status: UP
Listen in your browser - HTML5 player(in browser, HTML5)
Click here to listen with your own player(launches your MP3 player)

KGMU 121553Z 27018G26KT 10SM CLR 18/01 A2986 RMK AO2 PK WND 27027/1540 SLP106 T01830006

KGMU Airport Info (Airnav.com)

KGMU Flight Activity (Flightaware)

Listeners: 0 out of 2995 total

Greenville Tower: 119.900

KGNV Ground/Tower (Archives)
Gainesville, Florida, United States

Feed Status: UP
Listen in your browser - HTML5 player(in browser, HTML5)
Click here to listen with your own player(launches your MP3 player)

KGNV 121553Z 29013G22KT 10SM CLR 23/08 A3015 RMK AO2 PK WND 28026/1530 SLP208 T02280083

KGNV Airport Info (Airnav.com)

KGNV Flight Activity (Flightaware)

Listeners: 1 out of 2995 total

Gainesville Ground: 121.700
Gainesville Tower: 119.550

KGPI Great Falls Radio (Archives)
Kalispell, Montana, United States

Feed Status: UP
Listen in your browser - HTML5 player(in browser, HTML5)
Click here to listen with your own player(launches your MP3 player)

KGPI 121555Z 03003KT 10SM CLR 11/04 A2982 RMK AO2 SLP101 T01060039

KGPI Airport Info (Airnav.com)

KGPI Flight Activity (Flightaware)

Listeners: 0 out of 2995 total

Great Falls Radio: 122.500

KGPI Ground (Archives)
Kalispell, Montana, United States

Feed Status: UP
Listen in your browser - HTML5 player(in browser, HTML5)
Click here to listen with your own player(launches your MP3 player)

KGPI 121555Z 03003KT 10SM CLR 11/04 A2982 RMK AO2 SLP101 T01060039

KGPI Airport Info (Airnav.com)

KGPI Flight Activity (Flightaware)

Listeners: 0 out of 2995 total

Glacier Ground: 121.600

KGPI Tower (Archives)
Kalispell, Montana, United States

Feed Status: UP
Listen in your browser - HTML5 player(in browser, HTML5)
Click here to listen with your own player(launches your MP3 player)

KGPI 121555Z 03003KT 10SM CLR 11/04 A2982 RMK AO2 SLP101 T01060039

KGPI Airport Info (Airnav.com)

KGPI Flight Activity (Flightaware)

Listeners: 0 out of 2995 total

Glacier Tower: 124.550

KGPM Tower
Grand Prairie, Texas, United States

Feed Status: DOWN
Offline since: 2023-12-01 01:19:21 UTC

KGPM 121550Z 16010KT 10SM SKC 22/07 A3027

KGPM Airport Info (Airnav.com)

Grand Prairie Tower: 128.550

KGPT Gnd/Twr/App (Archives)
Gulfport, Mississippi, United States

Feed Status: UP
Listen in your browser - HTML5 player(in browser, HTML5)
Click here to listen with your own player(launches your MP3 player)

KGPT 121553Z 36012G17KT 10SM CLR 22/06 A3023 RMK AO2 SLP236 T02170061

KGPT Airport Info (Airnav.com)

KGPT Flight Activity (Flightaware)

Listeners: 0 out of 2995 total

Gulfport Approach/Departure (East): 124.600
Gulfport Approach/Departure (East/UHF): 254.250
Gulfport Approach/Departure (West): 127.500
Gulfport Approach/Departure (West/UHF): 351.400
Gulfport Ground: 120.400
Gulfport Tower: 123.700
Gulfport Tower (UHF): 339.800

KGQQ CTAF/Del/App (Archives)
Galion, Ohio, United States

Feed Status: UP
Listen in your browser - HTML5 player(in browser, HTML5)
Click here to listen with your own player(launches your MP3 player)

KGQQ Airport Info (Airnav.com)

KGQQ Flight Activity (Flightaware)

Listeners: 0 out of 2995 total

Galion Clearance Delivery: 126.800
Galion CTAF/UNICOM: 122.800
Mansfield Approach: 124.200

KGTU Gnd/Twr (Archives)
Georgetown, Texas, United States

Feed Status: UP
Listen in your browser - HTML5 player(in browser, HTML5)
Click here to listen with your own player(launches your MP3 player)

KGTU 121556Z 17009KT 10SM CLR 22/07 A3031 RMK AO2 SLP260 T02220072

KGTU Airport Info (Airnav.com)

KGTU Flight Activity (Flightaware)

Listeners: 2 out of 2995 total

Georgetown Ground: 119.125
Georgetown Tower: 120.225

KVGE CTAF (Archives)
Gordonsville, Virginia, United States

Feed Status: UP
Listen in your browser - HTML5 player(in browser, HTML5)
Click here to listen with your own player(launches your MP3 player)


Listeners: 0 out of 2995 total

Gordonsville CTAF: 123.000

KGVL AWOS (Archives)
Gainesville, Georgia, United States

Feed Status: UP
Listen in your browser - HTML5 player(in browser, HTML5)
Click here to listen with your own player(launches your MP3 player)

KGVL 121453Z AUTO 29016G26KT 10SM CLR 15/03 A2997 RMK AO2 PK WND 28028/1423 SLP143 T01500028 51015

KGVL Airport Info (Airnav.com)

KGVL Flight Activity (Flightaware)

Listeners: 0 out of 2995 total

Gainesville AWOS: 126.475

KGVL CTAF #1 (Archives)
Gainesville, Georgia, United States

Feed Status: UP
Listen in your browser - HTML5 player(in browser, HTML5)
Click here to listen with your own player(launches your MP3 player)

KGVL 121453Z AUTO 29016G26KT 10SM CLR 15/03 A2997 RMK AO2 PK WND 28028/1423 SLP143 T01500028 51015

KGVL Airport Info (Airnav.com)

KGVL Flight Activity (Flightaware)

Listeners: 3 out of 2995 total

Gainesville Clearance (Atlanta Center or TRACON): 134.800
Gainesville CTAF: 123.075

KGVL CTAF #2 (Archives)
Gainesville, Georgia, United States

Feed Status: UP
Listen in your browser - HTML5 player(in browser, HTML5)
Click here to listen with your own player(launches your MP3 player)

KGVL 121453Z AUTO 29016G26KT 10SM CLR 15/03 A2997 RMK AO2 PK WND 28028/1423 SLP143 T01500028 51015

KGVL Airport Info (Airnav.com)

KGVL Flight Activity (Flightaware)

Listeners: 0 out of 2995 total

Gainesville CTAF: 123.075

KGVL Emergency/Guard (Archives)
Gainesville, Georgia, United States

Feed Status: UP
Listen in your browser - HTML5 player(in browser, HTML5)
Click here to listen with your own player(launches your MP3 player)

KGVL 121453Z AUTO 29016G26KT 10SM CLR 15/03 A2997 RMK AO2 PK WND 28028/1423 SLP143 T01500028 51015

KGVL Airport Info (Airnav.com)

KGVL Flight Activity (Flightaware)

Listeners: 0 out of 2995 total

Emergency/Guard: 121.500

KGWB AWOS (Archives)
Auburn, Indiana, United States

Feed Status: UP
Listen in your browser - HTML5 player(in browser, HTML5)
Click here to listen with your own player(launches your MP3 player)

KGWB 121615Z AUTO 28012G21KT 10SM BKN019 BKN024 BKN050 10/07 A2961 RMK AO2

KGWB Airport Info (Airnav.com)

KGWB Flight Activity (Flightaware)

Listeners: 0 out of 2995 total

De Kalb AWOS: 124.150

KGWB CTAF (Archives)
Auburn, Indiana, United States

Feed Status: UP
Listen in your browser - HTML5 player(in browser, HTML5)
Click here to listen with your own player(launches your MP3 player)

KGWB 121615Z AUTO 28012G21KT 10SM BKN019 BKN024 BKN050 10/07 A2961 RMK AO2

KGWB Airport Info (Airnav.com)

KGWB Flight Activity (Flightaware)

Listeners: 0 out of 2995 total

De Kalb CTAF: 123.000

KGYH Tower (Archives)
Greenville, South Carolina, United States

Feed Status: UP
Listen in your browser - HTML5 player(in browser, HTML5)
Click here to listen with your own player(launches your MP3 player)

KGMU 121553Z 27018G26KT 10SM CLR 18/01 A2986 RMK AO2 PK WND 27027/1540 SLP106 T01830006

KGMU Airport Info (Airnav.com)

KGMU Flight Activity (Flightaware)

Listeners: 0 out of 2995 total

Donaldson Tower: 133.325

KGYR Ground (Archives)
Goodyear, Arizona, United States

Feed Status: UP
Listen in your browser - HTML5 player(in browser, HTML5)
Click here to listen with your own player(launches your MP3 player)

KGYR 121547Z 09005KT 10SM SKC 22/03 A2986

KGYR Airport Info (Airnav.com)

KGYR Flight Activity (Flightaware)

Listeners: 0 out of 2995 total

Goodyear Ground: 121.700

KGYR Ground/Tower (Archives)
Goodyear, Arizona, United States

Feed Status: UP
Listen in your browser - HTML5 player(in browser, HTML5)
Click here to listen with your own player(launches your MP3 player)

KGYR 121547Z 09005KT 10SM SKC 22/03 A2986

KGYR Airport Info (Airnav.com)

KGYR Flight Activity (Flightaware)

Listeners: 0 out of 2995 total

Goodyear Ground: 121.700
Goodyear Tower: 120.100

KGYR Tower (Archives)
Goodyear, Arizona, United States

Feed Status: UP
Listen in your browser - HTML5 player(in browser, HTML5)
Click here to listen with your own player(launches your MP3 player)

KGYR 121547Z 09005KT 10SM SKC 22/03 A2986

KGYR Airport Info (Airnav.com)

KGYR Flight Activity (Flightaware)

Listeners: 0 out of 2995 total

Goodyear Tower: 120.100

KHAF CTAF (Archives)
Half Moon Bay, California, United States

Feed Status: UP
Listen in your browser - HTML5 player(in browser, HTML5)
Click here to listen with your own player(launches your MP3 player)

KHAF 121615Z AUTO 32008KT 6SM BR OVC015 12/10 A2977 RMK AO2

KHAF Airport Info (Airnav.com)

KHAF Flight Activity (Flightaware)

Listeners: 0 out of 2995 total

Half Moon Bay CTAF: 122.800

KHEF Del/Gnd/Twr (Archives)
Manassas, Virginia, United States

Feed Status: UP
Listen in your browser - HTML5 player(in browser, HTML5)
Click here to listen with your own player(launches your MP3 player)

KHEF 121556Z 26009G22KT 220V290 10SM OVC070 19/05 A2951 RMK AO2 PK WND 29028/1541 SLP998 T01890050

KHEF Airport Info (Airnav.com)

KHEF Flight Activity (Flightaware)

Listeners: 1 out of 2995 total

Manassas Clearance Delivery (after Tower closes): 120.200
Manassas Ground: 121.800
Manassas Tower: 133.100

KHFD Ground/Tower (Archives)
Hartford, Connecticut, United States

Feed Status: UP
Listen in your browser - HTML5 player(in browser, HTML5)
Click here to listen with your own player(launches your MP3 player)

KHFD 121553Z 17014G22KT 4SM BR OVC006 16/14 A2936 RMK AO2 SLP942 T01560144

KHFD Airport Info (Airnav.com)

KHFD Flight Activity (Flightaware)

Listeners: 1 out of 2995 total

Brainard Ground: 121.600
Brainard Tower: 119.600

KHGR Tower (Archives)
Hagerstown, Maryland, United States

Feed Status: UP
Listen in your browser - HTML5 player(in browser, HTML5)
Click here to listen with your own player(launches your MP3 player)

KMRB 121553Z 26021G31KT 10SM BKN049 OVC060 14/05 A2946 RMK AO2 PK WND 23039/1459 SLP974 T01390050

KMRB Airport Info (Airnav.com)

KMRB Flight Activity (Flightaware)

Listeners: 0 out of 2995 total

Hagerstown Tower: 120.300

KHHR ATIS (Archives)
Hawthorne, California, United States

Feed Status: UP
Listen in your browser - HTML5 player(in browser, HTML5)
Click here to listen with your own player(launches your MP3 player)

KHHR 121553Z 16004KT 9SM OVC014 14/11 A2988 RMK AO2 SLP117 T01440106

KHHR Airport Info (Airnav.com)

KHHR Flight Activity (Flightaware)

Listeners: 0 out of 2995 total

Hawthorne ATIS: 118.400

KHHR Emergency/Guard (Archives)
Hawthorne, California, United States

Feed Status: UP
Listen in your browser - HTML5 player(in browser, HTML5)
Click here to listen with your own player(launches your MP3 player)

KHHR 121553Z 16004KT 9SM OVC014 14/11 A2988 RMK AO2 SLP117 T01440106

KHHR Airport Info (Airnav.com)

KHHR Flight Activity (Flightaware)

Listeners: 0 out of 2995 total

Emergency/Guard: 121.500

KHHR Ground (Archives)
Hawthorne, California, United States

Feed Status: UP
Listen in your browser - HTML5 player(in browser, HTML5)
Click here to listen with your own player(launches your MP3 player)

KHHR 121553Z 16004KT 9SM OVC014 14/11 A2988 RMK AO2 SLP117 T01440106

KHHR Airport Info (Airnav.com)

KHHR Flight Activity (Flightaware)

Listeners: 0 out of 2995 total

Hawthorne Ground: 125.100

KHHR Ground/Tower (Archives)
Hawthorne, California, United States

Feed Status: UP
Listen in your browser - HTML5 player(in browser, HTML5)
Click here to listen with your own player(launches your MP3 player)

KHHR 121553Z 16004KT 9SM OVC014 14/11 A2988 RMK AO2 SLP117 T01440106

KHHR Airport Info (Airnav.com)

KHHR Flight Activity (Flightaware)

Listeners: 0 out of 2995 total

Hawthorne Ground: 125.100
Hawthorne Tower: 121.100

KHHR Tower (Archives)
Hawthorne, California, United States

Feed Status: UP
Listen in your browser - HTML5 player(in browser, HTML5)
Click here to listen with your own player(launches your MP3 player)

KHHR 121553Z 16004KT 9SM OVC014 14/11 A2988 RMK AO2 SLP117 T01440106

KHHR Airport Info (Airnav.com)

KHHR Flight Activity (Flightaware)

Listeners: 0 out of 2995 total

Hawthorne Tower: 121.100

KHIO Ground (Archives)
Portland, Oregon, United States

Feed Status: UP
Listen in your browser - HTML5 player(in browser, HTML5)
Click here to listen with your own player(launches your MP3 player)

KHIO 121553Z 30003KT 10SM SCT009 10/08 A2980 RMK AO2 SLP092 T01000078

KHIO Airport Info (Airnav.com)

KHIO Flight Activity (Flightaware)

Listeners: 0 out of 2995 total

Hillsboro Ground: 121.700

KHIO Tower (Both) (Archives)
Portland, Oregon, United States

Feed Status: UP
Listen in your browser - HTML5 player(in browser, HTML5)
Click here to listen with your own player(launches your MP3 player)

KHIO 121553Z 30003KT 10SM SCT009 10/08 A2980 RMK AO2 SLP092 T01000078

KHIO Airport Info (Airnav.com)

KHIO Flight Activity (Flightaware)

Listeners: 1 out of 2995 total

Hillsboro Tower: 119.300
Hillsboro Tower: 132.800

KHIO Tower (Primary) (Archives)
Portland, Oregon, United States

Feed Status: UP
Listen in your browser - HTML5 player(in browser, HTML5)
Click here to listen with your own player(launches your MP3 player)

KHIO 121553Z 30003KT 10SM SCT009 10/08 A2980 RMK AO2 SLP092 T01000078

KHIO Airport Info (Airnav.com)

KHIO Flight Activity (Flightaware)

Listeners: 0 out of 2995 total

Hillsboro Tower: 119.300

KHKY ASOS
Hickory, North Carolina, United States

Feed Status: DOWN
Offline since: 2023-09-18 16:20:05 UTC

KHKY 121553Z 29016G25KT 10SM CLR 18/00 A2978 RMK AO2 PK WND 29033/1501 SLP069 T01780000

KHKY Airport Info (Airnav.com)

Hickory ASOS: 118.325

KHKY Clearance Delivery (ZTL) (Archives)
Hickory, North Carolina, United States

Feed Status: UP
Listen in your browser - HTML5 player(in browser, HTML5)
Click here to listen with your own player(launches your MP3 player)

KHKY 121553Z 29016G25KT 10SM CLR 18/00 A2978 RMK AO2 PK WND 29033/1501 SLP069 T01780000

KHKY Airport Info (Airnav.com)

KHKY Flight Activity (Flightaware)

Listeners: 0 out of 2995 total

Hickory Clearance Delivery (Atlanta Center): 124.250

KHKY Emergency/Guard (Archives)
Hickory, North Carolina, United States

Feed Status: UP
Listen in your browser - HTML5 player(in browser, HTML5)
Click here to listen with your own player(launches your MP3 player)

KHKY 121553Z 29016G25KT 10SM CLR 18/00 A2978 RMK AO2 PK WND 29033/1501 SLP069 T01780000

KHKY Airport Info (Airnav.com)

KHKY Flight Activity (Flightaware)

Listeners: 0 out of 2995 total

Emergency/Guard: 121.500

KHKY Ground (Archives)
Hickory, North Carolina, United States

Feed Status: UP
Listen in your browser - HTML5 player(in browser, HTML5)
Click here to listen with your own player(launches your MP3 player)

KHKY 121553Z 29016G25KT 10SM CLR 18/00 A2978 RMK AO2 PK WND 29033/1501 SLP069 T01780000

KHKY Airport Info (Airnav.com)

KHKY Flight Activity (Flightaware)

Listeners: 0 out of 2995 total

Hickory Ground: 121.700

KHKY Tower (Archives)
Hickory, North Carolina, United States

Feed Status: UP
Listen in your browser - HTML5 player(in browser, HTML5)
Click here to listen with your own player(launches your MP3 player)

KHKY 121553Z 29016G25KT 10SM CLR 18/00 A2978 RMK AO2 PK WND 29033/1501 SLP069 T01780000

KHKY Airport Info (Airnav.com)

KHKY Flight Activity (Flightaware)

Listeners: 0 out of 2995 total

Hickory Tower: 128.150

KHMT CTAF (Archives)
Hemet, California, United States

Feed Status: UP
Listen in your browser - HTML5 player(in browser, HTML5)
Click here to listen with your own player(launches your MP3 player)

KHMT 121615Z AUTO 24015KT 7SM SCT004 12/10 A2986 RMK AO2 T01220104

KHMT Airport Info (Airnav.com)

KHMT Flight Activity (Flightaware)

Listeners: 0 out of 2995 total

Hemet CTAF: 123.000

KHND ATIS (Archives)
Las Vegas, Nevada, United States

Feed Status: UP
Listen in your browser - HTML5 player(in browser, HTML5)
Click here to listen with your own player(launches your MP3 player)

KHND 121556Z 27003KT 10SM CLR 22/M02 A2985 RMK AO2 SLP105 T02171022

KHND Airport Info (Airnav.com)

KHND Flight Activity (Flightaware)

Listeners: 0 out of 2995 total

Henderson ATIS: 120.775

KHND Ground/Tower (Archives)
Las Vegas, Nevada, United States

Feed Status: UP
Listen in your browser - HTML5 player(in browser, HTML5)
Click here to listen with your own player(launches your MP3 player)

KHND 121556Z 27003KT 10SM CLR 22/M02 A2985 RMK AO2 SLP105 T02171022

KHND Airport Info (Airnav.com)

KHND Flight Activity (Flightaware)

Listeners: 1 out of 2995 total

Henderson Ground: 127.800
Henderson Tower: 125.100

KHPN ATIS (Archives)
White Plains, New York, United States

Feed Status: UP
Listen in your browser - HTML5 player(in browser, HTML5)
Click here to listen with your own player(launches your MP3 player)

KHPN 121556Z 15013G20KT M1/4SM R16/1000V1400FT FG VV001 13/13 A2931 RMK AO2 SLP923 T01330128

KHPN Airport Info (Airnav.com)

KHPN Flight Activity (Flightaware)

Listeners: 0 out of 2995 total

Westchester County ATIS: 133.800

KHPN Del/Gnd/Tower #1 (Archives)
White Plains, New York, United States

Feed Status: UP
Listen in your browser - HTML5 player(in browser, HTML5)
Click here to listen with your own player(launches your MP3 player)

KHPN 121556Z 15013G20KT M1/4SM R16/1000V1400FT FG VV001 13/13 A2931 RMK AO2 SLP923 T01330128

KHPN Airport Info (Airnav.com)

KHPN Flight Activity (Flightaware)

Listeners: 2 out of 2995 total

Westchester Clearance Delivery: 127.250
Westchester Ground: 121.825
Westchester Tower: 118.575

KHPN Delivery/Ground (Archives)
White Plains, New York, United States

Feed Status: UP
Listen in your browser - HTML5 player(in browser, HTML5)
Click here to listen with your own player(launches your MP3 player)

KHPN 121556Z 15013G20KT M1/4SM R16/1000V1400FT FG VV001 13/13 A2931 RMK AO2 SLP923 T01330128

KHPN Airport Info (Airnav.com)

KHPN Flight Activity (Flightaware)

Listeners: 1 out of 2995 total

Westchester Clearance Delivery: 127.250
Westchester Ground: 121.825

KHPN Tower (Archives)
New York, New York, United States

Feed Status: UP
Listen in your browser - HTML5 player(in browser, HTML5)
Click here to listen with your own player(launches your MP3 player)

KHPN 121556Z 15013G20KT M1/4SM R16/1000V1400FT FG VV001 13/13 A2931 RMK AO2 SLP923 T01330128

KHPN Airport Info (Airnav.com)

KHPN Flight Activity (Flightaware)

Listeners: 4 out of 2995 total

Westchester Tower: 118.575

KHPN Tower (Archives)
New York, New York, United States

Feed Status: UP
Listen in your browser - HTML5 player(in browser, HTML5)
Click here to listen with your own player(launches your MP3 player)

KHPN 121556Z 15013G20KT M1/4SM R16/1000V1400FT FG VV001 13/13 A2931 RMK AO2 SLP923 T01330128

KHPN Airport Info (Airnav.com)

KHPN Flight Activity (Flightaware)

Listeners: 4 out of 2995 total

Westchester Tower: 118.575

NY Approach (NOBBI/NYACK/HAARP) (Archives)
New York, New York, United States

Feed Status: UP
Listen in your browser - HTML5 player(in browser, HTML5)
Click here to listen with your own player(launches your MP3 player)

KHPN 121556Z 15013G20KT M1/4SM R16/1000V1400FT FG VV001 13/13 A2931 RMK AO2 SLP923 T01330128

KHPN Airport Info (Airnav.com)

KHPN Flight Activity (Flightaware)

Listeners: 1 out of 2995 total

New York Approach (HAARP Sector): 135.350
New York Approach (HAARP Sector): 120.800
New York Approach (NOBBI Sector): 126.400
New York Approach (NYACK Sector): 120.550

KHRL Gnd/Twr/App
Harlingen, Texas, United States

Feed Status: DOWN
Offline since: 2024-02-01 04:06:05 UTC

KHRL 121552Z 14015KT 10SM CLR 27/12 A3023 RMK AO2 SLP237 T02720122 $

KHRL Airport Info (Airnav.com)

Harlingen Clearance/Ground: 121.700
Harlingen Tower: 119.300
Valley Approach: 120.700

KHRO CTAF/ZME/Misc (Archives)
Harrison, Arkansas, United States

Feed Status: UP
Listen in your browser - HTML5 player(in browser, HTML5)
Click here to listen with your own player(launches your MP3 player)

KHRO 121553Z AUTO 31013G23KT 10SM CLR 16/M04 A3021 RMK AO2 SLP227 T01611044

KHRO Airport Info (Airnav.com)

KHRO Flight Activity (Flightaware)

Listeners: 2 out of 2995 total

Boone County CTAF: 123.000
Jonesboro FSS: 122.450
Jonesboro FSS: 255.400
KBBG Tower (aircraft only): 128.150
Memphis Center (Low): 126.850
Memphis Center (Low): 281.550
Memphis Center (Ultra-High): 133.025
Memphis Center (Ultra-High): 284.750
Springfield Approach (aircraft only): 126.350

KHRT ATIS (Archives)
Mary Esther, Florida, United States

Feed Status: UP
Listen in your browser - HTML5 player(in browser, HTML5)
Click here to listen with your own player(launches your MP3 player)

KHRT 121625Z 33013G21KT 10SM CLR 22/03 A3016 RMK SLP211 $

KHRT Airport Info (Airnav.com)

KHRT Flight Activity (Flightaware)

Listeners: 0 out of 2995 total

Hurlburt ATIS: 134.475

KHRT Gnd/Misc (Archives)
Mary Esther, Florida, United States

Feed Status: UP
Listen in your browser - HTML5 player(in browser, HTML5)
Click here to listen with your own player(launches your MP3 player)

KHRT 121625Z 33013G21KT 10SM CLR 22/03 A3016 RMK SLP211 $

KHRT Airport Info (Airnav.com)

KHRT Flight Activity (Flightaware)

Listeners: 0 out of 2995 total

Hurlburt Command Post: 143.000
Hurlburt Command Post: 251.250
Hurlburt Ground: 123.975
Hurlburt Ground: 275.800

KHRT Tower (Archives)
Mary Esther, Florida, United States

Feed Status: UP
Listen in your browser - HTML5 player(in browser, HTML5)
Click here to listen with your own player(launches your MP3 player)

KHRT 121625Z 33013G21KT 10SM CLR 22/03 A3016 RMK SLP211 $

KHRT Airport Info (Airnav.com)

KHRT Flight Activity (Flightaware)

Listeners: 1 out of 2995 total

Hurlburt Tower: 126.500
Hurlburt Tower: 351.675

KHSD CTAF (Archives)
Oklahoma City, Oklahoma, United States

Feed Status: UP
Listen in your browser - HTML5 player(in browser, HTML5)
Click here to listen with your own player(launches your MP3 player)

KHSD Airport Info (Airnav.com)

KHSD Flight Activity (Flightaware)

Listeners: 0 out of 2995 total

Sundance CTAF: 122.700

KHUF App/Dep (Archives)
Terre Haute, Indiana, United States

Feed Status: UP
Listen in your browser - HTML5 player(in browser, HTML5)
Click here to listen with your own player(launches your MP3 player)

KHUF 121553Z 28012G20KT 10SM BKN016 OVC023 11/08 A2983 RMK AO2 PK WND 30027/1529 RAE14 SLP102 P0000 T01060083

KHUF Airport Info (Airnav.com)

KHUF Flight Activity (Flightaware)

Listeners: 0 out of 2995 total

Hulman Approach: 125.450

KHUF Emergency/Guard (Archives)
Terre Haute, Indiana, United States

Feed Status: UP
Listen in your browser - HTML5 player(in browser, HTML5)
Click here to listen with your own player(launches your MP3 player)

KHUF 121553Z 28012G20KT 10SM BKN016 OVC023 11/08 A2983 RMK AO2 PK WND 30027/1529 RAE14 SLP102 P0000 T01060083

KHUF Airport Info (Airnav.com)

KHUF Flight Activity (Flightaware)

Listeners: 0 out of 2995 total

Emergency/Guard: 121.500

KHUF Gnd/Twr (Archives)
Terre Haute, Indiana, United States

Feed Status: UP
Listen in your browser - HTML5 player(in browser, HTML5)
Click here to listen with your own player(launches your MP3 player)

KHUF 121553Z 28012G20KT 10SM BKN016 OVC023 11/08 A2983 RMK AO2 PK WND 30027/1529 RAE14 SLP102 P0000 T01060083

KHUF Airport Info (Airnav.com)

KHUF Flight Activity (Flightaware)

Listeners: 0 out of 2995 total

Hulman Ground/Clearance: 121.600
Hulman Tower: 134.725

KHUF Gnd/Twr/App (Archives)
Terre Haute, Indiana, United States

Feed Status: UP
Listen in your browser - HTML5 player(in browser, HTML5)
Click here to listen with your own player(launches your MP3 player)

KHUF 121553Z 28012G20KT 10SM BKN016 OVC023 11/08 A2983 RMK AO2 PK WND 30027/1529 RAE14 SLP102 P0000 T01060083

KHUF Airport Info (Airnav.com)

KHUF Flight Activity (Flightaware)

Listeners: 24 out of 2995 total

Hulman Approach: 125.450
Hulman Ground/Clearance: 121.600
Hulman Tower: 134.725
Indianapolis Center (Sector 35 Terre Haute Low): 132.200
Indianapolis Center (Sector 80 King High): 134.175

KHUF Ground (Archives)
Terre Haute, Indiana, United States

Feed Status: UP
Listen in your browser - HTML5 player(in browser, HTML5)
Click here to listen with your own player(launches your MP3 player)

KHUF 121553Z 28012G20KT 10SM BKN016 OVC023 11/08 A2983 RMK AO2 PK WND 30027/1529 RAE14 SLP102 P0000 T01060083

KHUF Airport Info (Airnav.com)

KHUF Flight Activity (Flightaware)

Listeners: 0 out of 2995 total

Hulman Ground/Clearance: 121.600

KHUF Tower (Archives)
Terre Haute, Indiana, United States

Feed Status: UP
Listen in your browser - HTML5 player(in browser, HTML5)
Click here to listen with your own player(launches your MP3 player)

KHUF 121553Z 28012G20KT 10SM BKN016 OVC023 11/08 A2983 RMK AO2 PK WND 30027/1529 RAE14 SLP102 P0000 T01060083

KHUF Airport Info (Airnav.com)

KHUF Flight Activity (Flightaware)

Listeners: 0 out of 2995 total

Hulman Tower: 134.725

KHUL ASOS (Archives)
Houlton, Maine, United States

Feed Status: UP
Listen in your browser - HTML5 player(in browser, HTML5)
Click here to listen with your own player(launches your MP3 player)

KHUL 121553Z AUTO 15013G23KT 10SM OVC009 13/12 A2978 RMK AO2 CIG 007V012 SLP085 T01330117

KHUL Airport Info (Airnav.com)

KHUL Flight Activity (Flightaware)

Listeners: 0 out of 2995 total

Houlton ASOS: 132.025

KHUL/KPQI/ZBW01/15 (Archives)
Houlton, Maine, United States

Feed Status: UP
Listen in your browser - HTML5 player(in browser, HTML5)
Click here to listen with your own player(launches your MP3 player)

KHUL 121553Z AUTO 15013G23KT 10SM OVC009 13/12 A2978 RMK AO2 CIG 007V012 SLP085 T01330117

KHUL Airport Info (Airnav.com)

KHUL Flight Activity (Flightaware)

Listeners: 1 out of 2995 total

Boston Center (Sector 01 Millinocket High Sector): 128.050
Boston Center (Sector 01 Millinocket High Sector): 319.100
Boston Center (Surry 15 Low Sector): 120.250
Boston Center (Surry 15 Low Sector): 346.400
Boston Center (Surry 15 Low Sector): 124.750
Emergency/Guard: 121.500
Houlton CTAF/UNICOM: 122.800
Presque Isle CTAF/UNICOM: 122.800

KHUT Ground/Twr (Archives)
Hutchinson, Kansas, United States

Feed Status: UP
Listen in your browser - HTML5 player(in browser, HTML5)
Click here to listen with your own player(launches your MP3 player)

KHUT 121552Z 12008KT 10SM CLR 17/M06 A3022 RMK AO2 SLP227 T01671056

KHUT Airport Info (Airnav.com)

KHUT Flight Activity (Flightaware)

Listeners: 0 out of 2995 total

Emergency/Guard: 121.500
Hutchinson Ground: 121.900
Hutchinson Tower: 118.500

KHWD Ground/Tower (Archives)
Hayward, California, United States

Feed Status: UP
Listen in your browser - HTML5 player(in browser, HTML5)
Click here to listen with your own player(launches your MP3 player)

KHWD 121554Z 25010KT 10SM SCT016 13/08 A2975 RMK AO2 SLP085 T01330083

KHWD Airport Info (Airnav.com)

KHWD Flight Activity (Flightaware)

Listeners: 0 out of 2995 total

Hayward Ground: 121.400
Hayward Tower: 118.900
Hayward Tower: 120.200

KHWO ATIS (Archives)
Hollywood, Florida, United States

Feed Status: UP
Listen in your browser - HTML5 player(in browser, HTML5)
Click here to listen with your own player(launches your MP3 player)

KHWO 121553Z 31011KT CLR 27/16 A3016 RMK AO2 SLP211 T02670161 $

KHWO Airport Info (Airnav.com)

KHWO Flight Activity (Flightaware)

Listeners: 0 out of 2995 total

North Perry ATIS: 135.475

KHWO Ground (Archives)
Hollywood, Florida, United States

Feed Status: UP
Listen in your browser - HTML5 player(in browser, HTML5)
Click here to listen with your own player(launches your MP3 player)

KHWO 121553Z 31011KT CLR 27/16 A3016 RMK AO2 SLP211 T02670161 $

KHWO Airport Info (Airnav.com)

KHWO Flight Activity (Flightaware)

Listeners: 1 out of 2995 total

North Perry Ground: 120.450

KHWO Tower (Both) #1 (Archives)
Hollywood, Florida, United States

Feed Status: UP
Listen in your browser - HTML5 player(in browser, HTML5)
Click here to listen with your own player(launches your MP3 player)

KHWO 121553Z 31011KT CLR 27/16 A3016 RMK AO2 SLP211 T02670161 $

KHWO Airport Info (Airnav.com)

KHWO Flight Activity (Flightaware)

Listeners: 0 out of 2995 total

North Perry Tower (Primary): 132.100
North Perry Tower (Secondary): 134.300

KHWO Tower (Both) #2 (Archives)
Hollywood, Florida, United States

Feed Status: UP
Listen in your browser - HTML5 player(in browser, HTML5)
Click here to listen with your own player(launches your MP3 player)

KHWO 121553Z 31011KT CLR 27/16 A3016 RMK AO2 SLP211 T02670161 $

KHWO Airport Info (Airnav.com)

KHWO Flight Activity (Flightaware)

Listeners: 0 out of 2995 total

North Perry Tower (Primary): 132.100
North Perry Tower (Secondary): 134.300

KHWO Tower (Primary) #1
Hollywood, Florida, United States

Feed Status: DOWN
Offline since: 2024-03-27 01:44:22 UTC

KHWO 121553Z 31011KT CLR 27/16 A3016 RMK AO2 SLP211 T02670161 $

KHWO Airport Info (Airnav.com)

North Perry Tower (Primary): 132.100

KHWO Tower (Primary) #2 (Archives)
Hollywood, Florida, United States

Feed Status: UP
Listen in your browser - HTML5 player(in browser, HTML5)
Click here to listen with your own player(launches your MP3 player)

KHWO 121553Z 31011KT CLR 27/16 A3016 RMK AO2 SLP211 T02670161 $

KHWO Airport Info (Airnav.com)

KHWO Flight Activity (Flightaware)

Listeners: 0 out of 2995 total

North Perry Tower (Primary): 132.100

KHWO Tower (Secondary) #1 (Archives)
Hollywood, Florida, United States

Feed Status: UP
Listen in your browser - HTML5 player(in browser, HTML5)
Click here to listen with your own player(launches your MP3 player)

KHWO 121553Z 31011KT CLR 27/16 A3016 RMK AO2 SLP211 T02670161 $

KHWO Airport Info (Airnav.com)

KHWO Flight Activity (Flightaware)

Listeners: 0 out of 2995 total

North Perry Tower (Secondary): 134.300

KHWO Tower (Secondary) #2 (Archives)
Hollywood, Florida, United States

Feed Status: UP
Listen in your browser - HTML5 player(in browser, HTML5)
Click here to listen with your own player(launches your MP3 player)

KHWO 121553Z 31011KT CLR 27/16 A3016 RMK AO2 SLP211 T02670161 $

KHWO Airport Info (Airnav.com)

KHWO Flight Activity (Flightaware)

Listeners: 0 out of 2995 total

North Perry Tower (Secondary): 134.300

KHWV CTAF (Archives)
Shirley, New York, United States

Feed Status: UP
Listen in your browser - HTML5 player(in browser, HTML5)
Click here to listen with your own player(launches your MP3 player)

KHWV 121556Z AUTO 19016G29KT 6SM HZ OVC008 14/11 A2939 RMK AO2 PK WND 18029/1505 SLP950 T01440111

KHWV Airport Info (Airnav.com)

KHWV Flight Activity (Flightaware)

Listeners: 0 out of 2995 total

Brookhaven CTAF: 122.800
Emergency/Guard: 121.500

KHXD Ground/Tower (Archives)
Hilton Head Island, South Carolina, United States

Feed Status: UP
Listen in your browser - HTML5 player(in browser, HTML5)
Click here to listen with your own player(launches your MP3 player)

KHXD 121550Z 29013G18KT 10SM CLR 21/07 A2999

KHXD Airport Info (Airnav.com)

KHXD Flight Activity (Flightaware)

Listeners: 0 out of 2995 total

Hilton Head Ground: 121.100
Hilton Head Tower: 118.975

Boston Approach (Cape North) (Archives)
Hyannis, Massachusetts, United States

Feed Status: UP
Listen in your browser - HTML5 player(in browser, HTML5)
Click here to listen with your own player(launches your MP3 player)

KFMH 121556Z 18028G38KT 2SM BR OVC003 13/13 A2953

KFMH Airport Info (Airnav.com)

KFMH Flight Activity (Flightaware)

Listeners: 0 out of 2995 total

Boston Approach (Cape North Arrival): 118.200

KHYI Gnd/Twr/Misc (Archives)
Austin, Texas, United States

Feed Status: UP
Listen in your browser - HTML5 player(in browser, HTML5)
Click here to listen with your own player(launches your MP3 player)

KHYI 121556Z 14007KT 10SM CLR 23/13 A3029 RMK AO2 SLP253 T02280128

KHYI Airport Info (Airnav.com)

KHYI Flight Activity (Flightaware)

Listeners: 3 out of 2995 total

Redbird FBO ASRI: 130.850
San Marcos Ground: 120.125
San Marcos Tower: 126.825

KHYS CTAF (Archives)
Hays, Kansas, United States

Feed Status: UP
Listen in your browser - HTML5 player(in browser, HTML5)
Click here to listen with your own player(launches your MP3 player)

KHYS 121556Z AUTO 13013KT 10SM CLR 16/M07 A3018 RMK AO2 SLP225 T01561072

KHYS Airport Info (Airnav.com)

KHYS Flight Activity (Flightaware)

Listeners: 0 out of 2995 total

Hays CTAF: 122.800

KIAG Del/Gnd/Twr #1
Niagara Falls, New York, United States

Feed Status: DOWN
Offline since: 2024-04-05 20:07:22 UTC

KIAG 121612Z 23019G34KT 10SM BKN015 OVC029 10/06 A2919 RMK AO2 PK WND 22034/1554 T01000061

KIAG Airport Info (Airnav.com)

Niagara Clearance Delivery: 119.250
Niagara Falls Pilot-to-Pilot Advisory: 122.050
Niagara Ground: 121.700
Niagara Tower: 118.500

KIAG Del/Gnd/Twr #2 (Archives)
Niagara Falls, New York, United States

Feed Status: UP
Listen in your browser - HTML5 player(in browser, HTML5)
Click here to listen with your own player(launches your MP3 player)

KIAG 121612Z 23019G34KT 10SM BKN015 OVC029 10/06 A2919 RMK AO2 PK WND 22034/1554 T01000061

KIAG Airport Info (Airnav.com)

KIAG Flight Activity (Flightaware)

Listeners: 0 out of 2995 total

Niagara Clearance Delivery: 119.250
Niagara Emergency/Guard: 121.500
Niagara Ground: 121.700
Niagara Tower: 118.500
Niagara UNICOM: 122.950

KIKV Del/CTAF (Archives)
Ankeny, Iowa, United States

Feed Status: UP
Listen in your browser - HTML5 player(in browser, HTML5)
Click here to listen with your own player(launches your MP3 player)

KIKV 121615Z AUTO 33014G25KT 9SM CLR 14/02 A3010 RMK AO2

KIKV Airport Info (Airnav.com)

KIKV Flight Activity (Flightaware)

Listeners: 0 out of 2995 total

Ankeny Clearance Delivery (Des Moines via RCO): 126.650
Ankeny CTAF: 122.900

KILM Gnd/Twr/App (Archives)
Wilmington, North Carolina, United States

Feed Status: UP
Listen in your browser - HTML5 player(in browser, HTML5)
Click here to listen with your own player(launches your MP3 player)

KILM 121553Z 24013G23KT 10SM CLR 22/09 A2981 RMK AO2 PK WND 25026/1459 SLP093 T02220089

KILM Airport Info (Airnav.com)

KILM Flight Activity (Flightaware)

Listeners: 2 out of 2995 total

Emergency/Guard: 121.500
Wilmington Approach: 118.250
Wilmington Approach: 135.750
Wilmington Approach: 317.425
Wilmington Approach: 284.650
Wilmington Ground: 121.900
Wilmington Ground: 348.600
Wilmington Tower: 119.900
Wilmington Tower: 239.300

KILM Gnd/Twr/App/ZDC (Archives)
Wilmington, North Carolina, United States

Feed Status: UP
Listen in your browser - HTML5 player(in browser, HTML5)
Click here to listen with your own player(launches your MP3 player)

KILM 121553Z 24013G23KT 10SM CLR 22/09 A2981 RMK AO2 PK WND 25026/1459 SLP093 T02220089

KILM Airport Info (Airnav.com)

KILM Flight Activity (Flightaware)

Listeners: 0 out of 2995 total

Emergency/Guard: 121.500
Washington Center (Sector 35 Wilmington High): 269.150
Washington Center (Sector 35 Wilmington High): 124.025
Wilmington Approach: 317.425
Wilmington Approach: 284.650
Wilmington Approach: 135.750
Wilmington Approach: 118.250
Wilmington Ground: 121.900
Wilmington Ground: 348.600
Wilmington Tower: 239.300
Wilmington Tower: 119.900

KIMS AWOS (Archives)
Madison, Indiana, United States

Feed Status: UP
Listen in your browser - HTML5 player(in browser, HTML5)
Click here to listen with your own player(launches your MP3 player)

KIMS 121615Z AUTO 25009G17KT 5SM BR OVC011 07/07 A2982 RMK AO2

KIMS Airport Info (Airnav.com)

KIMS Flight Activity (Flightaware)

Listeners: 0 out of 2995 total

Madison AWOS Weather: 119.175

KIMS CTAF (Archives)
Madison, Indiana, United States

Feed Status: UP
Listen in your browser - HTML5 player(in browser, HTML5)
Click here to listen with your own player(launches your MP3 player)

KIMS 121615Z AUTO 25009G17KT 5SM BR OVC011 07/07 A2982 RMK AO2

KIMS Airport Info (Airnav.com)

KIMS Flight Activity (Flightaware)

Listeners: 0 out of 2995 total

Madison CTAF: 123.000

KINF CTAF (Archives)
Inverness, Florida, United States

Feed Status: UP
Listen in your browser - HTML5 player(in browser, HTML5)
Click here to listen with your own player(launches your MP3 player)

KINF 121615Z AUTO 30004KT 5SM HZ BKN047 23/13 A3016 RMK AO2

KINF Airport Info (Airnav.com)

KINF Flight Activity (Flightaware)

Listeners: 0 out of 2995 total

Inverness CTAF: 122.725

KCID Gnd/Twr/App/KIOW (Archives)
Iowa City, Iowa, United States

Feed Status: UP
Listen in your browser - HTML5 player(in browser, HTML5)
Click here to listen with your own player(launches your MP3 player)

KCID 121552Z 31020G28KT 10SM CLR 14/04 A2998 RMK AO2 PK WND 31029/1541 SLP153 T01390039

KCID Airport Info (Airnav.com)

KCID Flight Activity (Flightaware)

Listeners: 0 out of 2995 total

Cedar Rapids Approach (091-269): 119.700
Cedar Rapids Approach (270-090): 134.050
Cedar Rapids Clearance Delivery: 125.450
Cedar Rapids Ground (0500-2330): 121.600
Cedar Rapids Tower (0500-2330): 118.700
UNICOM C17 (Marion) and surrounding area: 122.700
UNICOM IA24 Green Castle: 122.900
UNICOM KIOW (Iowa City) and surrounding area: 122.800

KIPJ CTAF/Del (Archives)
Lincolnton, North Carolina, United States

Feed Status: UP
Listen in your browser - HTML5 player(in browser, HTML5)
Click here to listen with your own player(launches your MP3 player)

KIPJ 121605Z AUTO 24019G24KT 10SM CLR 18/00 A2980 RMK AO2 T01840000

KIPJ Airport Info (Airnav.com)

KIPJ Flight Activity (Flightaware)

Listeners: 0 out of 2995 total

Lincolnton Clearance Delivery: 124.900
Lincolnton CTAF: 123.050

KIPT Gnd/Twr/ZNY (Archives)
Williamsport, Pennsylvania, United States

Feed Status: UP
Listen in your browser - HTML5 player(in browser, HTML5)
Click here to listen with your own player(launches your MP3 player)

KIPT 121554Z 27017G24KT 10SM BKN039 BKN050 OVC110 14/07 A2932 RMK AO2 PK WND 25030/1544 RAE1456 SLP925 P0000 T01440067

KIPT Airport Info (Airnav.com)

KIPT Flight Activity (Flightaware)

Listeners: 0 out of 2995 total

Emergency/Guard: 121.500
Flight Service: 122.200
Williamsport Ground: 121.900
Williamsport Tower: 119.100

KISM Ground (Archives)
Orlando, Florida, United States

Feed Status: UP
Listen in your browser - HTML5 player(in browser, HTML5)
Click here to listen with your own player(launches your MP3 player)

KJSM Airport Info (Airnav.com)

KJSM Flight Activity (Flightaware)

Listeners: 0 out of 2995 total

Kissimmee Ground/Clearance Delivery: 121.700

KISM Ground/Tower (Archives)
Orlando, Florida, United States

Feed Status: UP
Listen in your browser - HTML5 player(in browser, HTML5)
Click here to listen with your own player(launches your MP3 player)

KJSM Airport Info (Airnav.com)

KJSM Flight Activity (Flightaware)

Listeners: 1 out of 2995 total

Kissimmee Ground/Clearance Delivery: 121.700
Kissimmee Tower/CTAF: 124.450

KISM Tower (Archives)
Orlando, Florida, United States

Feed Status: UP
Listen in your browser - HTML5 player(in browser, HTML5)
Click here to listen with your own player(launches your MP3 player)

KJSM Airport Info (Airnav.com)

KJSM Flight Activity (Flightaware)

Listeners: 0 out of 2995 total

Kissimmee Tower/CTAF: 124.450

KIUA CTAF (Archives)
Canandaigua, New York, United States

Feed Status: UP
Listen in your browser - HTML5 player(in browser, HTML5)
Click here to listen with your own player(launches your MP3 player)

KIUA 121615Z AUTO 25016G31KT 10SM BKN036 OVC043 13/06 A2920 RMK AO2 T01270063

KIUA Airport Info (Airnav.com)

KIUA Flight Activity (Flightaware)

Listeners: 0 out of 2995 total

Canandaigua CTAF: 122.800

KIWA ATIS (Archives)
Phoenix, Arizona, United States

Feed Status: UP
Listen in your browser - HTML5 player(in browser, HTML5)
Click here to listen with your own player(launches your MP3 player)

KIWA 121549Z 16009KT 10SM CLR 24/02 A2989

KIWA Airport Info (Airnav.com)

KIWA Flight Activity (Flightaware)

Listeners: 0 out of 2995 total

Gateway ATIS: 133.500

KIWA Clearance Delivery (Archives)
Phoenix, Arizona, United States

Feed Status: UP
Listen in your browser - HTML5 player(in browser, HTML5)
Click here to listen with your own player(launches your MP3 player)

KIWA 121549Z 16009KT 10SM CLR 24/02 A2989

KIWA Airport Info (Airnav.com)

KIWA Flight Activity (Flightaware)

Listeners: 1 out of 2995 total

Gateway Clearance Delivery: 135.050

KIWA Ground (Archives)
Phoenix, Arizona, United States

Feed Status: UP
Listen in your browser - HTML5 player(in browser, HTML5)
Click here to listen with your own player(launches your MP3 player)

KIWA 121549Z 16009KT 10SM CLR 24/02 A2989

KIWA Airport Info (Airnav.com)

KIWA Flight Activity (Flightaware)

Listeners: 0 out of 2995 total

Gateway Ground: 128.250

KIWA Tower (Archives)
Phoenix, Arizona, United States

Feed Status: UP
Listen in your browser - HTML5 player(in browser, HTML5)
Click here to listen with your own player(launches your MP3 player)

KIWA 121549Z 16009KT 10SM CLR 24/02 A2989

KIWA Airport Info (Airnav.com)

KIWA Flight Activity (Flightaware)

Listeners: 4 out of 2995 total

Gateway Tower (East): 124.750
Gateway Tower (West): 120.600

KIWS CTAF (Archives)
Houston, Texas, United States

Feed Status: UP
Listen in your browser - HTML5 player(in browser, HTML5)
Click here to listen with your own player(launches your MP3 player)

METAR NOT AVAILABLE

KIWS Airport Info (Airnav.com)

KIWS Flight Activity (Flightaware)

Listeners: 0 out of 2995 total

West Houston CTAF: 123.050

KIXD Ground/Tower/K34 (Archives)
Olathe, Kansas, United States

Feed Status: UP
Listen in your browser - HTML5 player(in browser, HTML5)
Click here to listen with your own player(launches your MP3 player)

KIXD 121553Z 32009G16KT 10SM CLR 14/M02 A3021 RMK AO2 SLP229 T01441022

KIXD Airport Info (Airnav.com)

KIXD Flight Activity (Flightaware)

Listeners: 0 out of 2995 total

K34 CTAF: 122.800
New Century Ground: 124.300
New Century Tower: 133.000

KJCA CTAF (Archives)
Jefferson, Georgia, United States

Feed Status: UP
Listen in your browser - HTML5 player(in browser, HTML5)
Click here to listen with your own player(launches your MP3 player)

KJCA 121615Z AUTO 27018G28KT 250V310 10SM CLR 17/02 A2995 RMK AO2 T01690016

KJCA Airport Info (Airnav.com)

KJCA Flight Activity (Flightaware)

Listeners: 0 out of 2995 total

Jefferson CTAF: 122.975

KJKA Twr/CTAF (Archives)
Gulf Shores, Alabama, United States

Feed Status: UP
Listen in your browser - HTML5 player(in browser, HTML5)
Click here to listen with your own player(launches your MP3 player)

KPNS 121553Z AUTO 33016G23KT 10SM CLR 21/01 A3019 RMK AO2 SLP226 T02110011

KPNS Airport Info (Airnav.com)

KPNS Flight Activity (Flightaware)

Listeners: 1 out of 2995 total

Jack Edwards Tower/CTAF: 118.650

KJLN ATIS (Archives)
Joplin, Missouri, United States

Feed Status: UP
Listen in your browser - HTML5 player(in browser, HTML5)
Click here to listen with your own player(launches your MP3 player)

KJLN 121553Z 34009KT 10SM CLR 16/M01 A3025 RMK AO2 SLP240 T01561006

KJLN Airport Info (Airnav.com)

KJLN Flight Activity (Flightaware)

Listeners: 0 out of 2995 total

Joplin ATIS: 120.850

KJLN Ground (Archives)
Joplin, Missouri, United States

Feed Status: UP
Listen in your browser - HTML5 player(in browser, HTML5)
Click here to listen with your own player(launches your MP3 player)

KJLN 121553Z 34009KT 10SM CLR 16/M01 A3025 RMK AO2 SLP240 T01561006

KJLN Airport Info (Airnav.com)

KJLN Flight Activity (Flightaware)

Listeners: 0 out of 2995 total

Joplin Ground: 121.600

KJLN Ground/Tower (Archives)
Joplin, Missouri, United States

Feed Status: UP
Listen in your browser - HTML5 player(in browser, HTML5)
Click here to listen with your own player(launches your MP3 player)

KJLN 121553Z 34009KT 10SM CLR 16/M01 A3025 RMK AO2 SLP240 T01561006

KJLN Airport Info (Airnav.com)

KJLN Flight Activity (Flightaware)

Listeners: 0 out of 2995 total

Joplin Ground: 121.600
Joplin Tower: 119.800

KJLN Tower (Archives)
Joplin, Missouri, United States

Feed Status: UP
Listen in your browser - HTML5 player(in browser, HTML5)
Click here to listen with your own player(launches your MP3 player)

KJLN 121553Z 34009KT 10SM CLR 16/M01 A3025 RMK AO2 SLP240 T01561006

KJLN Airport Info (Airnav.com)

KJLN Flight Activity (Flightaware)

Listeners: 0 out of 2995 total

Joplin Tower: 119.800

KJNX AWOS (Archives)
Smithfield, North Carolina, United States

Feed Status: UP
Listen in your browser - HTML5 player(in browser, HTML5)
Click here to listen with your own player(launches your MP3 player)

KJNX 121610Z AUTO 27010G17KT 10SM BKN065 OVC075 20/06 A2975 RMK AO2

KJNX Airport Info (Airnav.com)

KJNX Flight Activity (Flightaware)

Listeners: 0 out of 2995 total

Johnston AWOS: 120.225

KJNX CTAF (Archives)
Smithfield, North Carolina, United States

Feed Status: UP
Listen in your browser - HTML5 player(in browser, HTML5)
Click here to listen with your own player(launches your MP3 player)

KJNX 121610Z AUTO 27010G17KT 10SM BKN065 OVC075 20/06 A2975 RMK AO2

KJNX Airport Info (Airnav.com)

KJNX Flight Activity (Flightaware)

Listeners: 0 out of 2995 total

Johnston CTAF: 122.725

KJQF Ground/Tower (Archives)
Concord, North Carolina, United States

Feed Status: UP
Listen in your browser - HTML5 player(in browser, HTML5)
Click here to listen with your own player(launches your MP3 player)

KJQF 121555Z 25017G27KT 10SM FEW090 19/02 A2982

KJQF Airport Info (Airnav.com)

KJQF Flight Activity (Flightaware)

Listeners: 1 out of 2995 total

Concord Ground: 121.850
Concord Tower: 134.650

KJRA/KJRB CTAF #3 (Archives)
New York, New York, United States

Feed Status: UP
Listen in your browser - HTML5 player(in browser, HTML5)
Click here to listen with your own player(launches your MP3 player)


Listeners: 0 out of 2995 total

Hudson River/New York Harbor/KJRA West 30th Street Heliport: 123.050

KJWY/2TS6 CTAF/Unicom (Archives)
Midlothian/Waxahachie, Texas, United States

Feed Status: UP
Listen in your browser - HTML5 player(in browser, HTML5)
Click here to listen with your own player(launches your MP3 player)

KJWY 121615Z AUTO 16007KT 10SM BKN110 21/10 A3030 RMK AO2 T02100101

KJWY Airport Info (Airnav.com)

KJWY Flight Activity (Flightaware)

Listeners: 0 out of 2995 total

Mid-Way CTAF/UNICOM: 122.975

KJYO AWOS (Archives)
Leesburg, Virginia, United States

Feed Status: UP
Listen in your browser - HTML5 player(in browser, HTML5)
Click here to listen with your own player(launches your MP3 player)

KJYO 121615Z AUTO 27016G28KT 10SM BKN060 BKN075 17/07 A2950 RMK AO2

KJYO Airport Info (Airnav.com)

KJYO Flight Activity (Flightaware)

Listeners: 0 out of 2995 total

Leesburg AWOS: 125.225

KJYO CTAF/Tower (Archives)
Leesburg, Virginia, United States

Feed Status: UP
Listen in your browser - HTML5 player(in browser, HTML5)
Click here to listen with your own player(launches your MP3 player)

KJYO 121615Z AUTO 27016G28KT 10SM BKN060 BKN075 17/07 A2950 RMK AO2

KJYO Airport Info (Airnav.com)

KJYO Flight Activity (Flightaware)

Listeners: 0 out of 2995 total

Leesburg Tower/CTAF: 127.500

KJYO Del/Gnd (Archives)
Leesburg, Virginia, United States

Feed Status: UP
Listen in your browser - HTML5 player(in browser, HTML5)
Click here to listen with your own player(launches your MP3 player)

KJYO 121615Z AUTO 27016G28KT 10SM BKN060 BKN075 17/07 A2950 RMK AO2

KJYO Airport Info (Airnav.com)

KJYO Flight Activity (Flightaware)

Listeners: 0 out of 2995 total

Leesburg Clearance Delivery (Potomac TRACON): 118.550
Leesburg Ground: 120.500

KJYO Del/Gnd/Twr/CTAF (Archives)
Leesburg, Virginia, United States

Feed Status: UP
Listen in your browser - HTML5 player(in browser, HTML5)
Click here to listen with your own player(launches your MP3 player)

KJYO 121615Z AUTO 27016G28KT 10SM BKN060 BKN075 17/07 A2950 RMK AO2

KJYO Airport Info (Airnav.com)

KJYO Flight Activity (Flightaware)

Listeners: 0 out of 2995 total

Leesburg Clearance Delivery (Potomac TRACON): 118.550
Leesburg Ground: 120.500
Leesburg Tower/CTAF: 127.500

ZDC Sectors 12/04 (Archives)
Leesburg, Virginia, United States

Feed Status: UP
Listen in your browser - HTML5 player(in browser, HTML5)
Click here to listen with your own player(launches your MP3 player)

KIAD 121552Z 27017G29KT 10SM BKN060 18/04 A2949 RMK AO2 PK WND 27029/1548 SLP983 T01830044

KIAD Airport Info (Airnav.com)

KIAD Flight Activity (Flightaware)

Listeners: 2 out of 2995 total

Washington Center (Sector 04 Pinion High): 133.975
Washington Center (Sector 12 Brooke High): 126.875
Washington Center (ZDC Guard Dog Low (Shared w/Potomac TRACON): 135.525

KJZI CTAF (Archives)
Charleston, South Carolina, United States

Feed Status: UP
Listen in your browser - HTML5 player(in browser, HTML5)
Click here to listen with your own player(launches your MP3 player)

KJZI 121615Z AUTO 27013G19KT 10SM CLR 22/08 A2994 RMK AO2

KJZI Airport Info (Airnav.com)

KJZI Flight Activity (Flightaware)

Listeners: 0 out of 2995 total

Charleston CTAF: 122.800

L35 AWOS
Big Bear City, California, United States

Feed Status: DOWN
Offline since: 2024-04-12 16:55:05 UTC

KL35 121615Z AUTO 28007KT 10SM CLR 12/M04 A3001 RMK AO2

KL35 Airport Info (Airnav.com)

Big Bear AWOS: 135.925

KLAF App/Dep (Archives)
Lafayette, Indiana, United States

Feed Status: UP
Listen in your browser - HTML5 player(in browser, HTML5)
Click here to listen with your own player(launches your MP3 player)

KLAF 121554Z 31015G26KT 10SM BKN020 BKN031 BKN055 12/08 A2975 RMK AO2 PK WND 29030/1506 SLP074 T01220078

KLAF Airport Info (Airnav.com)

KLAF Flight Activity (Flightaware)

Listeners: 0 out of 2995 total

Grissom Approach: 123.850

KLAF ATIS (Archives)
Lafayette, Indiana, United States

Feed Status: UP
Listen in your browser - HTML5 player(in browser, HTML5)
Click here to listen with your own player(launches your MP3 player)

KLAF 121554Z 31015G26KT 10SM BKN020 BKN031 BKN055 12/08 A2975 RMK AO2 PK WND 29030/1506 SLP074 T01220078

KLAF Airport Info (Airnav.com)

KLAF Flight Activity (Flightaware)

Listeners: 0 out of 2995 total

Lafayette ATIS: 127.750

KLAF Ground (Archives)
Lafayette, Indiana, United States

Feed Status: UP
Listen in your browser - HTML5 player(in browser, HTML5)
Click here to listen with your own player(launches your MP3 player)

KLAF 121554Z 31015G26KT 10SM BKN020 BKN031 BKN055 12/08 A2975 RMK AO2 PK WND 29030/1506 SLP074 T01220078

KLAF Airport Info (Airnav.com)

KLAF Flight Activity (Flightaware)

Listeners: 0 out of 2995 total

Lafayette Ground: 121.900

KLAF Tower (Archives)
Lafayette, Indiana, United States

Feed Status: UP
Listen in your browser - HTML5 player(in browser, HTML5)
Click here to listen with your own player(launches your MP3 player)

KLAF 121554Z 31015G26KT 10SM BKN020 BKN031 BKN055 12/08 A2975 RMK AO2 PK WND 29030/1506 SLP074 T01220078

KLAF Airport Info (Airnav.com)

KLAF Flight Activity (Flightaware)

Listeners: 5 out of 2995 total

Lafayette Tower: 119.600

KLAL Arrival ATIS (Archives)
Lakeland, Florida, United States

Feed Status: UP
Listen in your browser - HTML5 player(in browser, HTML5)
Click here to listen with your own player(launches your MP3 player)

KLAL 121550Z 33008KT 10SM SKC 23/08 A3018

KLAL Airport Info (Airnav.com)

KLAL Flight Activity (Flightaware)

Listeners: 3 out of 2995 total

Lakeland Arrival ATIS (Sun 'n Fun): 128.575

KLAL ATIS (Archives)
Lakeland, Florida, United States

Feed Status: UP
Listen in your browser - HTML5 player(in browser, HTML5)
Click here to listen with your own player(launches your MP3 player)

KLAL 121550Z 33008KT 10SM SKC 23/08 A3018

KLAL Airport Info (Airnav.com)

KLAL Flight Activity (Flightaware)

Listeners: 2 out of 2995 total

Lakeland ATIS: 118.025

KLAL Departure Monitor (Sun 'n Fun) (Archives)
Lakeland, Florida, United States

Feed Status: UP
Listen in your browser - HTML5 player(in browser, HTML5)
Click here to listen with your own player(launches your MP3 player)

KLAL 121550Z 33008KT 10SM SKC 23/08 A3018

KLAL Airport Info (Airnav.com)

KLAL Flight Activity (Flightaware)

Listeners: 2 out of 2995 total

Lakeland Departure Monitor (Rwy 10L/28R): 133.125
Lakeland Departure Monitor (Rwy 10R/28L): 127.850

KLAL Ground/Advisory (Archives)
Lakeland, Florida, United States

Feed Status: UP
Listen in your browser - HTML5 player(in browser, HTML5)
Click here to listen with your own player(launches your MP3 player)

KLAL 121550Z 33008KT 10SM SKC 23/08 A3018

KLAL Airport Info (Airnav.com)

KLAL Flight Activity (Flightaware)

Listeners: 5 out of 2995 total

Lakeland Ground: 121.400
Lakeland Helicopter: 123.025
Lakeland IFR Ground Control: 127.100
Paradise City Advisory: 123.625
Sun 'n Fun Ground Advisory: 126.075
Warbird Parking Advisory: 125.025

KLAL Lake Parker Arrival (Archives)
Lakeland, Florida, United States

Feed Status: UP
Listen in your browser - HTML5 player(in browser, HTML5)
Click here to listen with your own player(launches your MP3 player)

KLAL 121550Z 33008KT 10SM SKC 23/08 A3018

KLAL Airport Info (Airnav.com)

KLAL Flight Activity (Flightaware)

Listeners: 33 out of 2995 total

Lakeland Tower: 124.500

KLAL Tower (North) (Archives)
Lakeland, Florida, United States

Feed Status: UP
Listen in your browser - HTML5 player(in browser, HTML5)
Click here to listen with your own player(launches your MP3 player)

KLAL 121550Z 33008KT 10SM SKC 23/08 A3018

KLAL Airport Info (Airnav.com)

KLAL Flight Activity (Flightaware)

Listeners: 41 out of 2995 total

Lakeland Tower (North): 135.225

KLAL Tower (North/South) (Archives)
Lakeland, Florida, United States

Feed Status: UP
Listen in your browser - HTML5 player(in browser, HTML5)
Click here to listen with your own player(launches your MP3 player)

KLAL 121550Z 33008KT 10SM SKC 23/08 A3018

KLAL Airport Info (Airnav.com)

KLAL Flight Activity (Flightaware)

Listeners: 27 out of 2995 total

Lakeland Tower (North): 135.225
Lakeland Tower (South): 125.425

KLAL Tower (South) (Archives)
Lakeland, Florida, United States

Feed Status: UP
Listen in your browser - HTML5 player(in browser, HTML5)
Click here to listen with your own player(launches your MP3 player)

KLAL 121550Z 33008KT 10SM SKC 23/08 A3018

KLAL Airport Info (Airnav.com)

KLAL Flight Activity (Flightaware)

Listeners: 2 out of 2995 total

Lakeland Tower (South): 125.425

Sun 'n Fun Air Show (Archives)
Lakeland, Florida, United States

Feed Status: UP
Listen in your browser - HTML5 player(in browser, HTML5)
Click here to listen with your own player(launches your MP3 player)

KLAL 121550Z 33008KT 10SM SKC 23/08 A3018

KLAL Airport Info (Airnav.com)

KLAL Flight Activity (Flightaware)

Listeners: 16 out of 2995 total

Air Boss: Priv

Sun 'n Fun Air Show/Military (Archives)
Lakeland, Florida, United States

Feed Status: UP
Listen in your browser - HTML5 player(in browser, HTML5)
Click here to listen with your own player(launches your MP3 player)

KLAL 121550Z 33008KT 10SM SKC 23/08 A3018

KLAL Airport Info (Airnav.com)

KLAL Flight Activity (Flightaware)

Listeners: 3 out of 2995 total

Air Boss: Priv
Mlitary Performers: Priv

Sun 'n Fun Military Performers (Archives)
Lakeland, Florida, United States

Feed Status: UP
Listen in your browser - HTML5 player(in browser, HTML5)
Click here to listen with your own player(launches your MP3 player)

KLAL 121550Z 33008KT 10SM SKC 23/08 A3018

KLAL Airport Info (Airnav.com)

KLAL Flight Activity (Flightaware)

Listeners: 4 out of 2995 total

Mlitary Performers: Priv

Tampa App/Dep (LAL Area) (Archives)
Lakeland, Florida, United States

Feed Status: UP
Listen in your browser - HTML5 player(in browser, HTML5)
Click here to listen with your own player(launches your MP3 player)

KLAL 121550Z 33008KT 10SM SKC 23/08 A3018

KLAL Airport Info (Airnav.com)

KLAL Flight Activity (Flightaware)

Listeners: 1 out of 2995 total

Tampa Approach (East of TPA 4000'/below): 119.900
Tampa Approach (Lakeland Area): 120.650

KLBE Ground/Tower (Archives)
Latrobe, Pennsylvania, United States

Feed Status: UP
Listen in your browser - HTML5 player(in browser, HTML5)
Click here to listen with your own player(launches your MP3 player)

KLBE 121547Z 24013G21KT 10SM -RA BKN025 OVC037 10/06 A2946

KLBE Airport Info (Airnav.com)

KLBE Flight Activity (Flightaware)

Listeners: 0 out of 2995 total

Latrobe Ground: 121.800
Latrobe Tower: 125.000

KLBF CTAF/Denver Center (Archives)
North Platte, Nebraska, United States

Feed Status: UP
Listen in your browser - HTML5 player(in browser, HTML5)
Click here to listen with your own player(launches your MP3 player)

KLBF 121553Z AUTO 14012G21KT 10SM CLR 14/M05 A3013 RMK AO2 SLP204 T01441050

KLBF Airport Info (Airnav.com)

KLBF Flight Activity (Flightaware)

Listeners: 2 out of 2995 total

Denver Center (Sector 19 North Platte Low): 132.700
North Platte CTAF: 123.000

KLBX CTAF
Angleton/Lake Jackson, Texas, United States

Feed Status: DOWN
Offline since: 2023-10-03 17:35:40 UTC

KLBX 121553Z AUTO 08006KT 10SM CLR 24/09 A3030 RMK AO2 SLP258 T02390094

KLBX Airport Info (Airnav.com)

KLBX CTAF: 123.000

KLCI AWOS (Archives)
Laconia, New Hampshire, United States

Feed Status: UP
Listen in your browser - HTML5 player(in browser, HTML5)
Click here to listen with your own player(launches your MP3 player)

KLCI 121556Z AUTO 17010G18KT 10SM OVC014 16/14 A2944 RMK AO2 RAE52 SLP972 P0001 T01560144

KLCI Airport Info (Airnav.com)

KLCI Flight Activity (Flightaware)

Listeners: 0 out of 2995 total

Laconia AWOS: 133.525

KLCI Clearance Delivery (Archives)
Laconia, New Hampshire, United States

Feed Status: UP
Listen in your browser - HTML5 player(in browser, HTML5)
Click here to listen with your own player(launches your MP3 player)

KLCI 121556Z AUTO 17010G18KT 10SM OVC014 16/14 A2944 RMK AO2 RAE52 SLP972 P0001 T01560144

KLCI Airport Info (Airnav.com)

KLCI Flight Activity (Flightaware)

Listeners: 0 out of 2995 total

Laconia Clearance Delivery (Boston Approach): 119.850

KLCI Del/CTAF (Archives)
Laconia, New Hampshire, United States

Feed Status: UP
Listen in your browser - HTML5 player(in browser, HTML5)
Click here to listen with your own player(launches your MP3 player)

KLCI 121556Z AUTO 17010G18KT 10SM OVC014 16/14 A2944 RMK AO2 RAE52 SLP972 P0001 T01560144

KLCI Airport Info (Airnav.com)

KLCI Flight Activity (Flightaware)

Listeners: 0 out of 2995 total

Laconia CTAF: 123.000

KLCK ATIS/AWOS
Columbus, Ohio, United States

Feed Status: DOWN
Offline since: 2024-04-08 20:05:05 UTC

KLCK 121555Z AUTO 25016G20KT 10SM OVC016 10/08 A2962 RMK AO2 T01010081

KLCK Airport Info (Airnav.com)

Rick ATIS/AWOS: 132.750

KLCK Del/Gnd (Archives)
Columbus, Ohio, United States

Feed Status: UP
Listen in your browser - HTML5 player(in browser, HTML5)
Click here to listen with your own player(launches your MP3 player)

KLCK 121555Z AUTO 25016G20KT 10SM OVC016 10/08 A2962 RMK AO2 T01010081

KLCK Airport Info (Airnav.com)

KLCK Flight Activity (Flightaware)

Listeners: 1 out of 2995 total

Rick Clearance Delivery/Ground: 125.275

KLCK Del/Gnd (UHF) (Archives)
Columbus, Ohio, United States

Feed Status: UP
Listen in your browser - HTML5 player(in browser, HTML5)
Click here to listen with your own player(launches your MP3 player)

KLCK 121555Z AUTO 25016G20KT 10SM OVC016 10/08 A2962 RMK AO2 T01010081

KLCK Airport Info (Airnav.com)

KLCK Flight Activity (Flightaware)

Listeners: 0 out of 2995 total

Rick Clearance Delivery/Ground (UHF/Military): 275.800

KLCK Emergency/Guard (Archives)
Columbus, Ohio, United States

Feed Status: UP
Listen in your browser - HTML5 player(in browser, HTML5)
Click here to listen with your own player(launches your MP3 player)

KLCK 121555Z AUTO 25016G20KT 10SM OVC016 10/08 A2962 RMK AO2 T01010081

KLCK Airport Info (Airnav.com)

KLCK Flight Activity (Flightaware)

Listeners: 1 out of 2995 total

Emergency/Guard: 121.500

KLCK Tower (Archives)
Columbus, Ohio, United States

Feed Status: UP
Listen in your browser - HTML5 player(in browser, HTML5)
Click here to listen with your own player(launches your MP3 player)

KLCK 121555Z AUTO 25016G20KT 10SM OVC016 10/08 A2962 RMK AO2 T01010081

KLCK Airport Info (Airnav.com)

KLCK Flight Activity (Flightaware)

Listeners: 1 out of 2995 total

Rick Tower: 120.050

KLCK Tower (UHF)
Columbus, Ohio, United States

Feed Status: DOWN
Offline since: 2024-04-08 20:00:22 UTC

KLCK 121555Z AUTO 25016G20KT 10SM OVC016 10/08 A2962 RMK AO2 T01010081

KLCK Airport Info (Airnav.com)

Rick Tower (UHF/Military): 348.400

KLCK UNICOM
Columbus, Ohio, United States

Feed Status: DOWN
Offline since: 2024-04-08 20:01:39 UTC

KLCK 121555Z AUTO 25016G20KT 10SM OVC016 10/08 A2962 RMK AO2 T01010081

KLCK Airport Info (Airnav.com)

Rick UNICOM: 122.950

KLEE App/Dep (Archives)
Leesburg, Florida, United States

Feed Status: UP
Listen in your browser - HTML5 player(in browser, HTML5)
Click here to listen with your own player(launches your MP3 player)

KLEE 121553Z 31011G15KT 10SM CLR 24/11 A3016 RMK AO2 SLP210 T02390106

KLEE Airport Info (Airnav.com)

KLEE Flight Activity (Flightaware)

Listeners: 0 out of 2995 total

Orlando Approach: 135.300
Orlando Approach: 120.225

KLEE ASOS (Archives)
Leesburg, Florida, United States

Feed Status: UP
Listen in your browser - HTML5 player(in browser, HTML5)
Click here to listen with your own player(launches your MP3 player)

KLEE 121553Z 31011G15KT 10SM CLR 24/11 A3016 RMK AO2 SLP210 T02390106

KLEE Airport Info (Airnav.com)

KLEE Flight Activity (Flightaware)

Listeners: 0 out of 2995 total

Leesburg ASOS: 134.325

KLEE Ground (Archives)
Leesburg, Florida, United States

Feed Status: UP
Listen in your browser - HTML5 player(in browser, HTML5)
Click here to listen with your own player(launches your MP3 player)

KLEE 121553Z 31011G15KT 10SM CLR 24/11 A3016 RMK AO2 SLP210 T02390106

KLEE Airport Info (Airnav.com)

KLEE Flight Activity (Flightaware)

Listeners: 0 out of 2995 total

Leesburg Ground: 121.725

KLEE Tower (Archives)
Leesburg, Florida, United States

Feed Status: UP
Listen in your browser - HTML5 player(in browser, HTML5)
Click here to listen with your own player(launches your MP3 player)

KLEE 121553Z 31011G15KT 10SM CLR 24/11 A3016 RMK AO2 SLP210 T02390106

KLEE Airport Info (Airnav.com)

KLEE Flight Activity (Flightaware)

Listeners: 1 out of 2995 total

Leesburg Tower: 119.350

KLFI Del/Gnd/Twr (Archives)
Hampton, Virginia, United States

Feed Status: UP
Listen in your browser - HTML5 player(in browser, HTML5)
Click here to listen with your own player(launches your MP3 player)

KLFI 121555Z 26023G29KT 10SM SCT060 21/06 A2959 RMK AO2A PK WND 29034/14 SLP026 T02080063 $

KLFI Airport Info (Airnav.com)

KLFI Flight Activity (Flightaware)

Listeners: 3 out of 2995 total

Langley Clearance Delivery: 257.625
Langley Ground: 275.800
Langley Tower: 253.500
Langley Tower: 236.600

KLFK Emergency/Guard (Archives)
Lufkin, Texas, United States

Feed Status: UP
Listen in your browser - HTML5 player(in browser, HTML5)
Click here to listen with your own player(launches your MP3 player)

KLFK 121553Z AUTO 15006KT 10SM CLR 21/08 A3030 RMK AO2 SLP257 T02110078

KLFK Airport Info (Airnav.com)

KLFK Flight Activity (Flightaware)

Listeners: 0 out of 2995 total

Emergency/Guard: 121.500

KLFK/KOCH CTAF (Archives)
Lufkin, Texas, United States

Feed Status: UP
Listen in your browser - HTML5 player(in browser, HTML5)
Click here to listen with your own player(launches your MP3 player)

KLFK 121553Z AUTO 15006KT 10SM CLR 21/08 A3030 RMK AO2 SLP257 T02110078

KLFK Airport Info (Airnav.com)

KLFK Flight Activity (Flightaware)

Listeners: 0 out of 2995 total

Lufkin CTAF: 123.000

KLGB Clearance Delivery (Archives)
Long Beach, California, United States

Feed Status: UP
Listen in your browser - HTML5 player(in browser, HTML5)
Click here to listen with your own player(launches your MP3 player)

KLGB 121553Z VRB05KT 10SM OVC013 15/11 A2988 RMK AO2 SLP118 T01500106

KLGB Airport Info (Airnav.com)

KLGB Flight Activity (Flightaware)

Listeners: 0 out of 2995 total

Long Beach Clearance Delivery: 118.150

KLGB Ground (Archives)
Long Beach, California, United States

Feed Status: UP
Listen in your browser - HTML5 player(in browser, HTML5)
Click here to listen with your own player(launches your MP3 player)

KLGB 121553Z VRB05KT 10SM OVC013 15/11 A2988 RMK AO2 SLP118 T01500106

KLGB Airport Info (Airnav.com)

KLGB Flight Activity (Flightaware)

Listeners: 1 out of 2995 total

Long Beach Ground: 133.000

KLGB Tower (Archives)
Long Beach, California, United States

Feed Status: UP
Listen in your browser - HTML5 player(in browser, HTML5)
Click here to listen with your own player(launches your MP3 player)

KLGB 121553Z VRB05KT 10SM OVC013 15/11 A2988 RMK AO2 SLP118 T01500106

KLGB Airport Info (Airnav.com)

KLGB Flight Activity (Flightaware)

Listeners: 5 out of 2995 total

Long Beach Tower: 119.400

KCTJ/KLGC CTAF (Archives)
LaGrange, Georgia, United States

Feed Status: UP
Listen in your browser - HTML5 player(in browser, HTML5)
Click here to listen with your own player(launches your MP3 player)

KCCO 121615Z AUTO 31010G19KT 10SM CLR 18/M03 A3007 RMK AO2 T01761026

KCCO Airport Info (Airnav.com)

KCCO Flight Activity (Flightaware)

Listeners: 0 out of 2995 total

KCTJ/KLGC CTAF: 122.975

KLGD CTAF (Archives)
La Grande, Oregon, United States

Feed Status: UP
Listen in your browser - HTML5 player(in browser, HTML5)
Click here to listen with your own player(launches your MP3 player)

KLGD 121556Z AUTO 00000KT 10SM CLR 10/04 A2980 RMK AO2 SLP088 T01000044

KLGD Airport Info (Airnav.com)

KLGD Flight Activity (Flightaware)

Listeners: 0 out of 2995 total

La Grande CTAF: 122.800

KLGD Emergency/Guard (Archives)
La Grande, Oregon, United States

Feed Status: UP
Listen in your browser - HTML5 player(in browser, HTML5)
Click here to listen with your own player(launches your MP3 player)

KLGD 121556Z AUTO 00000KT 10SM CLR 10/04 A2980 RMK AO2 SLP088 T01000044

KLGD Airport Info (Airnav.com)

KLGD Flight Activity (Flightaware)

Listeners: 0 out of 2995 total

Emergency/Guard: 121.500

KLHZ CTAF (Archives)
Louisburg, North Carolina, United States

Feed Status: UP
Listen in your browser - HTML5 player(in browser, HTML5)
Click here to listen with your own player(launches your MP3 player)

KLHZ 121605Z AUTO 26014G22KT 10SM SCT060 BKN080 18/05 A2973 RMK AO2

KLHZ Airport Info (Airnav.com)

KLHZ Flight Activity (Flightaware)

Listeners: 0 out of 2995 total

Louisburg CTAF/UNICOM: 123.000
Louisburg GCO: 135.075
Raleigh Approach (East): 125.300

KLKU CTAF #1 (Archives)
Louisa, Virginia, United States

Feed Status: UP
Listen in your browser - HTML5 player(in browser, HTML5)
Click here to listen with your own player(launches your MP3 player)

KLKU 121615Z AUTO 26010KT 220V290 10SM SCT025 SCT045 OVC075 17/05 A2958 RMK AO2 T01720052

KLKU Airport Info (Airnav.com)

KLKU Flight Activity (Flightaware)

Listeners: 0 out of 2995 total

Louisa CTAF: 122.975

KLKU CTAF #2 (Archives)
Louisa, Virginia, United States

Feed Status: UP
Listen in your browser - HTML5 player(in browser, HTML5)
Click here to listen with your own player(launches your MP3 player)


Listeners: 0 out of 2995 total

Louisa CTAF: 122.975

KFTG/KEIK/KBDU/KLMO/Misc (Archives)
Longmont, Colorado, United States

Feed Status: UP
Listen in your browser - HTML5 player(in browser, HTML5)
Click here to listen with your own player(launches your MP3 player)

KDEN 121553Z 21009KT 10SM CLR 18/M06 A3010 RMK AO2 SLP153 T01831061

KDEN Airport Info (Airnav.com)

KDEN Flight Activity (Flightaware)

Listeners: 0 out of 2995 total

Air-to-Air Fixed Wing: 122.750
Air-to-Air Informal: 123.450
Boulder CTAF: 122.725
Erie CTAF: 123.000
Front Range Tower: 120.200
KBKF Tower: 121.000
Longmont CTAF: 122.975
MULTICOM: 122.900
UNICOM: 122.950

KLMO CTAF (Archives)
Longmont, Colorado, United States

Feed Status: UP
Listen in your browser - HTML5 player(in browser, HTML5)
Click here to listen with your own player(launches your MP3 player)

KLMO 121615Z AUTO 00000KT 10SM CLR 16/M02 A3011 RMK AO2 T01611025

KLMO Airport Info (Airnav.com)

KLMO Flight Activity (Flightaware)

Listeners: 1 out of 2995 total

Longmont CTAF: 122.975

KLNA CTAF (Archives)
West Palm Beach, Florida, United States

Feed Status: UP
Listen in your browser - HTML5 player(in browser, HTML5)
Click here to listen with your own player(launches your MP3 player)

KPBI 121553Z 02006KT 10SM FEW038 SCT250 26/15 A3015 RMK AO2 SLP207 T02560150 $

KPBI Airport Info (Airnav.com)

KPBI Flight Activity (Flightaware)

Listeners: 0 out of 2995 total

Lantana CTAF: 122.700

West Palm Beach Area CTAFs (Archives)
West Palm Beach, Florida, United States

Feed Status: UP
Listen in your browser - HTML5 player(in browser, HTML5)
Click here to listen with your own player(launches your MP3 player)

KPBI 121553Z 02006KT 10SM FEW038 SCT250 26/15 A3015 RMK AO2 SLP207 T02560150 $

KPBI Airport Info (Airnav.com)

KPBI Flight Activity (Flightaware)

Listeners: 0 out of 2995 total

Emergency/Guard: 121.500
Lantana CTAF: 122.700
North County CTAF: 123.075
St Marys Hospital Heliport: 122.800
Wellington CTAF: 122.850

KLNS Ground/Tower (Archives)
Lancaster, Pennsylvania, United States

Feed Status: UP
Listen in your browser - HTML5 player(in browser, HTML5)
Click here to listen with your own player(launches your MP3 player)

KLNS 121553Z 26014G29KT 10SM -RA OVC041 14/07 A2940 RMK AO2 PK WND 26030/1527 SLP955 P0001 T01440072

KLNS Airport Info (Airnav.com)

KLNS Flight Activity (Flightaware)

Listeners: 2 out of 2995 total

Lancaster Ground: 121.800
Lancaster Tower: 120.900

KLNS Tower (Archives)
Lancaster, Pennsylvania, United States

Feed Status: UP
Listen in your browser - HTML5 player(in browser, HTML5)
Click here to listen with your own player(launches your MP3 player)

KLNS 121553Z 26014G29KT 10SM -RA OVC041 14/07 A2940 RMK AO2 PK WND 26030/1527 SLP955 P0001 T01440072

KLNS Airport Info (Airnav.com)

KLNS Flight Activity (Flightaware)

Listeners: 0 out of 2995 total

Lancaster Tower: 120.900

KLOT ATIS
Chicago/Romeoville, Illinois, United States

Feed Status: DOWN
Offline since: 2024-04-12 16:55:05 UTC

KLOT 121545Z 30019G28KT 10SM SCT028 14/07 A2977

KLOT Airport Info (Airnav.com)

Lewis ATIS: 126.675

KLOT Ground
Chicago/Romeoville, Illinois, United States

Feed Status: DOWN
Offline since: 2024-04-12 16:25:06 UTC

KLOT 121545Z 30019G28KT 10SM SCT028 14/07 A2977

KLOT Airport Info (Airnav.com)

Lewis Ground: 120.425

KLOT Ground/Tower
Chicago/Romeoville, Illinois, United States

Feed Status: DOWN
Offline since: 2024-04-12 16:55:05 UTC

KLOT 121545Z 30019G28KT 10SM SCT028 14/07 A2977

KLOT Airport Info (Airnav.com)

Lewis Ground: 120.425
Lewis Tower: 134.800

KLOT Tower
Chicago/Romeoville, Illinois, United States

Feed Status: DOWN
Offline since: 2024-04-11 20:55:10 UTC

KLOT 121545Z 30019G28KT 10SM SCT028 14/07 A2977

KLOT Airport Info (Airnav.com)

Lewis Tower: 134.800

KLOU ATIS (Archives)
Louisville, Kentucky, United States

Feed Status: UP
Listen in your browser - HTML5 player(in browser, HTML5)
Click here to listen with your own player(launches your MP3 player)

KLOU 121553Z 28015G25KT 10SM -RA BKN030 OVC037 09/06 A2984 RMK AO2 PK WND 24028/1458 RAB30 SLP104 P0001 T00940056

KLOU Airport Info (Airnav.com)

KLOU Flight Activity (Flightaware)

Listeners: 1 out of 2995 total

Bowman ATIS: 124.150

KLOU Del/Gnd (Archives)
Louisville, Kentucky, United States

Feed Status: UP
Listen in your browser - HTML5 player(in browser, HTML5)
Click here to listen with your own player(launches your MP3 player)

KLOU 121553Z 28015G25KT 10SM -RA BKN030 OVC037 09/06 A2984 RMK AO2 PK WND 24028/1458 RAB30 SLP104 P0001 T00940056

KLOU Airport Info (Airnav.com)

KLOU Flight Activity (Flightaware)

Listeners: 0 out of 2995 total

Bowman Clearance Delivery: 118.900
Bowman Ground: 121.800

KLOU Del/Gnd/Twr (Archives)
Louisville, Kentucky, United States

Feed Status: UP
Listen in your browser - HTML5 player(in browser, HTML5)
Click here to listen with your own player(launches your MP3 player)

KLOU 121553Z 28015G25KT 10SM -RA BKN030 OVC037 09/06 A2984 RMK AO2 PK WND 24028/1458 RAB30 SLP104 P0001 T00940056

KLOU Airport Info (Airnav.com)

KLOU Flight Activity (Flightaware)

Listeners: 0 out of 2995 total

Bowman Clearance Delivery: 118.900
Bowman Ground: 121.800
Bowman Tower: 119.500

KLOU Tower (Archives)
Louisville, Kentucky, United States

Feed Status: UP
Listen in your browser - HTML5 player(in browser, HTML5)
Click here to listen with your own player(launches your MP3 player)

KLOU 121553Z 28015G25KT 10SM -RA BKN030 OVC037 09/06 A2984 RMK AO2 PK WND 24028/1458 RAB30 SLP104 P0001 T00940056

KLOU Airport Info (Airnav.com)

KLOU Flight Activity (Flightaware)

Listeners: 0 out of 2995 total

Bowman Tower: 119.500

KLRD Ground/Tower (Archives)
Laredo, Texas, United States

Feed Status: UP
Listen in your browser - HTML5 player(in browser, HTML5)
Click here to listen with your own player(launches your MP3 player)

KLRD 121556Z 15020G25KT 10SM CLR 27/02 A3020 RMK AO2 SLP225 T02720022

KLRD Airport Info (Airnav.com)

KLRD Flight Activity (Flightaware)

Listeners: 0 out of 2995 total

Laredo Ground: 121.800
Laredo Tower: 120.100
Laredo UNICOM: 122.950

KLRD Tower (Archives)
Laredo, Texas, United States

Feed Status: UP
Listen in your browser - HTML5 player(in browser, HTML5)
Click here to listen with your own player(launches your MP3 player)

KLRD 121556Z 15020G25KT 10SM CLR 27/02 A3020 RMK AO2 SLP225 T02720022

KLRD Airport Info (Airnav.com)

KLRD Flight Activity (Flightaware)

Listeners: 0 out of 2995 total

Laredo Tower: 120.100

KLUF App/Dep (Archives)
Glendale, Arizona, United States

Feed Status: UP
Listen in your browser - HTML5 player(in browser, HTML5)
Click here to listen with your own player(launches your MP3 player)

KPHX 121551Z 16008KT 10SM CLR 26/M01 A2985 RMK AO2 SLP090 T02561011

KPHX Airport Info (Airnav.com)

KPHX Flight Activity (Flightaware)

Listeners: 1 out of 2995 total

Luke Approach/Departure: 118.150
Luke Approach/Departure: 125.450
Luke Approach/Departure: 263.125
Luke Approach/Departure: 363.125
Luke Arrival: 120.500

KLUF Del/Gnd/Twr/Misc (Archives)
Glendale, Arizona, United States

Feed Status: UP
Listen in your browser - HTML5 player(in browser, HTML5)
Click here to listen with your own player(launches your MP3 player)

KPHX 121551Z 16008KT 10SM CLR 26/M01 A2985 RMK AO2 SLP090 T02561011

KPHX Airport Info (Airnav.com)

KPHX Flight Activity (Flightaware)

Listeners: 0 out of 2995 total

Command Post (Raymond-18) : 349.400
Emergency/Guard: 243.000
In-Flight Emergencies: 291.100
Luke Clearance Delivery: 126.250
Luke Clearance Delivery: 273.475
Luke Ground: 335.800
Luke Ground: 133.175
Luke Tower: 119.100
Luke Tower: 379.900
PMSV - Metro/Weather: 267.400
PTD: 372.200
SOF: 369.000
SOF: 149.400

KLUK Twr/App/Dep (Archives)
Cincinnati, Ohio, United States

Feed Status: UP
Listen in your browser - HTML5 player(in browser, HTML5)
Click here to listen with your own player(launches your MP3 player)

KLUK 121611Z 25010G19KT 6SM -RA BR FEW018 BKN023 OVC048 09/07 A2974 RMK AO2 P0000 T00940072

KLUK Airport Info (Airnav.com)

KLUK Flight Activity (Flightaware)

Listeners: 0 out of 2995 total

Cincinnati Approach: 121.000
Cincinnati Departure: 128.700
Lunken Tower: 118.700

KLVJ CTAF (Archives)
Houston, Texas, United States

Feed Status: UP
Listen in your browser - HTML5 player(in browser, HTML5)
Click here to listen with your own player(launches your MP3 player)

KLVJ 121553Z AUTO 09008KT 10SM CLR 23/05 A3031 RMK AO2 SLP264 T02330050

KLVJ Airport Info (Airnav.com)

KLVJ Flight Activity (Flightaware)

Listeners: 0 out of 2995 total

Pearland CTAF: 122.725

KLVM CTAF (Archives)
Livingston, Montana, United States

Feed Status: UP
Listen in your browser - HTML5 player(in browser, HTML5)
Click here to listen with your own player(launches your MP3 player)

KBZN 121556Z VRB03KT 10SM CLR 17/02 A2980 RMK AO2 SLP065 T01720017

KBZN Airport Info (Airnav.com)

KBZN Flight Activity (Flightaware)

Listeners: 0 out of 2995 total

Livingston CTAF: 123.000

KLWM Ground/Tower (Archives)
Lawrence, Massachusetts, United States

Feed Status: UP
Listen in your browser - HTML5 player(in browser, HTML5)
Click here to listen with your own player(launches your MP3 player)

KLWM 121554Z 17009G22KT 7SM -RA OVC009 17/15 A2948 RMK AO2 PK WND 16027/1533 SLP981 P0000 T01670150

KLWM Airport Info (Airnav.com)

KLWM Flight Activity (Flightaware)

Listeners: 1 out of 2995 total

Eagle East Jet Service: 122.850
Emergency/Guard: 121.500
Four Star Aviation Jet Center: 123.300
Lawrence Clearance (after hours, Boston Approach): 126.150
Lawrence Ground: 124.300
Lawrence Tower: 119.250
Northeast Executive Jet: 130.600

KLWS Ground/Tower (Archives)
Lewiston, Idaho, United States

Feed Status: UP
Listen in your browser - HTML5 player(in browser, HTML5)
Click here to listen with your own player(launches your MP3 player)

KLWS 121556Z AUTO 00000KT 10SM CLR 14/08 A2981 RMK AO2 RAE1459 SLP092 P0000 T01390078

KLWS Airport Info (Airnav.com)

KLWS Flight Activity (Flightaware)

Listeners: 0 out of 2995 total

Lewiston Ground: 121.900
Lewiston Tower: 119.400

KLYH Ground (Archives)
Lynchburg, Virginia, United States

Feed Status: UP
Listen in your browser - HTML5 player(in browser, HTML5)
Click here to listen with your own player(launches your MP3 player)

KLYH 121554Z 24014G32KT 220V290 10SM BKN055 17/04 A2965 RMK AO2 PK WND 29035/1502 SLP034 T01670039

KLYH Airport Info (Airnav.com)

KLYH Flight Activity (Flightaware)

Listeners: 0 out of 2995 total

Lynchburg Ground: 121.900

KLYH Roanoke Approach (Archives)
Lynchburg, Virginia, United States

Feed Status: UP
Listen in your browser - HTML5 player(in browser, HTML5)
Click here to listen with your own player(launches your MP3 player)

KLYH 121554Z 24014G32KT 220V290 10SM BKN055 17/04 A2965 RMK AO2 PK WND 29035/1502 SLP034 T01670039

KLYH Airport Info (Airnav.com)

KLYH Flight Activity (Flightaware)

Listeners: 0 out of 2995 total

Roanoke Approach: 135.000

KLYH Tower (Archives)
Lynchburg, Virginia, United States

Feed Status: UP
Listen in your browser - HTML5 player(in browser, HTML5)
Click here to listen with your own player(launches your MP3 player)

KLYH 121554Z 24014G32KT 220V290 10SM BKN055 17/04 A2965 RMK AO2 PK WND 29035/1502 SLP034 T01670039

KLYH Airport Info (Airnav.com)

KLYH Flight Activity (Flightaware)

Listeners: 0 out of 2995 total

Lynchburg Tower: 127.650

Atlanta App/Dep (SAT-P) (Archives)
Lawrenceville, Georgia, United States

Feed Status: UP
Listen in your browser - HTML5 player(in browser, HTML5)
Click here to listen with your own player(launches your MP3 player)

KLZU 121556Z 27011G21KT 10SM CLR 17/01 A2998 RMK AO2 PK WND 28027/1523 SLP159 T01720011

KLZU Airport Info (Airnav.com)

KLZU Flight Activity (Flightaware)

Listeners: 0 out of 2995 total

Atlanta Approach/Departure (SAT-P): 126.975

KLZU Tower (Archives)
Lawrenceville, Georgia, United States

Feed Status: UP
Listen in your browser - HTML5 player(in browser, HTML5)
Click here to listen with your own player(launches your MP3 player)

KLZU 121556Z 27011G21KT 10SM CLR 17/01 A2998 RMK AO2 PK WND 28027/1523 SLP159 T01720011

KLZU Airport Info (Airnav.com)

KLZU Flight Activity (Flightaware)

Listeners: 0 out of 2995 total

Gwinnett Tower: 124.100

KMAN CTAF (Archives)
Nampa, Idaho, United States

Feed Status: UP
Listen in your browser - HTML5 player(in browser, HTML5)
Click here to listen with your own player(launches your MP3 player)

KMAN 121615Z AUTO 15006G11KT 10SM CLR 16/08 A2977 RMK A01

KMAN Airport Info (Airnav.com)

KMAN Flight Activity (Flightaware)

Listeners: 0 out of 2995 total

Nampa CTAF: 122.700

KMCC CTAF/Del/Gnd/Twr (Archives)
Sacramento, California, United States

Feed Status: UP
Listen in your browser - HTML5 player(in browser, HTML5)
Click here to listen with your own player(launches your MP3 player)

KMCC 121615Z AUTO 19008G13KT 10SM FEW080 15/08 A2967 RMK AO2

KMCC Airport Info (Airnav.com)

KMCC Flight Activity (Flightaware)

Listeners: 1 out of 2995 total

McClellan Clearance Delivery: 119.825
McClellan CTAF: 122.975
McClellan Ground (temp): 133.150
McClellan Tower (temp): 132.300

KMCO App/Dep (North Satellite) (Archives)
Orlando, Florida, United States

Feed Status: UP
Listen in your browser - HTML5 player(in browser, HTML5)
Click here to listen with your own player(launches your MP3 player)

KORL 121553Z 27012G16KT 10SM CLR 23/08 A3015 RMK AO2 SLP212 T02330078

KORL Airport Info (Airnav.com)

KORL Flight Activity (Flightaware)

Listeners: 1 out of 2995 total

Orlando Approach (North Satellite): 135.300

KMDT App/Dep (East) (Archives)
Harrisburg, Pennsylvania, United States

Feed Status: UP
Listen in your browser - HTML5 player(in browser, HTML5)
Click here to listen with your own player(launches your MP3 player)

KMDT 121556Z 27015G28KT 10SM BKN049 OVC120 14/06 A2941 RMK AO2 PK WND 26028/1552 SLP958 T01440056

KMDT Airport Info (Airnav.com)

KMDT Flight Activity (Flightaware)

Listeners: 0 out of 2995 total

Harrisburg App/Dep (East): 126.450

KMDT App/Dep (East/West) (Archives)
Harrisburg, Pennsylvania, United States

Feed Status: UP
Listen in your browser - HTML5 player(in browser, HTML5)
Click here to listen with your own player(launches your MP3 player)

KMDT 121556Z 27015G28KT 10SM BKN049 OVC120 14/06 A2941 RMK AO2 PK WND 26028/1552 SLP958 T01440056

KMDT Airport Info (Airnav.com)

KMDT Flight Activity (Flightaware)

Listeners: 0 out of 2995 total

Harrisburg App/Dep (East): 126.450
Harrisburg App/Dep (North): 118.250
Harrisburg App/Dep (West): 124.100

KMDT App/Dep (North) (Archives)
Harrisburg, Pennsylvania, United States

Feed Status: UP
Listen in your browser - HTML5 player(in browser, HTML5)
Click here to listen with your own player(launches your MP3 player)

KMDT 121556Z 27015G28KT 10SM BKN049 OVC120 14/06 A2941 RMK AO2 PK WND 26028/1552 SLP958 T01440056

KMDT Airport Info (Airnav.com)

KMDT Flight Activity (Flightaware)

Listeners: 0 out of 2995 total

Harrisburg App/Dep (North): 118.250

KMDT App/Dep (West) (Archives)
Harrisburg, Pennsylvania, United States

Feed Status: UP
Listen in your browser - HTML5 player(in browser, HTML5)
Click here to listen with your own player(launches your MP3 player)

KMDT 121556Z 27015G28KT 10SM BKN049 OVC120 14/06 A2941 RMK AO2 PK WND 26028/1552 SLP958 T01440056

KMDT Airport Info (Airnav.com)

KMDT Flight Activity (Flightaware)

Listeners: 0 out of 2995 total

Harrisburg App/Dep (West): 124.100

KMDT ATIS (Archives)
Harrisburg, Pennsylvania, United States

Feed Status: UP
Listen in your browser - HTML5 player(in browser, HTML5)
Click here to listen with your own player(launches your MP3 player)

KMDT 121556Z 27015G28KT 10SM BKN049 OVC120 14/06 A2941 RMK AO2 PK WND 26028/1552 SLP958 T01440056

KMDT Airport Info (Airnav.com)

KMDT Flight Activity (Flightaware)

Listeners: 0 out of 2995 total

Harrisburg ATIS: 118.800

KMDT Emergency/Ground (Archives)
Harrisburg, Pennsylvania, United States

Feed Status: UP
Listen in your browser - HTML5 player(in browser, HTML5)
Click here to listen with your own player(launches your MP3 player)

KMDT 121556Z 27015G28KT 10SM BKN049 OVC120 14/06 A2941 RMK AO2 PK WND 26028/1552 SLP958 T01440056

KMDT Airport Info (Airnav.com)

KMDT Flight Activity (Flightaware)

Listeners: 0 out of 2995 total

Emergency/Guard: 121.500

KMDT Ground (Archives)
Harrisburg, Pennsylvania, United States

Feed Status: UP
Listen in your browser - HTML5 player(in browser, HTML5)
Click here to listen with your own player(launches your MP3 player)

KMDT 121556Z 27015G28KT 10SM BKN049 OVC120 14/06 A2941 RMK AO2 PK WND 26028/1552 SLP958 T01440056

KMDT Airport Info (Airnav.com)

KMDT Flight Activity (Flightaware)

Listeners: 0 out of 2995 total

Harrisburg Ground: 121.700

KMDT Tower (Archives)
Harrisburg, Pennsylvania, United States

Feed Status: UP
Listen in your browser - HTML5 player(in browser, HTML5)
Click here to listen with your own player(launches your MP3 player)

KMDT 121556Z 27015G28KT 10SM BKN049 OVC120 14/06 A2941 RMK AO2 PK WND 26028/1552 SLP958 T01440056

KMDT Airport Info (Airnav.com)

KMDT Flight Activity (Flightaware)

Listeners: 0 out of 2995 total

Harrisburg Tower: 124.800

KMFD ATIS (Archives)
Mansfield, Ohio, United States

Feed Status: UP
Listen in your browser - HTML5 player(in browser, HTML5)
Click here to listen with your own player(launches your MP3 player)

KMFD 121552Z 25015G22KT 7SM -RA OVC014 08/07 A2950 RMK AO2 PK WND 26028/1515 RAB20 SLP991 P0001 T00830067

KMFD Airport Info (Airnav.com)

KMFD Flight Activity (Flightaware)

Listeners: 0 out of 2995 total

Mansfield ATIS: 125.300

KMFR App/Dep (Archives)
Medford, Oregon, United States

Feed Status: UP
Listen in your browser - HTML5 player(in browser, HTML5)
Click here to listen with your own player(launches your MP3 player)

KMFR 121553Z 31003KT 10SM BKN110 11/04 A2968 RMK AO2 SLP046 T01060044

KMFR Airport Info (Airnav.com)

KMFR Flight Activity (Flightaware)

Listeners: 0 out of 2995 total

Cascade Approach/Departure: 124.300

KMFR Emergency/Guard (Archives)
Medford, Oregon, United States

Feed Status: UP
Listen in your browser - HTML5 player(in browser, HTML5)
Click here to listen with your own player(launches your MP3 player)

KMFR 121553Z 31003KT 10SM BKN110 11/04 A2968 RMK AO2 SLP046 T01060044

KMFR Airport Info (Airnav.com)

KMFR Flight Activity (Flightaware)

Listeners: 0 out of 2995 total

Emergency/Guard: 121.500

KMFR Ground (Archives)
Medford, Oregon, United States

Feed Status: UP
Listen in your browser - HTML5 player(in browser, HTML5)
Click here to listen with your own player(launches your MP3 player)

KMFR 121553Z 31003KT 10SM BKN110 11/04 A2968 RMK AO2 SLP046 T01060044

KMFR Airport Info (Airnav.com)

KMFR Flight Activity (Flightaware)

Listeners: 0 out of 2995 total

Medford Ground: 121.800

KMFR Ground/Tower (Archives)
Medford, Oregon, United States

Feed Status: UP
Listen in your browser - HTML5 player(in browser, HTML5)
Click here to listen with your own player(launches your MP3 player)

KMFR 121553Z 31003KT 10SM BKN110 11/04 A2968 RMK AO2 SLP046 T01060044

KMFR Airport Info (Airnav.com)

KMFR Flight Activity (Flightaware)

Listeners: 1 out of 2995 total

Medford Ground: 121.800
Medford Tower: 119.400

Atlanta Approach (N. Sat) (Archives)
Marietta, Georgia, United States

Feed Status: UP
Listen in your browser - HTML5 player(in browser, HTML5)
Click here to listen with your own player(launches your MP3 player)

KRYY 121550Z 28019G26KT 10SM CLR 17/01 A3001 RMK AO2 PK WND 26026/1541 SLP157 T01670006 $

KRYY Airport Info (Airnav.com)

KRYY Flight Activity (Flightaware)

Listeners: 1 out of 2995 total

Atlanta Approach (North Satellite): 121.000

KMGE Ground (Archives)
Marietta, Georgia, United States

Feed Status: UP
Listen in your browser - HTML5 player(in browser, HTML5)
Click here to listen with your own player(launches your MP3 player)

KRYY 121550Z 28019G26KT 10SM CLR 17/01 A3001 RMK AO2 PK WND 26026/1541 SLP157 T01670006 $

KRYY Airport Info (Airnav.com)

KRYY Flight Activity (Flightaware)

Listeners: 0 out of 2995 total

Dobbins Ground: 125.300

KMGE Tower (Archives)
Marietta, Georgia, United States

Feed Status: UP
Listen in your browser - HTML5 player(in browser, HTML5)
Click here to listen with your own player(launches your MP3 player)

KRYY 121550Z 28019G26KT 10SM CLR 17/01 A3001 RMK AO2 PK WND 26026/1541 SLP157 T01670006 $

KRYY Airport Info (Airnav.com)

KRYY Flight Activity (Flightaware)

Listeners: 0 out of 2995 total

Dobbins Tower: 120.750

KMGJ CTAF (Archives)
Montgomery, New York, United States

Feed Status: UP
Listen in your browser - HTML5 player(in browser, HTML5)
Click here to listen with your own player(launches your MP3 player)

KSWF 121445Z 15010KT 5SM -RA BR OVC007 16/14 A2932

KSWF Airport Info (Airnav.com)

KSWF Flight Activity (Flightaware)

Listeners: 0 out of 2995 total

Orange County CTAF: 122.725

KMGM App/Dep (Archives)
Montgomery, Alabama, United States

Feed Status: UP
Listen in your browser - HTML5 player(in browser, HTML5)
Click here to listen with your own player(launches your MP3 player)

KMGM 121553Z 30014G20KT 10SM CLR 19/06 A3015 RMK AO2 SLP209 T01890056

KMGM Airport Info (Airnav.com)

KMGM Flight Activity (Flightaware)

Listeners: 0 out of 2995 total

Montgomery Approach/Departure: 124.000

KMGM ATIS (Archives)
Montgomery, Alabama, United States

Feed Status: UP
Listen in your browser - HTML5 player(in browser, HTML5)
Click here to listen with your own player(launches your MP3 player)

KMGM 121553Z 30014G20KT 10SM CLR 19/06 A3015 RMK AO2 SLP209 T01890056

KMGM Airport Info (Airnav.com)

KMGM Flight Activity (Flightaware)

Listeners: 0 out of 2995 total

Montgomery ATIS: 120.675

KMGM Emergency/Guard (Archives)
Montgomery, Alabama, United States

Feed Status: UP
Listen in your browser - HTML5 player(in browser, HTML5)
Click here to listen with your own player(launches your MP3 player)

KMGM 121553Z 30014G20KT 10SM CLR 19/06 A3015 RMK AO2 SLP209 T01890056

KMGM Airport Info (Airnav.com)

KMGM Flight Activity (Flightaware)

Listeners: 0 out of 2995 total

Emergency/Guard: 121.500

KMGM Ground (Archives)
Montgomery, Alabama, United States

Feed Status: UP
Listen in your browser - HTML5 player(in browser, HTML5)
Click here to listen with your own player(launches your MP3 player)

KMGM 121553Z 30014G20KT 10SM CLR 19/06 A3015 RMK AO2 SLP209 T01890056

KMGM Airport Info (Airnav.com)

KMGM Flight Activity (Flightaware)

Listeners: 0 out of 2995 total

Montgomery Ground: 121.700

KMGM Ground/Tower (Archives)
Montgomery, Alabama, United States

Feed Status: UP
Listen in your browser - HTML5 player(in browser, HTML5)
Click here to listen with your own player(launches your MP3 player)

KMGM 121553Z 30014G20KT 10SM CLR 19/06 A3015 RMK AO2 SLP209 T01890056

KMGM Airport Info (Airnav.com)

KMGM Flight Activity (Flightaware)

Listeners: 0 out of 2995 total

Montgomery Approach/Departure: 124.000
Montgomery Ground: 121.700

KMGM Tower (Archives)
Montgomery, Alabama, United States

Feed Status: UP
Listen in your browser - HTML5 player(in browser, HTML5)
Click here to listen with your own player(launches your MP3 player)

KMGM 121553Z 30014G20KT 10SM CLR 19/06 A3015 RMK AO2 SLP209 T01890056

KMGM Airport Info (Airnav.com)

KMGM Flight Activity (Flightaware)

Listeners: 0 out of 2995 total

Montgomery Approach/Departure: 124.000
Montgomery Tower: 119.700

KMGM Tower/Approach (Archives)
Montgomery, Alabama, United States

Feed Status: UP
Listen in your browser - HTML5 player(in browser, HTML5)
Click here to listen with your own player(launches your MP3 player)

KMGM 121553Z 30014G20KT 10SM CLR 19/06 A3015 RMK AO2 SLP209 T01890056

KMGM Airport Info (Airnav.com)

KMGM Flight Activity (Flightaware)

Listeners: 0 out of 2995 total

Montgomery Approach/Departure: 124.000
Montgomery Tower: 119.700

KMGW ASOS (Archives)
Morgantown, West Virginia, United States

Feed Status: UP
Listen in your browser - HTML5 player(in browser, HTML5)
Click here to listen with your own player(launches your MP3 player)

KMGW 121553Z 25012G24KT 220V280 10SM BKN034 OVC041 12/04 A2953 RMK AO2 SLP996 T01170044

KMGW Airport Info (Airnav.com)

KMGW Flight Activity (Flightaware)

Listene